Wetterdaten: Dienstag, 25.03.2025
Datum Zeit Temp. I. Temp. A. Feuchte I. Feuchte A. Luftdruck Regen Wind Richtung Richtung Sonnenschein Solar Taupunkt Windchill Windböen
25.03.2025 00:00 21,9 °C 7,3 °C 46 % 91 % 1016,0 hPa 0,0 l/m² 0,0 km/h (0 Bft) W-NW 295 ° 0 min 0 W/m² 5,9 °C 7,3 °C 0,0 km/h (0 Bft)
25.03.2025 00:01 21,9 °C 7,3 °C 46 % 91 % 1015,9 hPa 0,0 l/m² 0,0 km/h (0 Bft) W-NW 295 ° 0 min 0 W/m² 5,9 °C 7,3 °C 0,0 km/h (0 Bft)
25.03.2025 00:03 21,9 °C 7,3 °C 46 % 92 % 1016,0 hPa 0,0 l/m² 0,0 km/h (0 Bft) W-NW 295 ° 0 min 0 W/m² 6,1 °C 7,3 °C 0,0 km/h (0 Bft)
25.03.2025 00:04 21,9 °C 7,2 °C 46 % 91 % 1016,1 hPa 0,0 l/m² 0,5 km/h (0 Bft) W-NW 295 ° 0 min 0 W/m² 5,8 °C 7,2 °C 1,6 km/h (1 Bft)
25.03.2025 00:06 21,8 °C 7,2 °C 46 % 91 % 1016,0 hPa 0,0 l/m² 0,7 km/h (0 Bft) W-NW 295 ° 0 min 0 W/m² 5,8 °C 7,2 °C 3,2 km/h (1 Bft)
25.03.2025 00:08 21,9 °C 7,1 °C 46 % 91 % 1016,0 hPa 0,0 l/m² 0,0 km/h (0 Bft) W-NW 295 ° 0 min 0 W/m² 5,7 °C 7,1 °C 0,0 km/h (0 Bft)
25.03.2025 00:10 21,8 °C 7,0 °C 46 % 91 % 1016,1 hPa 0,0 l/m² 0,0 km/h (0 Bft) W-NW 295 ° 0 min 0 W/m² 5,6 °C 7,0 °C 0,0 km/h (0 Bft)
25.03.2025 00:11 21,9 °C 7,0 °C 46 % 91 % 1016,0 hPa 0,0 l/m² 0,0 km/h (0 Bft) W-NW 295 ° 0 min 0 W/m² 5,6 °C 7,0 °C 0,0 km/h (0 Bft)
25.03.2025 00:13 21,9 °C 6,9 °C 46 % 91 % 1015,9 hPa 0,0 l/m² 0,0 km/h (0 Bft) W-NW 295 ° 0 min 0 W/m² 5,5 °C 6,9 °C 0,0 km/h (0 Bft)
25.03.2025 00:15 21,9 °C 6,9 °C 46 % 91 % 1016,1 hPa 0,0 l/m² 0,6 km/h (0 Bft) W-NW 294 ° 0 min 0 W/m² 5,5 °C 6,9 °C 1,6 km/h (1 Bft)
25.03.2025 00:17 21,9 °C 6,8 °C 46 % 91 % 1016,1 hPa 0,0 l/m² 0,0 km/h (0 Bft) W-NW 294 ° 0 min 0 W/m² 5,4 °C 6,8 °C 0,0 km/h (0 Bft)
25.03.2025 00:19 21,9 °C 6,8 °C 46 % 91 % 1016,0 hPa 0,0 l/m² 0,0 km/h (0 Bft) W-NW 294 ° 0 min 0 W/m² 5,4 °C 6,8 °C 0,0 km/h (0 Bft)
25.03.2025 00:21 21,9 °C 6,7 °C 46 % 91 % 1016,1 hPa 0,0 l/m² 0,0 km/h (0 Bft) W-NW 294 ° 0 min 0 W/m² 5,3 °C 6,7 °C 0,0 km/h (0 Bft)
25.03.2025 00:22 21,8 °C 6,5 °C 46 % 91 % 1016,1 hPa 0,0 l/m² 0,0 km/h (0 Bft) W-NW 294 ° 0 min 0 W/m² 5,1 °C 6,5 °C 0,0 km/h (0 Bft)
25.03.2025 00:23 21,9 °C 6,3 °C 46 % 90 % 1016,0 hPa 0,0 l/m² 0,0 km/h (0 Bft) W-NW 294 ° 0 min 0 W/m² 4,8 °C 6,3 °C 0,0 km/h (0 Bft)
25.03.2025 00:25 21,8 °C 5,9 °C 46 % 90 % 1016,1 hPa 0,0 l/m² 0,0 km/h (0 Bft) W-NW 294 ° 0 min 0 W/m² 4,4 °C 5,9 °C 0,0 km/h (0 Bft)
25.03.2025 00:27 21,8 °C 5,8 °C 46 % 90 % 1016,1 hPa 0,0 l/m² 0,0 km/h (0 Bft) W-NW 294 ° 0 min 0 W/m² 4,3 °C 5,8 °C 0,0 km/h (0 Bft)
25.03.2025 00:29 21,8 °C 5,9 °C 46 % 91 % 1016,1 hPa 0,0 l/m² 0,0 km/h (0 Bft) W-NW 294 ° 0 min 0 W/m² 4,5 °C 5,9 °C 0,0 km/h (0 Bft)
25.03.2025 00:31 21,8 °C 6,1 °C 46 % 92 % 1016,1 hPa 0,0 l/m² 0,0 km/h (0 Bft) W-NW 294 ° 0 min 0 W/m² 4,9 °C 6,1 °C 0,0 km/h (0 Bft)
25.03.2025 00:32 21,9 °C 6,2 °C 46 % 92 % 1016,0 hPa 0,0 l/m² 0,0 km/h (0 Bft) W-NW 294 ° 0 min 0 W/m² 5,0 °C 6,2 °C 0,0 km/h (0 Bft)
25.03.2025 00:33 21,9 °C 6,2 °C 46 % 92 % 1016,0 hPa 0,0 l/m² 0,0 km/h (0 Bft) W-NW 294 ° 0 min 0 W/m² 5,0 °C 6,2 °C 0,0 km/h (0 Bft)
25.03.2025 00:35 21,8 °C 6,3 °C 46 % 92 % 1016,1 hPa 0,0 l/m² 0,0 km/h (0 Bft) W-NW 294 ° 0 min 0 W/m² 5,1 °C 6,3 °C 0,0 km/h (0 Bft)
25.03.2025 00:37 21,8 °C 6,5 °C 46 % 92 % 1016,0 hPa 0,0 l/m² 0,0 km/h (0 Bft) W-NW 294 ° 0 min 0 W/m² 5,3 °C 6,5 °C 0,0 km/h (0 Bft)
25.03.2025 00:39 21,8 °C 6,6 °C 46 % 92 % 1016,1 hPa 0,0 l/m² 0,0 km/h (0 Bft) W-NW 294 ° 0 min 0 W/m² 5,4 °C 6,6 °C 0,0 km/h (0 Bft)
25.03.2025 00:41 21,9 °C 6,7 °C 46 % 92 % 1016,1 hPa 0,0 l/m² 0,0 km/h (0 Bft) W-NW 294 ° 0 min 0 W/m² 5,5 °C 6,7 °C 0,0 km/h (0 Bft)
25.03.2025 00:42 21,8 °C 6,8 °C 46 % 92 % 1016,0 hPa 0,0 l/m² 0,0 km/h (0 Bft) W-NW 294 ° 0 min 0 W/m² 5,6 °C 6,8 °C 0,0 km/h (0 Bft)
25.03.2025 00:43 21,8 °C 6,8 °C 46 % 92 % 1016,1 hPa 0,0 l/m² 0,0 km/h (0 Bft) W-NW 294 ° 0 min 0 W/m² 5,6 °C 6,8 °C 0,0 km/h (0 Bft)
25.03.2025 00:46 21,9 °C 6,9 °C 46 % 92 % 1016,0 hPa 0,0 l/m² 0,3 km/h (0 Bft) W-NW 295 ° 0 min 0 W/m² 5,7 °C 6,9 °C 3,2 km/h (1 Bft)
25.03.2025 00:48 21,8 °C 7,1 °C 46 % 92 % 1016,0 hPa 0,0 l/m² 1,6 km/h (1 Bft) W-NW 295 ° 0 min 0 W/m² 5,9 °C 7,1 °C 3,2 km/h (1 Bft)
25.03.2025 00:50 21,8 °C 7,2 °C 46 % 92 % 1016,1 hPa 0,0 l/m² 0,0 km/h (0 Bft) W-NW 295 ° 0 min 0 W/m² 6,0 °C 7,2 °C 0,0 km/h (0 Bft)
25.03.2025 00:52 21,8 °C 7,3 °C 46 % 92 % 1016,1 hPa 0,0 l/m² 0,0 km/h (0 Bft) W-NW 295 ° 0 min 0 W/m² 6,1 °C 7,3 °C 0,0 km/h (0 Bft)
25.03.2025 00:53 21,8 °C 7,4 °C 46 % 92 % 1016,1 hPa 0,0 l/m² 0,0 km/h (0 Bft) W-NW 295 ° 0 min 0 W/m² 6,2 °C 7,4 °C 0,0 km/h (0 Bft)
25.03.2025 00:54 21,8 °C 7,3 °C 46 % 92 % 1016,1 hPa 0,0 l/m² 0,0 km/h (0 Bft) W-NW 294 ° 0 min 0 W/m² 6,1 °C 7,3 °C 0,0 km/h (0 Bft)
25.03.2025 00:56 21,9 °C 7,2 °C 46 % 91 % 1016,1 hPa 0,0 l/m² 0,1 km/h (0 Bft) W 277 ° 0 min 0 W/m² 5,8 °C 7,2 °C 1,6 km/h (1 Bft)
25.03.2025 00:58 21,8 °C 7,1 °C 46 % 92 % 1016,1 hPa 0,0 l/m² 0,0 km/h (0 Bft) W 277 ° 0 min 0 W/m² 5,9 °C 7,1 °C 0,0 km/h (0 Bft)
25.03.2025 01:00 21,8 °C 7,1 °C 46 % 92 % 1016,1 hPa 0,0 l/m² 0,0 km/h (0 Bft) W 277 ° 0 min 0 W/m² 5,9 °C 7,1 °C 0,0 km/h (0 Bft)
25.03.2025 01:02 21,8 °C 7,1 °C 46 % 92 % 1016,0 hPa 0,0 l/m² 0,0 km/h (0 Bft) W 277 ° 0 min 0 W/m² 5,9 °C 7,1 °C 0,0 km/h (0 Bft)
25.03.2025 01:03 21,8 °C 7,1 °C 46 % 92 % 1016,0 hPa 0,0 l/m² 0,0 km/h (0 Bft) W 277 ° 0 min 0 W/m² 5,9 °C 7,1 °C 0,0 km/h (0 Bft)
25.03.2025 01:04 21,8 °C 7,2 °C 46 % 92 % 1016,0 hPa 0,0 l/m² 0,0 km/h (0 Bft) W 277 ° 0 min 0 W/m² 6,0 °C 7,2 °C 0,0 km/h (0 Bft)
25.03.2025 01:06 21,8 °C 7,2 °C 46 % 92 % 1016,1 hPa 0,0 l/m² 0,0 km/h (0 Bft) W 277 ° 0 min 0 W/m² 6,0 °C 7,2 °C 0,0 km/h (0 Bft)
25.03.2025 01:08 21,9 °C 7,3 °C 46 % 92 % 1016,0 hPa 0,0 l/m² 0,0 km/h (0 Bft) W 277 ° 0 min 0 W/m² 6,1 °C 7,3 °C 0,0 km/h (0 Bft)
25.03.2025 01:10 21,8 °C 7,3 °C 46 % 92 % 1016,1 hPa 0,0 l/m² 0,0 km/h (0 Bft) W 277 ° 0 min 0 W/m² 6,1 °C 7,3 °C 0,0 km/h (0 Bft)
25.03.2025 01:12 21,9 °C 7,2 °C 46 % 92 % 1016,1 hPa 0,0 l/m² 0,0 km/h (0 Bft) W 277 ° 0 min 0 W/m² 6,0 °C 7,2 °C 0,0 km/h (0 Bft)
25.03.2025 01:13 21,9 °C 7,2 °C 46 % 92 % 1016,0 hPa 0,0 l/m² 0,0 km/h (0 Bft) W 277 ° 0 min 0 W/m² 6,0 °C 7,2 °C 0,0 km/h (0 Bft)
25.03.2025 01:14 21,8 °C 7,2 °C 46 % 92 % 1016,0 hPa 0,0 l/m² 0,0 km/h (0 Bft) W 277 ° 0 min 0 W/m² 6,0 °C 7,2 °C 0,0 km/h (0 Bft)
25.03.2025 01:16 21,8 °C 7,2 °C 46 % 92 % 1016,1 hPa 0,0 l/m² 0,0 km/h (0 Bft) W 277 ° 0 min 0 W/m² 6,0 °C 7,2 °C 0,0 km/h (0 Bft)
25.03.2025 01:18 21,8 °C 7,2 °C 46 % 92 % 1016,1 hPa 0,0 l/m² 0,0 km/h (0 Bft) W 277 ° 0 min 0 W/m² 6,0 °C 7,2 °C 0,0 km/h (0 Bft)
25.03.2025 01:20 21,8 °C 7,2 °C 46 % 92 % 1016,1 hPa 0,0 l/m² 0,0 km/h (0 Bft) W 277 ° 0 min 0 W/m² 6,0 °C 7,2 °C 0,0 km/h (0 Bft)
25.03.2025 01:22 21,8 °C 7,2 °C 46 % 92 % 1016,0 hPa 0,0 l/m² 0,0 km/h (0 Bft) W 277 ° 0 min 0 W/m² 6,0 °C 7,2 °C 0,0 km/h (0 Bft)
25.03.2025 01:23 21,8 °C 7,2 °C 46 % 92 % 1016,0 hPa 0,0 l/m² 0,0 km/h (0 Bft) W 277 ° 0 min 0 W/m² 6,0 °C 7,2 °C 0,0 km/h (0 Bft)
25.03.2025 01:24 21,8 °C 7,1 °C 46 % 92 % 1016,0 hPa 0,0 l/m² 0,0 km/h (0 Bft) W 277 ° 0 min 0 W/m² 5,9 °C 7,1 °C 0,0 km/h (0 Bft)
25.03.2025 01:26 21,8 °C 6,9 °C 46 % 92 % 1016,1 hPa 0,0 l/m² 0,0 km/h (0 Bft) W 277 ° 0 min 0 W/m² 5,7 °C 6,9 °C 0,0 km/h (0 Bft)
25.03.2025 01:28 21,8 °C 6,9 °C 46 % 92 % 1016,0 hPa 0,0 l/m² 0,0 km/h (0 Bft) W 277 ° 0 min 0 W/m² 5,7 °C 6,9 °C 0,0 km/h (0 Bft)
25.03.2025 01:30 21,8 °C 6,9 °C 46 % 92 % 1016,0 hPa 0,0 l/m² 0,0 km/h (0 Bft) W 277 ° 0 min 0 W/m² 5,7 °C 6,9 °C 0,0 km/h (0 Bft)
25.03.2025 01:32 21,8 °C 7,0 °C 46 % 92 % 1016,1 hPa 0,0 l/m² 0,0 km/h (0 Bft) W 277 ° 0 min 0 W/m² 5,8 °C 7,0 °C 0,0 km/h (0 Bft)
25.03.2025 01:33 21,8 °C 6,9 °C 46 % 92 % 1016,0 hPa 0,0 l/m² 0,0 km/h (0 Bft) W 277 ° 0 min 0 W/m² 5,7 °C 6,9 °C 0,0 km/h (0 Bft)
25.03.2025 01:34 21,8 °C 6,9 °C 46 % 92 % 1015,9 hPa 0,0 l/m² 0,0 km/h (0 Bft) W 277 ° 0 min 0 W/m² 5,7 °C 6,9 °C 0,0 km/h (0 Bft)
25.03.2025 01:36 21,8 °C 6,9 °C 46 % 92 % 1016,0 hPa 0,0 l/m² 0,0 km/h (0 Bft) W 277 ° 0 min 0 W/m² 5,7 °C 6,9 °C 0,0 km/h (0 Bft)
25.03.2025 01:38 21,8 °C 6,7 °C 46 % 92 % 1016,0 hPa 0,0 l/m² 0,0 km/h (0 Bft) W 277 ° 0 min 0 W/m² 5,5 °C 6,7 °C 0,0 km/h (0 Bft)
25.03.2025 01:40 21,8 °C 6,6 °C 46 % 92 % 1016,0 hPa 0,0 l/m² 0,0 km/h (0 Bft) W 277 ° 0 min 0 W/m² 5,4 °C 6,6 °C 0,0 km/h (0 Bft)
25.03.2025 01:42 21,8 °C 6,5 °C 46 % 92 % 1015,9 hPa 0,0 l/m² 0,0 km/h (0 Bft) W 277 ° 0 min 0 W/m² 5,3 °C 6,5 °C 0,0 km/h (0 Bft)
25.03.2025 01:43 21,8 °C 6,5 °C 46 % 92 % 1015,9 hPa 0,0 l/m² 0,0 km/h (0 Bft) W 277 ° 0 min 0 W/m² 5,3 °C 6,5 °C 0,0 km/h (0 Bft)
25.03.2025 01:44 21,8 °C 6,5 °C 46 % 92 % 1015,8 hPa 0,0 l/m² 0,0 km/h (0 Bft) W 277 ° 0 min 0 W/m² 5,3 °C 6,5 °C 0,0 km/h (0 Bft)
25.03.2025 01:46 21,8 °C 6,5 °C 46 % 92 % 1015,9 hPa 0,0 l/m² 0,0 km/h (0 Bft) W 277 ° 0 min 0 W/m² 5,3 °C 6,5 °C 0,0 km/h (0 Bft)
25.03.2025 01:48 21,8 °C 6,4 °C 46 % 92 % 1015,9 hPa 0,0 l/m² 0,0 km/h (0 Bft) W 277 ° 0 min 0 W/m² 5,2 °C 6,4 °C 0,0 km/h (0 Bft)
25.03.2025 01:50 21,8 °C 6,4 °C 46 % 92 % 1015,9 hPa 0,0 l/m² 0,0 km/h (0 Bft) W 277 ° 0 min 0 W/m² 5,2 °C 6,4 °C 0,0 km/h (0 Bft)
25.03.2025 01:52 21,8 °C 5,9 °C 46 % 91 % 1016,0 hPa 0,0 l/m² 0,0 km/h (0 Bft) W 277 ° 0 min 0 W/m² 4,5 °C 5,9 °C 0,0 km/h (0 Bft)
25.03.2025 01:53 21,8 °C 5,7 °C 46 % 90 % 1016,0 hPa 0,0 l/m² 0,0 km/h (0 Bft) W 277 ° 0 min 0 W/m² 4,2 °C 5,7 °C 0,0 km/h (0 Bft)
25.03.2025 01:54 21,8 °C 5,4 °C 46 % 91 % 1015,9 hPa 0,0 l/m² 0,0 km/h (0 Bft) W 277 ° 0 min 0 W/m² 4,1 °C 5,4 °C 0,0 km/h (0 Bft)
25.03.2025 01:56 21,8 °C 5,4 °C 46 % 92 % 1015,9 hPa 0,0 l/m² 0,0 km/h (0 Bft) W 277 ° 0 min 0 W/m² 4,2 °C 5,4 °C 0,0 km/h (0 Bft)
25.03.2025 01:58 21,8 °C 5,6 °C 46 % 93 % 1016,0 hPa 0,0 l/m² 0,0 km/h (0 Bft) W 277 ° 0 min 0 W/m² 4,6 °C 5,6 °C 0,0 km/h (0 Bft)
25.03.2025 02:00 21,8 °C 5,7 °C 46 % 93 % 1016,0 hPa 0,0 l/m² 0,0 km/h (0 Bft) W 277 ° 0 min 0 W/m² 4,7 °C 5,7 °C 0,0 km/h (0 Bft)
25.03.2025 02:02 21,8 °C 5,8 °C 46 % 93 % 1016,1 hPa 0,0 l/m² 0,0 km/h (0 Bft) W 277 ° 0 min 0 W/m² 4,8 °C 5,8 °C 0,0 km/h (0 Bft)
25.03.2025 02:03 21,8 °C 5,8 °C 46 % 93 % 1016,1 hPa 0,0 l/m² 0,0 km/h (0 Bft) W 277 ° 0 min 0 W/m² 4,8 °C 5,8 °C 0,0 km/h (0 Bft)
25.03.2025 02:04 21,8 °C 5,8 °C 46 % 93 % 1016,1 hPa 0,0 l/m² 0,0 km/h (0 Bft) W 277 ° 0 min 0 W/m² 4,8 °C 5,8 °C 0,0 km/h (0 Bft)
25.03.2025 02:06 21,8 °C 5,7 °C 46 % 92 % 1016,2 hPa 0,0 l/m² 0,0 km/h (0 Bft) W 277 ° 0 min 0 W/m² 4,5 °C 5,7 °C 0,0 km/h (0 Bft)
25.03.2025 02:08 21,8 °C 5,6 °C 46 % 92 % 1016,1 hPa 0,0 l/m² 1,3 km/h (1 Bft) W 277 ° 0 min 0 W/m² 4,4 °C 5,6 °C 3,2 km/h (1 Bft)
25.03.2025 02:10 21,8 °C 5,5 °C 46 % 92 % 1016,1 hPa 0,0 l/m² 1,9 km/h (1 Bft) W 277 ° 0 min 0 W/m² 4,3 °C 5,5 °C 4,8 km/h (1 Bft)
25.03.2025 02:12 21,8 °C 5,4 °C 46 % 92 % 1016,1 hPa 0,0 l/m² 1,3 km/h (1 Bft) W 281 ° 0 min 0 W/m² 4,2 °C 5,4 °C 3,2 km/h (1 Bft)
25.03.2025 02:13 21,8 °C 5,4 °C 46 % 92 % 1016,1 hPa 0,0 l/m² 2,0 km/h (1 Bft) W 281 ° 0 min 0 W/m² 4,2 °C 5,4 °C 3,2 km/h (1 Bft)
25.03.2025 02:14 21,8 °C 5,3 °C 46 % 92 % 1016,0 hPa 0,0 l/m² 2,3 km/h (1 Bft) W 281 ° 0 min 0 W/m² 4,1 °C 5,3 °C 3,2 km/h (1 Bft)
25.03.2025 02:16 21,8 °C 5,3 °C 46 % 93 % 1016,0 hPa 0,0 l/m² 2,8 km/h (1 Bft) W 281 ° 0 min 0 W/m² 4,3 °C 5,3 °C 3,2 km/h (1 Bft)
25.03.2025 02:18 21,8 °C 5,3 °C 46 % 93 % 1015,9 hPa 0,0 l/m² 1,1 km/h (1 Bft) W 281 ° 0 min 0 W/m² 4,3 °C 5,3 °C 1,6 km/h (1 Bft)
25.03.2025 02:20 21,8 °C 5,4 °C 46 % 93 % 1016,0 hPa 0,0 l/m² 0,0 km/h (0 Bft) W 281 ° 0 min 0 W/m² 4,4 °C 5,4 °C 0,0 km/h (0 Bft)
25.03.2025 02:22 21,8 °C 5,3 °C 46 % 93 % 1016,0 hPa 0,0 l/m² 0,0 km/h (0 Bft) W 281 ° 0 min 0 W/m² 4,3 °C 5,3 °C 0,0 km/h (0 Bft)
25.03.2025 02:23 21,8 °C 5,3 °C 46 % 92 % 1016,1 hPa 0,0 l/m² 0,0 km/h (0 Bft) W 281 ° 0 min 0 W/m² 4,1 °C 5,3 °C 0,0 km/h (0 Bft)
25.03.2025 02:24 21,8 °C 5,2 °C 46 % 92 % 1016,1 hPa 0,0 l/m² 0,0 km/h (0 Bft) W 281 ° 0 min 0 W/m² 4,0 °C 5,2 °C 0,0 km/h (0 Bft)
25.03.2025 02:26 21,8 °C 5,1 °C 46 % 92 % 1015,9 hPa 0,0 l/m² 0,0 km/h (0 Bft) W 281 ° 0 min 0 W/m² 3,9 °C 5,1 °C 0,0 km/h (0 Bft)
25.03.2025 02:28 21,8 °C 5,0 °C 46 % 92 % 1016,0 hPa 0,0 l/m² 0,0 km/h (0 Bft) W 281 ° 0 min 0 W/m² 3,8 °C 5,0 °C 0,0 km/h (0 Bft)
25.03.2025 02:30 21,8 °C 4,8 °C 46 % 92 % 1015,9 hPa 0,0 l/m² 0,0 km/h (0 Bft) W 281 ° 0 min 0 W/m² 3,6 °C 4,8 °C 0,0 km/h (0 Bft)
25.03.2025 02:32 21,8 °C 4,8 °C 46 % 92 % 1016,0 hPa 0,0 l/m² 0,0 km/h (0 Bft) W 281 ° 0 min 0 W/m² 3,6 °C 4,8 °C 0,0 km/h (0 Bft)
25.03.2025 02:33 21,8 °C 4,8 °C 46 % 92 % 1016,0 hPa 0,0 l/m² 0,0 km/h (0 Bft) W 281 ° 0 min 0 W/m² 3,6 °C 4,8 °C 0,0 km/h (0 Bft)
25.03.2025 02:34 21,8 °C 4,7 °C 46 % 92 % 1016,0 hPa 0,0 l/m² 0,0 km/h (0 Bft) W 281 ° 0 min 0 W/m² 3,5 °C 4,7 °C 0,0 km/h (0 Bft)
25.03.2025 02:36 21,8 °C 4,7 °C 46 % 93 % 1016,0 hPa 0,0 l/m² 0,0 km/h (0 Bft) W 281 ° 0 min 0 W/m² 3,7 °C 4,7 °C 0,0 km/h (0 Bft)
25.03.2025 02:38 21,8 °C 4,7 °C 46 % 93 % 1016,1 hPa 0,0 l/m² 0,0 km/h (0 Bft) W 281 ° 0 min 0 W/m² 3,7 °C 4,7 °C 0,0 km/h (0 Bft)
25.03.2025 02:40 21,8 °C 4,7 °C 46 % 93 % 1016,1 hPa 0,0 l/m² 0,0 km/h (0 Bft) W 281 ° 0 min 0 W/m² 3,7 °C 4,7 °C 0,0 km/h (0 Bft)
25.03.2025 02:42 21,8 °C 4,8 °C 46 % 93 % 1016,1 hPa 0,0 l/m² 0,0 km/h (0 Bft) W 281 ° 0 min 0 W/m² 3,8 °C 4,8 °C 0,0 km/h (0 Bft)
25.03.2025 02:43 21,8 °C 4,8 °C 46 % 93 % 1016,1 hPa 0,0 l/m² 0,0 km/h (0 Bft) W 281 ° 0 min 0 W/m² 3,8 °C 4,8 °C 0,0 km/h (0 Bft)
25.03.2025 02:44 21,8 °C 4,9 °C 46 % 93 % 1016,1 hPa 0,0 l/m² 0,0 km/h (0 Bft) W 281 ° 0 min 0 W/m² 3,9 °C 4,9 °C 0,0 km/h (0 Bft)
25.03.2025 02:46 21,8 °C 5,1 °C 46 % 93 % 1016,1 hPa 0,0 l/m² 0,0 km/h (0 Bft) W 281 ° 0 min 0 W/m² 4,1 °C 5,1 °C 0,0 km/h (0 Bft)
25.03.2025 02:48 21,8 °C 5,1 °C 46 % 93 % 1016,0 hPa 0,0 l/m² 0,0 km/h (0 Bft) W 281 ° 0 min 0 W/m² 4,1 °C 5,1 °C 0,0 km/h (0 Bft)
25.03.2025 02:50 21,8 °C 5,2 °C 46 % 93 % 1015,9 hPa 0,0 l/m² 0,0 km/h (0 Bft) W 281 ° 0 min 0 W/m² 4,2 °C 5,2 °C 0,0 km/h (0 Bft)
25.03.2025 02:52 21,8 °C 5,2 °C 46 % 93 % 1016,0 hPa 0,0 l/m² 0,0 km/h (0 Bft) W 281 ° 0 min 0 W/m² 4,2 °C 5,2 °C 0,0 km/h (0 Bft)
25.03.2025 02:53 21,8 °C 5,3 °C 46 % 93 % 1016,1 hPa 0,0 l/m² 0,3 km/h (0 Bft) W 281 ° 0 min 0 W/m² 4,3 °C 5,3 °C 1,6 km/h (1 Bft)
25.03.2025 02:54 21,8 °C 5,3 °C 46 % 93 % 1016,1 hPa 0,0 l/m² 0,1 km/h (0 Bft) W 281 ° 0 min 0 W/m² 4,3 °C 5,3 °C 1,6 km/h (1 Bft)
25.03.2025 02:56 21,8 °C 5,3 °C 46 % 93 % 1016,1 hPa 0,0 l/m² 0,1 km/h (0 Bft) W 281 ° 0 min 0 W/m² 4,3 °C 5,3 °C 1,6 km/h (1 Bft)
25.03.2025 02:58 21,8 °C 5,3 °C 46 % 93 % 1016,0 hPa 0,0 l/m² 0,2 km/h (0 Bft) W 281 ° 0 min 0 W/m² 4,3 °C 5,3 °C 1,6 km/h (1 Bft)
25.03.2025 03:00 21,8 °C 5,3 °C 46 % 93 % 1016,0 hPa 0,0 l/m² 0,0 km/h (0 Bft) W 281 ° 0 min 0 W/m² 4,3 °C 5,3 °C 0,0 km/h (0 Bft)
25.03.2025 03:01 21,8 °C 5,3 °C 46 % 93 % 1016,0 hPa 0,0 l/m² 0,0 km/h (0 Bft) N 0 ° 0 min 0 W/m² 4,3 °C 5,3 °C 0,0 km/h (0 Bft)
25.03.2025 03:06 21,8 °C 5,3 °C 46 % 93 % 1016,1 hPa 0,0 l/m² 0,0 km/h (0 Bft) W 281 ° 0 min 0 W/m² 4,3 °C 5,3 °C 0,0 km/h (0 Bft)
25.03.2025 03:08 21,8 °C 5,3 °C 46 % 94 % 1016,0 hPa 0,0 l/m² 0,0 km/h (0 Bft) W 281 ° 0 min 0 W/m² 4,4 °C 5,3 °C 0,0 km/h (0 Bft)
25.03.2025 03:09 21,8 °C 5,3 °C 46 % 94 % 1016,0 hPa 0,0 l/m² 0,0 km/h (0 Bft) W 281 ° 0 min 0 W/m² 4,4 °C 5,3 °C 0,0 km/h (0 Bft)
25.03.2025 03:11 21,8 °C 5,3 °C 46 % 93 % 1016,0 hPa 0,0 l/m² 0,0 km/h (0 Bft) W 281 ° 0 min 0 W/m² 4,3 °C 5,3 °C 0,0 km/h (0 Bft)
25.03.2025 03:12 21,9 °C 5,3 °C 46 % 93 % 1016,0 hPa 0,0 l/m² 0,0 km/h (0 Bft) W 281 ° 0 min 0 W/m² 4,3 °C 5,3 °C 0,0 km/h (0 Bft)
25.03.2025 03:14 21,9 °C 5,2 °C 46 % 93 % 1015,9 hPa 0,0 l/m² 0,0 km/h (0 Bft) W 281 ° 0 min 0 W/m² 4,2 °C 5,2 °C 0,0 km/h (0 Bft)
25.03.2025 03:16 21,9 °C 5,2 °C 46 % 93 % 1015,9 hPa 0,0 l/m² 0,0 km/h (0 Bft) W 281 ° 0 min 0 W/m² 4,2 °C 5,2 °C 0,0 km/h (0 Bft)
25.03.2025 03:18 21,9 °C 5,1 °C 46 % 93 % 1016,1 hPa 0,0 l/m² 0,0 km/h (0 Bft) W 281 ° 0 min 0 W/m² 4,1 °C 5,1 °C 0,0 km/h (0 Bft)
25.03.2025 03:20 21,9 °C 5,1 °C 46 % 93 % 1016,1 hPa 0,0 l/m² 0,0 km/h (0 Bft) W 281 ° 0 min 0 W/m² 4,1 °C 5,1 °C 0,0 km/h (0 Bft)
25.03.2025 03:21 21,9 °C 5,0 °C 46 % 93 % 1016,1 hPa 0,0 l/m² 0,0 km/h (0 Bft) W 281 ° 0 min 0 W/m² 4,0 °C 5,0 °C 0,0 km/h (0 Bft)
25.03.2025 03:22 21,8 °C 4,9 °C 46 % 93 % 1016,1 hPa 0,0 l/m² 0,0 km/h (0 Bft) W 281 ° 0 min 0 W/m² 3,9 °C 4,9 °C 0,0 km/h (0 Bft)
25.03.2025 03:23 21,8 °C 4,9 °C 46 % 93 % 1016,1 hPa 0,0 l/m² 0,0 km/h (0 Bft) W 281 ° 0 min 0 W/m² 3,9 °C 4,9 °C 0,0 km/h (0 Bft)
25.03.2025 03:25 21,9 °C 4,9 °C 46 % 93 % 1016,1 hPa 0,0 l/m² 0,0 km/h (0 Bft) W 281 ° 0 min 0 W/m² 3,9 °C 4,9 °C 0,0 km/h (0 Bft)
25.03.2025 03:27 21,9 °C 4,8 °C 46 % 94 % 1016,1 hPa 0,0 l/m² 0,0 km/h (0 Bft) W 281 ° 0 min 0 W/m² 3,9 °C 4,8 °C 0,0 km/h (0 Bft)
25.03.2025 03:29 21,9 °C 4,8 °C 46 % 94 % 1016,1 hPa 0,0 l/m² 0,0 km/h (0 Bft) W 281 ° 0 min 0 W/m² 3,9 °C 4,8 °C 0,0 km/h (0 Bft)
25.03.2025 03:30 21,9 °C 4,8 °C 46 % 93 % 1015,9 hPa 0,0 l/m² 0,0 km/h (0 Bft) W 281 ° 0 min 0 W/m² 3,8 °C 4,8 °C 0,0 km/h (0 Bft)
25.03.2025 03:32 21,9 °C 4,8 °C 46 % 93 % 1016,1 hPa 0,0 l/m² 0,0 km/h (0 Bft) W 281 ° 0 min 0 W/m² 3,8 °C 4,8 °C 0,0 km/h (0 Bft)
25.03.2025 03:34 21,9 °C 4,7 °C 46 % 93 % 1016,1 hPa 0,0 l/m² 0,0 km/h (0 Bft) W 281 ° 0 min 0 W/m² 3,7 °C 4,7 °C 0,0 km/h (0 Bft)
25.03.2025 03:36 21,9 °C 4,7 °C 46 % 93 % 1016,1 hPa 0,0 l/m² 0,0 km/h (0 Bft) W 281 ° 0 min 0 W/m² 3,7 °C 4,7 °C 0,0 km/h (0 Bft)
25.03.2025 03:38 21,9 °C 4,6 °C 46 % 94 % 1016,0 hPa 0,0 l/m² 0,0 km/h (0 Bft) W 281 ° 0 min 0 W/m² 3,7 °C 4,6 °C 0,0 km/h (0 Bft)
25.03.2025 03:40 21,9 °C 4,6 °C 46 % 94 % 1016,1 hPa 0,2 l/m² 0,0 km/h (0 Bft) W 281 ° 0 min 0 W/m² 3,7 °C 4,6 °C 0,0 km/h (0 Bft)
25.03.2025 03:41 21,9 °C 4,6 °C 46 % 94 % 1016,0 hPa 0,0 l/m² 0,0 km/h (0 Bft) W 281 ° 0 min 0 W/m² 3,7 °C 4,6 °C 0,0 km/h (0 Bft)
25.03.2025 03:43 21,9 °C 4,5 °C 46 % 93 % 1016,1 hPa 0,0 l/m² 0,0 km/h (0 Bft) W 281 ° 0 min 0 W/m² 3,5 °C 4,5 °C 0,0 km/h (0 Bft)
25.03.2025 03:45 21,9 °C 4,5 °C 46 % 94 % 1016,1 hPa 0,0 l/m² 0,0 km/h (0 Bft) W 281 ° 0 min 0 W/m² 3,6 °C 4,5 °C 0,0 km/h (0 Bft)
25.03.2025 03:48 21,9 °C 4,7 °C 46 % 94 % 1016,1 hPa 0,0 l/m² 0,0 km/h (0 Bft) W 281 ° 0 min 0 W/m² 3,8 °C 4,7 °C 0,0 km/h (0 Bft)
25.03.2025 03:50 21,9 °C 4,8 °C 46 % 94 % 1016,1 hPa 0,0 l/m² 0,0 km/h (0 Bft) W 281 ° 0 min 0 W/m² 3,9 °C 4,8 °C 0,0 km/h (0 Bft)
25.03.2025 03:51 21,9 °C 4,8 °C 46 % 94 % 1016,0 hPa 0,0 l/m² 0,0 km/h (0 Bft) W 281 ° 0 min 0 W/m² 3,9 °C 4,8 °C 0,0 km/h (0 Bft)
25.03.2025 03:52 21,9 °C 4,9 °C 46 % 94 % 1016,1 hPa 0,0 l/m² 0,0 km/h (0 Bft) W 281 ° 0 min 0 W/m² 4,0 °C 4,9 °C 0,0 km/h (0 Bft)
25.03.2025 03:53 21,9 °C 4,8 °C 46 % 94 % 1016,0 hPa 0,0 l/m² 0,0 km/h (0 Bft) W 281 ° 0 min 0 W/m² 3,9 °C 4,8 °C 0,0 km/h (0 Bft)
25.03.2025 03:55 21,9 °C 4,8 °C 46 % 94 % 1016,1 hPa 0,0 l/m² 0,0 km/h (0 Bft) W 281 ° 0 min 0 W/m² 3,9 °C 4,8 °C 0,0 km/h (0 Bft)
25.03.2025 03:57 21,9 °C 4,8 °C 46 % 94 % 1016,0 hPa 0,0 l/m² 0,0 km/h (0 Bft) W 281 ° 0 min 0 W/m² 3,9 °C 4,8 °C 0,0 km/h (0 Bft)
25.03.2025 03:59 21,9 °C 4,8 °C 46 % 94 % 1016,0 hPa 0,0 l/m² 0,0 km/h (0 Bft) W 281 ° 0 min 0 W/m² 3,9 °C 4,8 °C 0,0 km/h (0 Bft)
25.03.2025 04:00 21,9 °C 4,8 °C 46 % 94 % 1015,9 hPa 0,0 l/m² 0,0 km/h (0 Bft) W 281 ° 0 min 0 W/m² 3,9 °C 4,8 °C 0,0 km/h (0 Bft)
25.03.2025 04:01 21,9 °C 4,8 °C 46 % 94 % 1015,9 hPa 0,0 l/m² 0,0 km/h (0 Bft) W 281 ° 0 min 0 W/m² 3,9 °C 4,8 °C 0,0 km/h (0 Bft)
25.03.2025 04:03 21,9 °C 4,8 °C 46 % 94 % 1015,9 hPa 0,0 l/m² 0,0 km/h (0 Bft) W 281 ° 0 min 0 W/m² 3,9 °C 4,8 °C 0,0 km/h (0 Bft)
25.03.2025 04:05 21,9 °C 4,8 °C 46 % 94 % 1016,0 hPa 0,0 l/m² 0,0 km/h (0 Bft) W 281 ° 0 min 0 W/m² 3,9 °C 4,8 °C 0,0 km/h (0 Bft)
25.03.2025 04:07 21,9 °C 4,6 °C 46 % 94 % 1016,0 hPa 0,0 l/m² 0,0 km/h (0 Bft) W 281 ° 0 min 0 W/m² 3,7 °C 4,6 °C 0,0 km/h (0 Bft)
25.03.2025 04:09 21,9 °C 4,6 °C 46 % 94 % 1016,1 hPa 0,0 l/m² 0,0 km/h (0 Bft) W 281 ° 0 min 0 W/m² 3,7 °C 4,6 °C 0,0 km/h (0 Bft)
25.03.2025 04:11 21,9 °C 4,6 °C 46 % 94 % 1016,0 hPa 0,0 l/m² 0,0 km/h (0 Bft) W 281 ° 0 min 0 W/m² 3,7 °C 4,6 °C 0,0 km/h (0 Bft)
25.03.2025 04:12 21,9 °C 4,6 °C 46 % 94 % 1016,0 hPa 0,0 l/m² 0,0 km/h (0 Bft) W 281 ° 0 min 0 W/m² 3,7 °C 4,6 °C 0,0 km/h (0 Bft)
25.03.2025 04:14 21,9 °C 4,6 °C 46 % 94 % 1016,0 hPa 0,0 l/m² 0,0 km/h (0 Bft) W 281 ° 0 min 0 W/m² 3,7 °C 4,6 °C 0,0 km/h (0 Bft)
25.03.2025 04:16 21,9 °C 4,4 °C 46 % 94 % 1016,1 hPa 0,0 l/m² 0,0 km/h (0 Bft) W 281 ° 0 min 0 W/m² 3,5 °C 4,4 °C 0,0 km/h (0 Bft)
25.03.2025 04:18 21,9 °C 4,3 °C 46 % 94 % 1016,0 hPa 0,0 l/m² 0,0 km/h (0 Bft) W 281 ° 0 min 0 W/m² 3,4 °C 4,3 °C 0,0 km/h (0 Bft)
25.03.2025 04:20 21,9 °C 4,2 °C 46 % 93 % 1016,1 hPa 0,0 l/m² 0,0 km/h (0 Bft) W 281 ° 0 min 0 W/m² 3,2 °C 4,2 °C 0,0 km/h (0 Bft)
25.03.2025 04:21 21,9 °C 4,2 °C 46 % 94 % 1016,1 hPa 0,0 l/m² 0,0 km/h (0 Bft) W 281 ° 0 min 0 W/m² 3,3 °C 4,2 °C 0,0 km/h (0 Bft)
25.03.2025 04:23 21,9 °C 4,2 °C 46 % 94 % 1016,1 hPa 0,0 l/m² 0,0 km/h (0 Bft) W 281 ° 0 min 0 W/m² 3,3 °C 4,2 °C 0,0 km/h (0 Bft)
25.03.2025 04:25 21,9 °C 4,2 °C 46 % 94 % 1016,2 hPa 0,0 l/m² 0,0 km/h (0 Bft) W 281 ° 0 min 0 W/m² 3,3 °C 4,2 °C 0,0 km/h (0 Bft)
25.03.2025 04:27 21,9 °C 4,3 °C 46 % 94 % 1016,1 hPa 0,0 l/m² 0,0 km/h (0 Bft) W 281 ° 0 min 0 W/m² 3,4 °C 4,3 °C 0,0 km/h (0 Bft)
25.03.2025 04:29 21,9 °C 4,4 °C 46 % 94 % 1016,2 hPa 0,0 l/m² 0,0 km/h (0 Bft) W 281 ° 0 min 0 W/m² 3,5 °C 4,4 °C 0,0 km/h (0 Bft)
25.03.2025 04:30 21,9 °C 4,5 °C 46 % 94 % 1016,2 hPa 0,0 l/m² 0,0 km/h (0 Bft) W 281 ° 0 min 0 W/m² 3,6 °C 4,5 °C 0,0 km/h (0 Bft)
25.03.2025 04:32 21,9 °C 4,6 °C 46 % 94 % 1016,1 hPa 0,0 l/m² 0,0 km/h (0 Bft) W 281 ° 0 min 0 W/m² 3,7 °C 4,6 °C 0,0 km/h (0 Bft)
25.03.2025 04:34 21,9 °C 4,7 °C 46 % 94 % 1016,2 hPa 0,0 l/m² 0,0 km/h (0 Bft) W 281 ° 0 min 0 W/m² 3,8 °C 4,7 °C 0,0 km/h (0 Bft)
25.03.2025 04:36 21,9 °C 4,8 °C 46 % 94 % 1016,2 hPa 0,0 l/m² 1,7 km/h (1 Bft) W-NW 283 ° 0 min 0 W/m² 3,9 °C 4,8 °C 3,2 km/h (1 Bft)
25.03.2025 04:38 21,9 °C 4,9 °C 46 % 95 % 1016,2 hPa 0,0 l/m² 2,4 km/h (1 Bft) W-NW 283 ° 0 min 0 W/m² 4,2 °C 4,9 °C 4,8 km/h (1 Bft)
25.03.2025 04:40 21,9 °C 5,1 °C 46 % 95 % 1016,3 hPa 0,0 l/m² 3,4 km/h (1 Bft) W 274 ° 0 min 0 W/m² 4,4 °C 5,1 °C 4,8 km/h (1 Bft)
25.03.2025 04:41 21,9 °C 5,1 °C 46 % 95 % 1016,3 hPa 0,0 l/m² 3,7 km/h (1 Bft) W 272 ° 0 min 0 W/m² 4,4 °C 5,1 °C 4,8 km/h (1 Bft)
25.03.2025 04:43 21,9 °C 5,2 °C 46 % 95 % 1016,3 hPa 0,0 l/m² 4,9 km/h (1 Bft) W 263 ° 0 min 0 W/m² 4,5 °C 5,2 °C 6,4 km/h (2 Bft)
25.03.2025 04:45 21,9 °C 5,2 °C 46 % 94 % 1016,3 hPa 0,0 l/m² 3,4 km/h (1 Bft) W 273 ° 0 min 0 W/m² 4,3 °C 5,2 °C 4,8 km/h (1 Bft)
25.03.2025 04:47 21,9 °C 5,3 °C 46 % 95 % 1016,3 hPa 0,0 l/m² 2,4 km/h (1 Bft) W 273 ° 0 min 0 W/m² 4,6 °C 5,3 °C 4,8 km/h (1 Bft)
25.03.2025 04:49 21,9 °C 5,3 °C 46 % 95 % 1016,2 hPa 0,0 l/m² 1,9 km/h (1 Bft) W 273 ° 0 min 0 W/m² 4,6 °C 5,3 °C 4,8 km/h (1 Bft)
25.03.2025 04:51 21,9 °C 5,4 °C 46 % 95 % 1016,3 hPa 0,0 l/m² 0,9 km/h (0 Bft) W 273 ° 0 min 0 W/m² 4,7 °C 5,4 °C 3,2 km/h (1 Bft)
25.03.2025 04:52 21,9 °C 5,5 °C 46 % 95 % 1016,2 hPa 0,0 l/m² 1,6 km/h (1 Bft) W 273 ° 0 min 0 W/m² 4,8 °C 5,5 °C 3,2 km/h (1 Bft)
25.03.2025 04:54 21,9 °C 5,6 °C 46 % 95 % 1016,2 hPa 0,0 l/m² 0,7 km/h (0 Bft) W 273 ° 0 min 0 W/m² 4,9 °C 5,6 °C 3,2 km/h (1 Bft)
25.03.2025 04:56 21,9 °C 5,2 °C 46 % 94 % 1016,3 hPa 0,0 l/m² 0,6 km/h (0 Bft) W 273 ° 0 min 0 W/m² 4,3 °C 5,2 °C 3,2 km/h (1 Bft)
25.03.2025 04:58 21,9 °C 4,7 °C 46 % 93 % 1016,3 hPa 0,0 l/m² 2,3 km/h (1 Bft) W 273 ° 0 min 0 W/m² 3,7 °C 4,7 °C 4,8 km/h (1 Bft)
25.03.2025 05:00 21,9 °C 4,4 °C 46 % 93 % 1016,3 hPa 0,0 l/m² 0,1 km/h (0 Bft) W 273 ° 0 min 0 W/m² 3,4 °C 4,4 °C 1,6 km/h (1 Bft)
25.03.2025 05:01 21,9 °C 4,4 °C 46 % 94 % 1016,3 hPa 0,0 l/m² 0,2 km/h (0 Bft) W 273 ° 0 min 0 W/m² 3,5 °C 4,4 °C 1,6 km/h (1 Bft)
25.03.2025 05:03 21,9 °C 4,4 °C 46 % 94 % 1016,3 hPa 0,0 l/m² 0,3 km/h (0 Bft) W 273 ° 0 min 0 W/m² 3,5 °C 4,4 °C 1,6 km/h (1 Bft)
25.03.2025 05:05 21,9 °C 4,4 °C 46 % 94 % 1016,3 hPa 0,0 l/m² 2,6 km/h (1 Bft) W 273 ° 0 min 0 W/m² 3,5 °C 4,4 °C 3,2 km/h (1 Bft)
25.03.2025 05:07 21,9 °C 4,4 °C 46 % 94 % 1016,2 hPa 0,0 l/m² 3,3 km/h (1 Bft) W 273 ° 0 min 0 W/m² 3,5 °C 4,4 °C 4,8 km/h (1 Bft)
25.03.2025 05:09 21,9 °C 4,4 °C 46 % 94 % 1016,4 hPa 0,0 l/m² 3,2 km/h (1 Bft) W 273 ° 0 min 0 W/m² 3,5 °C 4,4 °C 4,8 km/h (1 Bft)
25.03.2025 05:11 21,9 °C 4,4 °C 46 % 94 % 1016,4 hPa 0,0 l/m² 0,9 km/h (0 Bft) W 273 ° 0 min 0 W/m² 3,5 °C 4,4 °C 3,2 km/h (1 Bft)
25.03.2025 05:13 21,9 °C 4,6 °C 47 % 94 % 1016,3 hPa 0,0 l/m² 0,9 km/h (0 Bft) W 273 ° 0 min 0 W/m² 3,7 °C 4,6 °C 3,2 km/h (1 Bft)
25.03.2025 05:15 21,9 °C 4,7 °C 47 % 95 % 1016,3 hPa 0,0 l/m² 0,0 km/h (0 Bft) W 273 ° 0 min 0 W/m² 4,0 °C 4,7 °C 0,0 km/h (0 Bft)
25.03.2025 05:17 21,9 °C 4,7 °C 46 % 94 % 1016,3 hPa 0,0 l/m² 0,0 km/h (0 Bft) W 273 ° 0 min 0 W/m² 3,8 °C 4,7 °C 0,0 km/h (0 Bft)
25.03.2025 05:19 21,9 °C 4,8 °C 46 % 94 % 1016,3 hPa 0,0 l/m² 0,0 km/h (0 Bft) W 273 ° 0 min 0 W/m² 3,9 °C 4,8 °C 0,0 km/h (0 Bft)
25.03.2025 05:21 21,9 °C 4,9 °C 46 % 95 % 1016,4 hPa 0,0 l/m² 0,0 km/h (0 Bft) W 273 ° 0 min 0 W/m² 4,2 °C 4,9 °C 0,0 km/h (0 Bft)
25.03.2025 05:23 21,9 °C 4,9 °C 46 % 95 % 1016,3 hPa 0,0 l/m² 0,0 km/h (0 Bft) W 273 ° 0 min 0 W/m² 4,2 °C 4,9 °C 0,0 km/h (0 Bft)
25.03.2025 05:25 21,9 °C 4,9 °C 46 % 95 % 1016,4 hPa 0,0 l/m² 0,0 km/h (0 Bft) W 273 ° 0 min 0 W/m² 4,2 °C 4,9 °C 0,0 km/h (0 Bft)
25.03.2025 05:27 21,9 °C 5,0 °C 46 % 94 % 1016,5 hPa 0,0 l/m² 0,0 km/h (0 Bft) W 273 ° 0 min 0 W/m² 4,1 °C 5,0 °C 0,0 km/h (0 Bft)
25.03.2025 05:29 21,9 °C 4,9 °C 46 % 94 % 1016,4 hPa 0,0 l/m² 0,0 km/h (0 Bft) W 273 ° 0 min 0 W/m² 4,0 °C 4,9 °C 0,0 km/h (0 Bft)
25.03.2025 05:31 21,9 °C 4,9 °C 46 % 94 % 1016,4 hPa 0,0 l/m² 0,0 km/h (0 Bft) W 273 ° 0 min 0 W/m² 4,0 °C 4,9 °C 0,0 km/h (0 Bft)
25.03.2025 05:33 21,9 °C 4,9 °C 46 % 94 % 1016,4 hPa 0,0 l/m² 0,0 km/h (0 Bft) W 273 ° 0 min 0 W/m² 4,0 °C 4,9 °C 0,0 km/h (0 Bft)
25.03.2025 05:35 21,9 °C 4,9 °C 46 % 95 % 1016,5 hPa 0,0 l/m² 0,0 km/h (0 Bft) W 273 ° 0 min 0 W/m² 4,2 °C 4,9 °C 0,0 km/h (0 Bft)
25.03.2025 05:37 21,9 °C 4,9 °C 46 % 95 % 1016,5 hPa 0,0 l/m² 0,0 km/h (0 Bft) W 273 ° 0 min 0 W/m² 4,2 °C 4,9 °C 0,0 km/h (0 Bft)
25.03.2025 05:39 21,9 °C 5,0 °C 46 % 95 % 1016,5 hPa 0,0 l/m² 0,0 km/h (0 Bft) W 273 ° 0 min 0 W/m² 4,3 °C 5,0 °C 0,0 km/h (0 Bft)
25.03.2025 05:41 21,8 °C 5,0 °C 46 % 95 % 1016,4 hPa 0,0 l/m² 0,0 km/h (0 Bft) W 273 ° 0 min 0 W/m² 4,3 °C 5,0 °C 0,0 km/h (0 Bft)
25.03.2025 05:43 21,9 °C 4,9 °C 46 % 94 % 1016,5 hPa 0,0 l/m² 0,0 km/h (0 Bft) W 273 ° 0 min 0 W/m² 4,0 °C 4,9 °C 0,0 km/h (0 Bft)
25.03.2025 05:45 21,9 °C 4,8 °C 46 % 94 % 1016,4 hPa 0,0 l/m² 0,0 km/h (0 Bft) W 273 ° 0 min 0 W/m² 3,9 °C 4,8 °C 0,0 km/h (0 Bft)
25.03.2025 05:47 21,9 °C 4,8 °C 46 % 94 % 1016,4 hPa 0,0 l/m² 0,0 km/h (0 Bft) W 273 ° 0 min 0 W/m² 3,9 °C 4,8 °C 0,0 km/h (0 Bft)
25.03.2025 05:49 21,8 °C 4,8 °C 46 % 94 % 1016,4 hPa 0,0 l/m² 0,0 km/h (0 Bft) W 273 ° 0 min 0 W/m² 3,9 °C 4,8 °C 0,0 km/h (0 Bft)
25.03.2025 05:51 21,9 °C 4,9 °C 46 % 95 % 1016,3 hPa 0,0 l/m² 0,0 km/h (0 Bft) W 273 ° 0 min 0 W/m² 4,2 °C 4,9 °C 1,6 km/h (1 Bft)
25.03.2025 05:53 21,9 °C 4,9 °C 46 % 95 % 1016,4 hPa 0,0 l/m² 0,0 km/h (0 Bft) W 273 ° 0 min 0 W/m² 4,2 °C 4,9 °C 0,0 km/h (0 Bft)
25.03.2025 05:55 21,8 °C 5,0 °C 46 % 95 % 1016,5 hPa 0,0 l/m² 0,0 km/h (0 Bft) W 273 ° 0 min 0 W/m² 4,3 °C 5,0 °C 0,0 km/h (0 Bft)
25.03.2025 05:57 21,9 °C 4,9 °C 46 % 95 % 1016,5 hPa 0,0 l/m² 0,0 km/h (0 Bft) W 273 ° 0 min 0 W/m² 4,2 °C 4,9 °C 0,0 km/h (0 Bft)
25.03.2025 05:59 21,9 °C 4,9 °C 46 % 94 % 1016,6 hPa 0,0 l/m² 0,0 km/h (0 Bft) W 273 ° 0 min 0 W/m² 4,0 °C 4,9 °C 0,0 km/h (0 Bft)
25.03.2025 06:01 21,8 °C 4,7 °C 46 % 94 % 1016,6 hPa 0,0 l/m² 0,0 km/h (0 Bft) W 273 ° 0 min 0 W/m² 3,8 °C 4,7 °C 0,0 km/h (0 Bft)
25.03.2025 06:03 21,8 °C 4,6 °C 46 % 94 % 1016,6 hPa 0,0 l/m² 0,0 km/h (0 Bft) W 273 ° 0 min 0 W/m² 3,7 °C 4,6 °C 0,0 km/h (0 Bft)
25.03.2025 06:05 21,8 °C 4,7 °C 46 % 94 % 1016,7 hPa 0,0 l/m² 2,4 km/h (1 Bft) W 273 ° 0 min 0 W/m² 3,8 °C 4,7 °C 4,8 km/h (1 Bft)
25.03.2025 06:07 21,8 °C 4,9 °C 46 % 95 % 1016,7 hPa 0,0 l/m² 4,3 km/h (1 Bft) S-SW 209 ° 0 min 5 W/m² 4,2 °C 4,9 °C 6,4 km/h (2 Bft)
25.03.2025 06:09 21,9 °C 4,6 °C 46 % 94 % 1016,7 hPa 0,0 l/m² 5,2 km/h (1 Bft) S-SW 209 ° 0 min 5 W/m² 3,7 °C 4,6 °C 6,4 km/h (2 Bft)
25.03.2025 06:11 21,8 °C 4,6 °C 46 % 94 % 1016,7 hPa 0,0 l/m² 4,7 km/h (1 Bft) S-SW 212 ° 0 min 5 W/m² 3,7 °C 4,6 °C 6,4 km/h (2 Bft)
25.03.2025 06:13 21,8 °C 4,6 °C 46 % 95 % 1016,8 hPa 0,0 l/m² 3,8 km/h (1 Bft) S-SW 212 ° 0 min 5 W/m² 3,9 °C 4,6 °C 6,4 km/h (2 Bft)
25.03.2025 06:15 21,8 °C 4,8 °C 46 % 95 % 1016,9 hPa 0,0 l/m² 1,6 km/h (1 Bft) S-SW 211 ° 0 min 7 W/m² 4,1 °C 4,8 °C 4,8 km/h (1 Bft)
25.03.2025 06:17 21,8 °C 5,0 °C 46 % 95 % 1016,9 hPa 0,0 l/m² 1,3 km/h (1 Bft) SW 215 ° 0 min 7 W/m² 4,3 °C 5,0 °C 4,8 km/h (1 Bft)
25.03.2025 06:19 21,9 °C 5,3 °C 46 % 95 % 1016,8 hPa 0,0 l/m² 2,7 km/h (1 Bft) SW 215 ° 0 min 11 W/m² 4,6 °C 5,3 °C 4,8 km/h (1 Bft)
25.03.2025 06:21 21,9 °C 5,5 °C 47 % 95 % 1016,8 hPa 0,0 l/m² 0,8 km/h (0 Bft) SW 215 ° 0 min 12 W/m² 4,8 °C 5,5 °C 4,8 km/h (1 Bft)
25.03.2025 06:23 21,8 °C 5,6 °C 47 % 95 % 1016,8 hPa 0,0 l/m² 0,4 km/h (0 Bft) SW 215 ° 0 min 16 W/m² 4,9 °C 5,6 °C 3,2 km/h (1 Bft)
25.03.2025 06:25 21,8 °C 5,6 °C 47 % 95 % 1016,8 hPa 0,0 l/m² 0,1 km/h (0 Bft) SW 215 ° 0 min 19 W/m² 4,9 °C 5,6 °C 1,6 km/h (1 Bft)
25.03.2025 06:27 21,8 °C 5,6 °C 47 % 95 % 1016,9 hPa 0,0 l/m² 0,0 km/h (0 Bft) SW 215 ° 0 min 19 W/m² 4,9 °C 5,6 °C 0,0 km/h (0 Bft)
25.03.2025 06:29 21,9 °C 5,6 °C 47 % 95 % 1016,9 hPa 0,0 l/m² 0,0 km/h (0 Bft) SW 215 ° 0 min 21 W/m² 4,9 °C 5,6 °C 0,0 km/h (0 Bft)
25.03.2025 06:31 21,8 °C 5,6 °C 47 % 95 % 1017,0 hPa 0,0 l/m² 0,0 km/h (0 Bft) SW 215 ° 0 min 25 W/m² 4,9 °C 5,6 °C 0,0 km/h (0 Bft)
25.03.2025 06:33 21,8 °C 5,7 °C 47 % 95 % 1017,0 hPa 0,0 l/m² 0,0 km/h (0 Bft) SW 215 ° 0 min 28 W/m² 5,0 °C 5,7 °C 0,0 km/h (0 Bft)
25.03.2025 06:35 21,8 °C 5,7 °C 46 % 95 % 1017,0 hPa 0,0 l/m² 0,0 km/h (0 Bft) SW 215 ° 0 min 30 W/m² 5,0 °C 5,7 °C 0,0 km/h (0 Bft)
25.03.2025 06:37 21,8 °C 5,8 °C 46 % 95 % 1017,0 hPa 0,0 l/m² 0,0 km/h (0 Bft) SW 215 ° 0 min 33 W/m² 5,1 °C 5,8 °C 0,0 km/h (0 Bft)
25.03.2025 06:39 21,8 °C 5,8 °C 46 % 95 % 1016,9 hPa 0,0 l/m² 0,0 km/h (0 Bft) SW 215 ° 0 min 33 W/m² 5,1 °C 5,8 °C 0,0 km/h (0 Bft)
25.03.2025 06:41 21,8 °C 5,9 °C 46 % 95 % 1017,0 hPa 0,0 l/m² 0,0 km/h (0 Bft) SW 215 ° 0 min 33 W/m² 5,2 °C 5,9 °C 0,0 km/h (0 Bft)
25.03.2025 06:43 21,8 °C 5,9 °C 46 % 95 % 1017,0 hPa 0,0 l/m² 0,0 km/h (0 Bft) SW 215 ° 0 min 32 W/m² 5,2 °C 5,9 °C 0,0 km/h (0 Bft)
25.03.2025 06:45 21,8 °C 6,0 °C 46 % 95 % 1017,0 hPa 0,0 l/m² 0,0 km/h (0 Bft) SW 215 ° 0 min 35 W/m² 5,3 °C 6,0 °C 0,0 km/h (0 Bft)
25.03.2025 06:48 21,8 °C 6,1 °C 46 % 95 % 1016,9 hPa 0,0 l/m² 0,1 km/h (0 Bft) SW 215 ° 0 min 42 W/m² 5,4 °C 6,1 °C 1,6 km/h (1 Bft)
25.03.2025 06:50 21,8 °C 6,2 °C 46 % 95 % 1016,9 hPa 0,0 l/m² 0,0 km/h (0 Bft) SW 215 ° 0 min 44 W/m² 5,5 °C 6,2 °C 0,0 km/h (0 Bft)
25.03.2025 06:52 21,8 °C 6,3 °C 46 % 95 % 1016,9 hPa 0,0 l/m² 0,2 km/h (0 Bft) SW 215 ° 0 min 46 W/m² 5,6 °C 6,3 °C 1,6 km/h (1 Bft)
25.03.2025 06:54 21,8 °C 6,3 °C 46 % 95 % 1016,9 hPa 0,0 l/m² 0,7 km/h (0 Bft) SW 215 ° 0 min 51 W/m² 5,6 °C 6,3 °C 3,2 km/h (1 Bft)
25.03.2025 06:56 21,8 °C 6,4 °C 46 % 95 % 1016,9 hPa 0,0 l/m² 0,0 km/h (0 Bft) SW 215 ° 2 min 62 W/m² 5,7 °C 6,4 °C 0,0 km/h (0 Bft)
25.03.2025 06:58 21,8 °C 6,5 °C 46 % 95 % 1016,9 hPa 0,0 l/m² 0,0 km/h (0 Bft) SW 215 ° 2 min 76 W/m² 5,8 °C 6,5 °C 0,0 km/h (0 Bft)
25.03.2025 07:00 21,8 °C 6,6 °C 46 % 95 % 1016,9 hPa 0,0 l/m² 0,0 km/h (0 Bft) SW 215 ° 2 min 76 W/m² 5,9 °C 6,6 °C 0,0 km/h (0 Bft)
25.03.2025 07:02 21,8 °C 6,8 °C 46 % 95 % 1017,0 hPa 0,0 l/m² 0,0 km/h (0 Bft) SW 215 ° 2 min 70 W/m² 6,1 °C 6,8 °C 0,0 km/h (0 Bft)
25.03.2025 07:04 21,8 °C 6,9 °C 46 % 95 % 1017,0 hPa 0,0 l/m² 0,0 km/h (0 Bft) SW 215 ° 2 min 67 W/m² 6,2 °C 6,9 °C 0,0 km/h (0 Bft)
25.03.2025 07:06 21,8 °C 6,8 °C 46 % 95 % 1017,0 hPa 0,0 l/m² 0,0 km/h (0 Bft) SW 215 ° 2 min 60 W/m² 6,1 °C 6,8 °C 0,0 km/h (0 Bft)
25.03.2025 07:08 21,8 °C 6,8 °C 45 % 95 % 1017,1 hPa 0,0 l/m² 0,0 km/h (0 Bft) SW 215 ° 2 min 53 W/m² 6,1 °C 6,8 °C 0,0 km/h (0 Bft)
25.03.2025 07:10 21,8 °C 6,8 °C 45 % 95 % 1017,1 hPa 0,0 l/m² 0,0 km/h (0 Bft) SW 215 ° 0 min 44 W/m² 6,1 °C 6,8 °C 0,0 km/h (0 Bft)
25.03.2025 07:12 21,8 °C 6,9 °C 45 % 95 % 1017,1 hPa 0,0 l/m² 0,0 km/h (0 Bft) SW 215 ° 0 min 47 W/m² 6,2 °C 6,9 °C 0,0 km/h (0 Bft)
25.03.2025 07:14 21,8 °C 6,9 °C 45 % 95 % 1017,1 hPa 0,0 l/m² 0,0 km/h (0 Bft) SW 215 ° 0 min 49 W/m² 6,2 °C 6,9 °C 0,0 km/h (0 Bft)
25.03.2025 07:16 21,8 °C 6,9 °C 45 % 95 % 1017,1 hPa 0,0 l/m² 0,0 km/h (0 Bft) SW 215 ° 2 min 58 W/m² 6,2 °C 6,9 °C 0,0 km/h (0 Bft)
25.03.2025 07:18 21,8 °C 7,0 °C 45 % 95 % 1017,1 hPa 0,0 l/m² 0,0 km/h (0 Bft) SW 215 ° 2 min 69 W/m² 6,3 °C 7,0 °C 1,6 km/h (1 Bft)
25.03.2025 07:20 21,8 °C 7,1 °C 45 % 95 % 1017,1 hPa 0,0 l/m² 0,7 km/h (0 Bft) SW 215 ° 2 min 81 W/m² 6,4 °C 7,1 °C 1,6 km/h (1 Bft)
25.03.2025 07:22 21,8 °C 7,2 °C 45 % 95 % 1017,1 hPa 0,0 l/m² 0,0 km/h (0 Bft) SW 215 ° 2 min 102 W/m² 6,5 °C 7,2 °C 1,6 km/h (1 Bft)
25.03.2025 07:24 21,8 °C 7,3 °C 45 % 95 % 1017,1 hPa 0,0 l/m² 0,0 km/h (0 Bft) SW 215 ° 2 min 128 W/m² 6,6 °C 7,3 °C 0,0 km/h (0 Bft)
25.03.2025 07:26 21,8 °C 7,5 °C 45 % 95 % 1017,0 hPa 0,0 l/m² 0,0 km/h (0 Bft) SW 215 ° 2 min 130 W/m² 6,8 °C 7,5 °C 0,0 km/h (0 Bft)
25.03.2025 07:28 21,8 °C 7,6 °C 45 % 95 % 1017,0 hPa 0,0 l/m² 0,0 km/h (0 Bft) SW 215 ° 2 min 123 W/m² 6,9 °C 7,6 °C 0,0 km/h (0 Bft)
25.03.2025 07:30 21,8 °C 7,7 °C 45 % 94 % 1017,0 hPa 0,0 l/m² 0,0 km/h (0 Bft) SW 215 ° 2 min 107 W/m² 6,8 °C 7,7 °C 0,0 km/h (0 Bft)
25.03.2025 07:32 21,8 °C 7,9 °C 45 % 95 % 1017,1 hPa 0,0 l/m² 0,0 km/h (0 Bft) SW 215 ° 2 min 114 W/m² 7,1 °C 7,9 °C 0,0 km/h (0 Bft)
25.03.2025 07:34 21,8 °C 8,1 °C 45 % 95 % 1017,0 hPa 0,0 l/m² 0,0 km/h (0 Bft) SW 215 ° 2 min 118 W/m² 7,3 °C 8,1 °C 0,0 km/h (0 Bft)
25.03.2025 07:36 21,8 °C 8,2 °C 45 % 95 % 1017,1 hPa 0,0 l/m² 0,0 km/h (0 Bft) SW 215 ° 2 min 70 W/m² 7,4 °C 8,2 °C 0,0 km/h (0 Bft)
25.03.2025 07:38 21,8 °C 8,3 °C 45 % 94 % 1017,1 hPa 0,0 l/m² 0,7 km/h (0 Bft) SW 216 ° 2 min 81 W/m² 7,4 °C 8,3 °C 4,8 km/h (1 Bft)
25.03.2025 07:40 21,8 °C 8,4 °C 45 % 94 % 1017,1 hPa 0,0 l/m² 0,7 km/h (0 Bft) SW 216 ° 2 min 95 W/m² 7,5 °C 8,4 °C 3,2 km/h (1 Bft)
25.03.2025 07:42 21,8 °C 8,5 °C 45 % 94 % 1017,2 hPa 0,0 l/m² 1,8 km/h (1 Bft) SW 236 ° 2 min 91 W/m² 7,6 °C 8,5 °C 4,8 km/h (1 Bft)
25.03.2025 07:44 21,8 °C 8,6 °C 45 % 93 % 1017,1 hPa 0,0 l/m² 1,2 km/h (1 Bft) SW 236 ° 2 min 102 W/m² 7,5 °C 8,6 °C 3,2 km/h (1 Bft)
25.03.2025 07:46 21,8 °C 8,6 °C 45 % 93 % 1017,0 hPa 0,0 l/m² 0,0 km/h (0 Bft) W-SW 238 ° 2 min 114 W/m² 7,5 °C 8,6 °C 0,0 km/h (0 Bft)
25.03.2025 07:48 21,8 °C 8,7 °C 45 % 93 % 1017,1 hPa 0,0 l/m² 2,3 km/h (1 Bft) NW 310 ° 2 min 123 W/m² 7,6 °C 8,7 °C 6,4 km/h (2 Bft)
25.03.2025 07:50 21,8 °C 8,8 °C 45 % 92 % 1017,0 hPa 0,0 l/m² 5,1 km/h (1 Bft) NW 315 ° 2 min 120 W/m² 7,6 °C 8,8 °C 11,3 km/h (2 Bft)
25.03.2025 07:52 21,8 °C 8,8 °C 45 % 92 % 1017,1 hPa 0,0 l/m² 2,4 km/h (1 Bft) W 281 ° 2 min 102 W/m² 7,6 °C 8,8 °C 4,8 km/h (1 Bft)
25.03.2025 07:54 21,8 °C 8,9 °C 45 % 91 % 1017,1 hPa 0,0 l/m² 4,3 km/h (1 Bft) W-NW 286 ° 2 min 72 W/m² 7,5 °C 8,9 °C 9,7 km/h (2 Bft)
25.03.2025 07:56 21,8 °C 8,9 °C 45 % 91 % 1017,1 hPa 0,0 l/m² 4,5 km/h (1 Bft) W-NW 286 ° 2 min 62 W/m² 7,5 °C 8,9 °C 6,4 km/h (2 Bft)
25.03.2025 07:58 21,8 °C 9,0 °C 45 % 91 % 1017,1 hPa 0,0 l/m² 3,6 km/h (1 Bft) W-NW 300 ° 0 min 51 W/m² 7,6 °C 9,0 °C 6,4 km/h (2 Bft)
25.03.2025 08:00 21,8 °C 9,0 °C 45 % 90 % 1017,2 hPa 0,0 l/m² 4,5 km/h (1 Bft) W 280 ° 0 min 49 W/m² 7,4 °C 9,0 °C 9,7 km/h (2 Bft)
25.03.2025 08:02 21,8 °C 9,0 °C 45 % 90 % 1017,1 hPa 0,0 l/m² 6,3 km/h (2 Bft) W-NW 301 ° 2 min 60 W/m² 7,4 °C 9,0 °C 11,3 km/h (2 Bft)
25.03.2025 08:04 21,8 °C 9,0 °C 45 % 90 % 1017,1 hPa 0,0 l/m² 3,2 km/h (1 Bft) W-NW 300 ° 2 min 77 W/m² 7,4 °C 9,0 °C 8,0 km/h (2 Bft)
25.03.2025 08:06 21,8 °C 9,0 °C 45 % 90 % 1017,2 hPa 0,0 l/m² 4,0 km/h (1 Bft) NW 312 ° 2 min 69 W/m² 7,4 °C 9,0 °C 8,0 km/h (2 Bft)
25.03.2025 08:08 21,8 °C 9,1 °C 45 % 89 % 1017,3 hPa 0,0 l/m² 3,5 km/h (1 Bft) W 267 ° 2 min 54 W/m² 7,4 °C 9,1 °C 6,4 km/h (2 Bft)
25.03.2025 08:10 21,8 °C 9,1 °C 45 % 89 % 1017,3 hPa 0,0 l/m² 7,6 km/h (2 Bft) W 280 ° 0 min 39 W/m² 7,4 °C 8,2 °C 11,3 km/h (2 Bft)
25.03.2025 08:12 21,8 °C 9,0 °C 45 % 89 % 1017,3 hPa 0,0 l/m² 4,4 km/h (1 Bft) W 274 ° 0 min 32 W/m² 7,3 °C 9,0 °C 9,7 km/h (2 Bft)
25.03.2025 08:14 21,8 °C 9,0 °C 45 % 89 % 1017,3 hPa 0,0 l/m² 3,2 km/h (1 Bft) W 274 ° 0 min 30 W/m² 7,3 °C 9,0 °C 6,4 km/h (2 Bft)
25.03.2025 08:16 21,8 °C 8,9 °C 45 % 89 % 1017,3 hPa 0,0 l/m² 2,5 km/h (1 Bft) W-NW 282 ° 0 min 28 W/m² 7,2 °C 8,9 °C 4,8 km/h (1 Bft)
25.03.2025 08:18 21,8 °C 8,9 °C 45 % 89 % 1017,3 hPa 0,0 l/m² 2,9 km/h (1 Bft) NW 318 ° 0 min 25 W/m² 7,2 °C 8,9 °C 4,8 km/h (1 Bft)
25.03.2025 08:20 21,8 °C 8,9 °C 45 % 89 % 1017,4 hPa 0,0 l/m² 4,3 km/h (1 Bft) W-NW 288 ° 0 min 25 W/m² 7,2 °C 8,9 °C 9,7 km/h (2 Bft)
25.03.2025 08:22 21,8 °C 8,9 °C 45 % 89 % 1017,5 hPa 0,0 l/m² 4,5 km/h (1 Bft) W 267 ° 0 min 32 W/m² 7,2 °C 8,9 °C 6,4 km/h (2 Bft)
25.03.2025 08:24 21,8 °C 8,9 °C 45 % 89 % 1017,5 hPa 0,0 l/m² 6,0 km/h (2 Bft) W 273 ° 0 min 47 W/m² 7,2 °C 8,9 °C 11,3 km/h (2 Bft)
25.03.2025 08:26 21,8 °C 8,9 °C 45 % 89 % 1017,5 hPa 0,0 l/m² 4,8 km/h (1 Bft) W 271 ° 2 min 76 W/m² 7,2 °C 8,9 °C 9,7 km/h (2 Bft)
25.03.2025 08:28 21,8 °C 8,9 °C 45 % 89 % 1017,5 hPa 0,0 l/m² 2,9 km/h (1 Bft) W 271 ° 2 min 95 W/m² 7,2 °C 8,9 °C 4,8 km/h (1 Bft)
25.03.2025 08:30 21,8 °C 8,9 °C 45 % 89 % 1017,5 hPa 0,0 l/m² 6,1 km/h (2 Bft) W 269 ° 2 min 91 W/m² 7,2 °C 8,9 °C 11,3 km/h (2 Bft)
25.03.2025 08:32 21,8 °C 9,0 °C 45 % 89 % 1017,5 hPa 0,0 l/m² 6,9 km/h (2 Bft) W 275 ° 2 min 93 W/m² 7,3 °C 8,6 °C 9,7 km/h (2 Bft)
25.03.2025 08:34 21,8 °C 9,1 °C 45 % 89 % 1017,6 hPa 0,0 l/m² 4,2 km/h (1 Bft) W 275 ° 2 min 102 W/m² 7,4 °C 9,1 °C 6,4 km/h (2 Bft)
25.03.2025 08:36 21,8 °C 9,1 °C 45 % 89 % 1017,6 hPa 0,0 l/m² 3,1 km/h (1 Bft) W 275 ° 2 min 116 W/m² 7,4 °C 9,1 °C 4,8 km/h (1 Bft)
25.03.2025 08:38 21,8 °C 9,2 °C 45 % 89 % 1017,6 hPa 0,0 l/m² 2,1 km/h (1 Bft) W 275 ° 2 min 116 W/m² 7,5 °C 9,2 °C 4,8 km/h (1 Bft)
25.03.2025 08:40 21,8 °C 9,2 °C 45 % 89 % 1017,7 hPa 0,0 l/m² 3,2 km/h (1 Bft) W 275 ° 2 min 132 W/m² 7,5 °C 9,2 °C 4,8 km/h (1 Bft)
25.03.2025 08:42 21,8 °C 9,3 °C 45 % 89 % 1017,7 hPa 0,0 l/m² 3,3 km/h (1 Bft) W 275 ° 2 min 162 W/m² 7,6 °C 9,3 °C 4,8 km/h (1 Bft)
25.03.2025 08:44 21,8 °C 9,3 °C 45 % 88 % 1017,7 hPa 0,0 l/m² 6,2 km/h (2 Bft) W 279 ° 2 min 165 W/m² 7,4 °C 9,3 °C 11,3 km/h (2 Bft)
25.03.2025 08:46 21,8 °C 9,4 °C 45 % 88 % 1017,8 hPa 0,0 l/m² 7,4 km/h (2 Bft) W 280 ° 2 min 178 W/m² 7,5 °C 8,7 °C 11,3 km/h (2 Bft)
25.03.2025 08:48 21,8 °C 9,4 °C 45 % 87 % 1017,8 hPa 0,0 l/m² 5,8 km/h (2 Bft) W 265 ° 2 min 190 W/m² 7,3 °C 9,4 °C 11,3 km/h (2 Bft)
25.03.2025 08:50 21,8 °C 9,5 °C 45 % 87 % 1017,8 hPa 0,0 l/m² 5,0 km/h (1 Bft) W 277 ° 2 min 178 W/m² 7,4 °C 9,5 °C 6,4 km/h (2 Bft)
25.03.2025 08:52 21,8 °C 9,6 °C 45 % 87 % 1017,8 hPa 0,0 l/m² 4,9 km/h (1 Bft) W 273 ° 2 min 169 W/m² 7,5 °C 9,6 °C 9,7 km/h (2 Bft)
25.03.2025 08:54 21,8 °C 9,6 °C 45 % 86 % 1017,8 hPa 0,0 l/m² 3,9 km/h (1 Bft) W-NW 284 ° 2 min 165 W/m² 7,4 °C 9,6 °C 6,4 km/h (2 Bft)
25.03.2025 08:56 21,8 °C 9,7 °C 45 % 86 % 1017,8 hPa 0,0 l/m² 7,3 km/h (2 Bft) NW 310 ° 2 min 151 W/m² 7,5 °C 9,0 °C 11,3 km/h (2 Bft)
25.03.2025 08:58 21,8 °C 9,7 °C 45 % 86 % 1017,8 hPa 0,0 l/m² 8,7 km/h (2 Bft) NW 305 ° 2 min 155 W/m² 7,5 °C 8,1 °C 12,9 km/h (3 Bft)
25.03.2025 09:00 21,8 °C 9,6 °C 45 % 85 % 1017,8 hPa 0,0 l/m² 8,0 km/h (2 Bft) NW 309 ° 2 min 158 W/m² 7,2 °C 8,4 °C 12,9 km/h (3 Bft)
25.03.2025 09:02 21,8 °C 9,7 °C 45 % 85 % 1017,8 hPa 0,0 l/m² 6,6 km/h (2 Bft) NW 304 ° 2 min 163 W/m² 7,3 °C 9,6 °C 11,3 km/h (2 Bft)
25.03.2025 09:04 21,8 °C 9,7 °C 45 % 85 % 1017,8 hPa 0,0 l/m² 3,8 km/h (1 Bft) W-NW 301 ° 2 min 165 W/m² 7,3 °C 9,7 °C 8,0 km/h (2 Bft)
25.03.2025 09:06 21,9 °C 9,8 °C 45 % 85 % 1017,9 hPa 0,0 l/m² 5,9 km/h (2 Bft) NW 309 ° 2 min 153 W/m² 7,4 °C 9,8 °C 11,3 km/h (2 Bft)
25.03.2025 09:08 21,8 °C 9,8 °C 45 % 85 % 1017,9 hPa 0,0 l/m² 3,3 km/h (1 Bft) NW 311 ° 2 min 127 W/m² 7,4 °C 9,8 °C 6,4 km/h (2 Bft)
25.03.2025 09:10 21,9 °C 9,8 °C 45 % 85 % 1017,9 hPa 0,0 l/m² 5,1 km/h (1 Bft) N 355 ° 2 min 134 W/m² 7,4 °C 9,8 °C 9,7 km/h (2 Bft)
25.03.2025 09:12 21,8 °C 9,8 °C 45 % 85 % 1017,9 hPa 0,0 l/m² 6,8 km/h (2 Bft) N-NW 342 ° 2 min 146 W/m² 7,4 °C 9,5 °C 14,5 km/h (3 Bft)
25.03.2025 09:14 21,9 °C 9,8 °C 45 % 84 % 1017,9 hPa 0,0 l/m² 11,6 km/h (2 Bft) NW 325 ° 2 min 174 W/m² 7,2 °C 6,5 °C 17,7 km/h (3 Bft)
25.03.2025 09:16 21,9 °C 9,7 °C 45 % 84 % 1017,9 hPa 0,0 l/m² 9,8 km/h (2 Bft) NW 317 ° 2 min 181 W/m² 7,1 °C 7,4 °C 17,7 km/h (3 Bft)
25.03.2025 09:18 21,8 °C 9,7 °C 45 % 85 % 1017,9 hPa 0,0 l/m² 10,4 km/h (2 Bft) N-NW 331 ° 2 min 183 W/m² 7,3 °C 7,0 °C 16,1 km/h (3 Bft)
25.03.2025 09:20 21,9 °C 9,7 °C 45 % 85 % 1017,9 hPa 0,0 l/m² 8,4 km/h (2 Bft) N-NW 327 ° 2 min 158 W/m² 7,3 °C 8,3 °C 12,9 km/h (3 Bft)
25.03.2025 09:22 21,9 °C 9,8 °C 45 % 85 % 1018,0 hPa 0,0 l/m² 8,7 km/h (2 Bft) NW 306 ° 2 min 125 W/m² 7,4 °C 8,2 °C 14,5 km/h (3 Bft)
25.03.2025 09:24 21,8 °C 9,7 °C 45 % 84 % 1017,9 hPa 0,0 l/m² 7,2 km/h (2 Bft) NW 317 ° 2 min 104 W/m² 7,1 °C 9,1 °C 12,9 km/h (3 Bft)
25.03.2025 09:26 21,9 °C 9,7 °C 45 % 84 % 1017,9 hPa 0,0 l/m² 7,0 km/h (2 Bft) N-NW 332 ° 2 min 116 W/m² 7,1 °C 9,3 °C 12,9 km/h (3 Bft)
25.03.2025 09:28 21,8 °C 9,7 °C 45 % 85 % 1017,9 hPa 0,0 l/m² 5,5 km/h (2 Bft) N-NW 329 ° 2 min 134 W/m² 7,3 °C 9,7 °C 9,7 km/h (2 Bft)
25.03.2025 09:30 21,8 °C 9,7 °C 45 % 85 % 1018,0 hPa 0,0 l/m² 5,2 km/h (1 Bft) NW 310 ° 2 min 127 W/m² 7,3 °C 9,7 °C 11,3 km/h (2 Bft)
25.03.2025 09:32 21,9 °C 9,7 °C 45 % 84 % 1018,1 hPa 0,0 l/m² 7,0 km/h (2 Bft) NW 319 ° 2 min 120 W/m² 7,1 °C 9,3 °C 12,9 km/h (3 Bft)
25.03.2025 09:34 21,9 °C 9,6 °C 45 % 84 % 1018,1 hPa 0,0 l/m² 4,4 km/h (1 Bft) W-NW 294 ° 2 min 125 W/m² 7,0 °C 9,6 °C 8,0 km/h (2 Bft)
25.03.2025 09:36 21,8 °C 9,7 °C 45 % 85 % 1018,1 hPa 0,0 l/m² 4,7 km/h (1 Bft) W-NW 287 ° 2 min 128 W/m² 7,3 °C 9,7 °C 14,5 km/h (3 Bft)
25.03.2025 09:38 21,9 °C 9,6 °C 45 % 84 % 1018,2 hPa 0,0 l/m² 11,5 km/h (2 Bft) W-NW 300 ° 2 min 111 W/m² 7,0 °C 6,3 °C 17,7 km/h (3 Bft)
25.03.2025 09:40 21,9 °C 9,6 °C 45 % 84 % 1018,1 hPa 0,0 l/m² 6,7 km/h (2 Bft) W-NW 295 ° 2 min 97 W/m² 7,0 °C 9,4 °C 12,9 km/h (3 Bft)
25.03.2025 09:42 21,8 °C 9,6 °C 45 % 84 % 1018,0 hPa 0,0 l/m² 3,4 km/h (1 Bft) W-NW 283 ° 2 min 88 W/m² 7,0 °C 9,6 °C 8,0 km/h (2 Bft)
25.03.2025 09:44 21,8 °C 9,6 °C 45 % 84 % 1018,0 hPa 0,0 l/m² 3,3 km/h (1 Bft) N-NW 327 ° 2 min 77 W/m² 7,0 °C 9,6 °C 6,4 km/h (2 Bft)
25.03.2025 09:45 21,8 °C 9,6 °C 45 % 84 % 1018,0 hPa 0,0 l/m² 8,0 km/h (2 Bft) NW 309 ° 1 min 77 W/m² 7,0 °C 8,4 °C 12,9 km/h (3 Bft)
25.03.2025 09:46 21,9 °C 9,5 °C 45 % 84 % 1018,1 hPa 0,0 l/m² 7,1 km/h (2 Bft) NW 321 ° 1 min 76 W/m² 6,9 °C 9,0 °C 12,9 km/h (3 Bft)
25.03.2025 09:47 21,9 °C 9,5 °C 45 % 84 % 1018,1 hPa 0,0 l/m² 8,3 km/h (2 Bft) NW 321 ° 1 min 76 W/m² 6,9 °C 8,1 °C 12,9 km/h (3 Bft)
25.03.2025 09:49 21,8 °C 9,4 °C 45 % 84 % 1018,1 hPa 0,0 l/m² 6,8 km/h (2 Bft) N-NW 330 ° 2 min 74 W/m² 6,8 °C 9,1 °C 12,9 km/h (3 Bft)
25.03.2025 09:51 21,8 °C 9,3 °C 45 % 84 % 1018,1 hPa 0,0 l/m² 5,3 km/h (1 Bft) NW 314 ° 2 min 74 W/m² 6,7 °C 9,3 °C 11,3 km/h (2 Bft)
25.03.2025 09:53 21,8 °C 9,3 °C 45 % 84 % 1018,1 hPa 0,0 l/m² 6,7 km/h (2 Bft) NW 315 ° 2 min 84 W/m² 6,7 °C 9,1 °C 9,7 km/h (2 Bft)
25.03.2025 09:55 21,8 °C 9,3 °C 45 % 84 % 1018,1 hPa 0,0 l/m² 6,2 km/h (2 Bft) NW 319 ° 2 min 91 W/m² 6,7 °C 9,3 °C 9,7 km/h (2 Bft)
25.03.2025 09:57 21,9 °C 9,3 °C 45 % 84 % 1018,1 hPa 0,0 l/m² 5,0 km/h (1 Bft) W-NW 297 ° 2 min 93 W/m² 6,7 °C 9,3 °C 8,0 km/h (2 Bft)
25.03.2025 09:59 21,8 °C 9,3 °C 45 % 84 % 1018,1 hPa 0,0 l/m² 5,3 km/h (1 Bft) W-NW 300 ° 2 min 105 W/m² 6,7 °C 9,3 °C 9,7 km/h (2 Bft)
25.03.2025 10:01 21,8 °C 9,3 °C 45 % 84 % 1018,1 hPa 0,0 l/m² 5,1 km/h (1 Bft) NW 326 ° 2 min 139 W/m² 6,7 °C 9,3 °C 8,0 km/h (2 Bft)
25.03.2025 10:03 21,8 °C 9,4 °C 45 % 84 % 1018,1 hPa 0,0 l/m² 3,2 km/h (1 Bft) W-NW 291 ° 2 min 156 W/m² 6,8 °C 9,4 °C 4,8 km/h (1 Bft)
25.03.2025 10:05 21,8 °C 9,4 °C 45 % 84 % 1018,0 hPa 0,0 l/m² 4,3 km/h (1 Bft) NW 316 ° 2 min 153 W/m² 6,8 °C 9,4 °C 8,0 km/h (2 Bft)
25.03.2025 10:07 21,8 °C 9,6 °C 45 % 84 % 1018,1 hPa 0,0 l/m² 3,8 km/h (1 Bft) NW 310 ° 2 min 134 W/m² 7,0 °C 9,6 °C 8,0 km/h (2 Bft)
25.03.2025 10:09 21,8 °C 9,7 °C 45 % 84 % 1018,1 hPa 0,0 l/m² 2,6 km/h (1 Bft) W-NW 295 ° 2 min 127 W/m² 7,1 °C 9,7 °C 8,0 km/h (2 Bft)
25.03.2025 10:11 21,8 °C 9,6 °C 45 % 84 % 1018,0 hPa 0,0 l/m² 3,6 km/h (1 Bft) W 279 ° 2 min 118 W/m² 7,0 °C 9,6 °C 6,4 km/h (2 Bft)
25.03.2025 10:13 21,8 °C 9,7 °C 45 % 84 % 1018,1 hPa 0,0 l/m² 3,6 km/h (1 Bft) NW 325 ° 2 min 102 W/m² 7,1 °C 9,7 °C 6,4 km/h (2 Bft)
25.03.2025 10:15 21,8 °C 9,7 °C 45 % 84 % 1018,1 hPa 0,0 l/m² 2,3 km/h (1 Bft) W 270 ° 2 min 109 W/m² 7,1 °C 9,7 °C 4,8 km/h (1 Bft)
25.03.2025 10:17 21,8 °C 9,7 °C 45 % 84 % 1018,2 hPa 0,0 l/m² 1,7 km/h (1 Bft) W 271 ° 2 min 134 W/m² 7,1 °C 9,7 °C 4,8 km/h (1 Bft)
25.03.2025 10:19 21,8 °C 9,8 °C 45 % 84 % 1018,2 hPa 0,0 l/m² 4,0 km/h (1 Bft) NW 317 ° 2 min 155 W/m² 7,2 °C 9,8 °C 8,0 km/h (2 Bft)
25.03.2025 10:21 21,8 °C 9,8 °C 45 % 83 % 1018,2 hPa 0,0 l/m² 2,7 km/h (1 Bft) NW 319 ° 2 min 142 W/m² 7,1 °C 9,8 °C 4,8 km/h (1 Bft)
25.03.2025 10:23 21,8 °C 9,8 °C 45 % 84 % 1018,2 hPa 0,0 l/m² 3,4 km/h (1 Bft) W 277 ° 2 min 141 W/m² 7,2 °C 9,8 °C 4,8 km/h (1 Bft)
25.03.2025 10:25 21,8 °C 9,9 °C 45 % 83 % 1018,2 hPa 0,0 l/m² 6,1 km/h (2 Bft) W 278 ° 2 min 142 W/m² 7,2 °C 9,9 °C 11,3 km/h (2 Bft)
25.03.2025 10:27 21,8 °C 9,9 °C 45 % 83 % 1018,2 hPa 0,0 l/m² 6,9 km/h (2 Bft) W 279 ° 2 min 158 W/m² 7,2 °C 9,5 °C 12,9 km/h (3 Bft)
25.03.2025 10:29 21,9 °C 10,0 °C 45 % 83 % 1018,1 hPa 0,0 l/m² 3,8 km/h (1 Bft) W-NW 299 ° 2 min 169 W/m² 7,2 °C 10,0 °C 11,3 km/h (2 Bft)
25.03.2025 10:31 21,9 °C 10,1 °C 45 % 83 % 1018,2 hPa 0,0 l/m² 2,7 km/h (1 Bft) W-NW 300 ° 2 min 165 W/m² 7,3 °C 10,1 °C 6,4 km/h (2 Bft)
25.03.2025 10:33 21,8 °C 10,2 °C 45 % 83 % 1018,2 hPa 0,0 l/m² 1,7 km/h (1 Bft) W-NW 295 ° 2 min 158 W/m² 7,4 °C 10,2 °C 6,4 km/h (2 Bft)
25.03.2025 10:35 21,8 °C 10,2 °C 45 % 83 % 1018,2 hPa 0,0 l/m² 1,9 km/h (1 Bft) W-NW 302 ° 2 min 162 W/m² 7,4 °C 10,2 °C 6,4 km/h (2 Bft)
25.03.2025 10:37 21,8 °C 10,2 °C 45 % 82 % 1018,2 hPa 0,0 l/m² 3,2 km/h (1 Bft) NW 321 ° 2 min 144 W/m² 7,3 °C 10,2 °C 6,4 km/h (2 Bft)
25.03.2025 10:39 21,8 °C 10,3 °C 45 % 83 % 1018,3 hPa 0,0 l/m² 2,5 km/h (1 Bft) W 265 ° 2 min 121 W/m² 7,5 °C 10,3 °C 4,8 km/h (1 Bft)
25.03.2025 10:41 21,8 °C 10,3 °C 45 % 82 % 1018,3 hPa 0,0 l/m² 5,3 km/h (1 Bft) W 275 ° 2 min 134 W/m² 7,4 °C 10,3 °C 9,7 km/h (2 Bft)
25.03.2025 10:43 21,8 °C 10,3 °C 45 % 82 % 1018,3 hPa 0,0 l/m² 2,4 km/h (1 Bft) W 275 ° 2 min 146 W/m² 7,4 °C 10,3 °C 6,4 km/h (2 Bft)
25.03.2025 10:45 21,8 °C 10,4 °C 45 % 82 % 1018,2 hPa 0,0 l/m² 4,7 km/h (1 Bft) W-NW 291 ° 2 min 151 W/m² 7,5 °C 10,4 °C 9,7 km/h (2 Bft)
25.03.2025 10:47 21,8 °C 10,4 °C 45 % 82 % 1018,3 hPa 0,0 l/m² 3,4 km/h (1 Bft) W-NW 284 ° 2 min 165 W/m² 7,5 °C 10,4 °C 9,7 km/h (2 Bft)
25.03.2025 10:48 21,8 °C 10,4 °C 45 % 81 % 1018,3 hPa 0,0 l/m² 6,2 km/h (2 Bft) W 275 ° 1 min 229 W/m² 7,3 °C 10,4 °C 9,7 km/h (2 Bft)
25.03.2025 10:49 21,8 °C 10,4 °C 45 % 81 % 1018,3 hPa 0,0 l/m² 4,2 km/h (1 Bft) W-NW 288 ° 1 min 274 W/m² 7,3 °C 10,4 °C 6,4 km/h (2 Bft)
25.03.2025 10:51 21,8 °C 10,4 °C 45 % 81 % 1018,3 hPa 0,0 l/m² 4,7 km/h (1 Bft) NW 307 ° 2 min 258 W/m² 7,3 °C 10,4 °C 8,0 km/h (2 Bft)
25.03.2025 10:53 21,8 °C 10,6 °C 45 % 81 % 1018,3 hPa 0,0 l/m² 2,0 km/h (1 Bft) W-NW 299 ° 2 min 216 W/m² 7,5 °C 10,6 °C 6,4 km/h (2 Bft)
25.03.2025 10:55 21,8 °C 10,8 °C 45 % 81 % 1018,3 hPa 0,0 l/m² 3,2 km/h (1 Bft) W-NW 288 ° 2 min 253 W/m² 7,7 °C 10,8 °C 4,8 km/h (1 Bft)
25.03.2025 10:57 21,8 °C 10,9 °C 45 % 80 % 1018,3 hPa 0,0 l/m² 5,6 km/h (2 Bft) N-NW 346 ° 2 min 308 W/m² 7,6 °C 10,9 °C 9,7 km/h (2 Bft)
25.03.2025 10:59 21,8 °C 10,9 °C 45 % 80 % 1018,2 hPa 0,0 l/m² 6,8 km/h (2 Bft) NW 325 ° 2 min 295 W/m² 7,6 °C 10,6 °C 12,9 km/h (3 Bft)
25.03.2025 11:01 21,8 °C 10,9 °C 45 % 80 % 1018,2 hPa 0,0 l/m² 6,0 km/h (2 Bft) NW 307 ° 2 min 279 W/m² 7,6 °C 10,9 °C 9,7 km/h (2 Bft)
25.03.2025 11:03 21,8 °C 11,0 °C 45 % 80 % 1018,2 hPa 0,0 l/m² 3,3 km/h (1 Bft) NW 321 ° 2 min 246 W/m² 7,7 °C 11,0 °C 6,4 km/h (2 Bft)
25.03.2025 11:04 21,8 °C 11,1 °C 45 % 79 % 1018,2 hPa 0,0 l/m² 2,5 km/h (1 Bft) NW 326 ° 1 min 225 W/m² 7,6 °C 11,1 °C 4,8 km/h (1 Bft)
25.03.2025 11:05 21,8 °C 11,1 °C 45 % 80 % 1018,2 hPa 0,0 l/m² 2,5 km/h (1 Bft) W 271 ° 1 min 220 W/m² 7,8 °C 11,1 °C 4,8 km/h (1 Bft)
25.03.2025 11:07 21,8 °C 11,2 °C 45 % 79 % 1018,2 hPa 0,0 l/m² 4,2 km/h (1 Bft) NW 323 ° 2 min 253 W/m² 7,7 °C 11,2 °C 9,7 km/h (2 Bft)
25.03.2025 11:09 21,8 °C 11,2 °C 45 % 79 % 1018,2 hPa 0,0 l/m² 6,3 km/h (2 Bft) W 271 ° 2 min 366 W/m² 7,7 °C 11,2 °C 12,9 km/h (3 Bft)
25.03.2025 11:11 21,8 °C 11,3 °C 45 % 78 % 1018,2 hPa 0,0 l/m² 5,2 km/h (1 Bft) W 275 ° 2 min 448 W/m² 7,6 °C 11,3 °C 11,3 km/h (2 Bft)
25.03.2025 11:13 21,8 °C 11,4 °C 45 % 78 % 1018,2 hPa 0,0 l/m² 5,8 km/h (2 Bft) NW 313 ° 2 min 388 W/m² 7,7 °C 11,4 °C 11,3 km/h (2 Bft)
25.03.2025 11:15 21,8 °C 11,6 °C 45 % 77 % 1018,1 hPa 0,0 l/m² 4,4 km/h (1 Bft) W-NW 291 ° 2 min 325 W/m² 7,7 °C 11,6 °C 9,7 km/h (2 Bft)
25.03.2025 11:17 21,8 °C 11,7 °C 45 % 77 % 1018,1 hPa 0,0 l/m² 6,3 km/h (2 Bft) NW 314 ° 2 min 431 W/m² 7,8 °C 11,7 °C 11,3 km/h (2 Bft)
25.03.2025 11:19 21,9 °C 11,7 °C 45 % 76 % 1018,1 hPa 0,0 l/m² 4,6 km/h (1 Bft) W-NW 301 ° 2 min 413 W/m² 7,6 °C 11,7 °C 6,4 km/h (2 Bft)
25.03.2025 11:21 21,8 °C 11,7 °C 45 % 77 % 1018,2 hPa 0,0 l/m² 6,9 km/h (2 Bft) NW 310 ° 2 min 415 W/m² 7,8 °C 11,4 °C 14,5 km/h (3 Bft)
25.03.2025 11:23 21,9 °C 11,7 °C 45 % 75 % 1018,3 hPa 0,0 l/m² 6,4 km/h (2 Bft) NW 321 ° 2 min 350 W/m² 7,4 °C 11,7 °C 12,9 km/h (3 Bft)
25.03.2025 11:25 21,8 °C 11,8 °C 45 % 77 % 1018,2 hPa 0,0 l/m² 5,2 km/h (1 Bft) W-NW 294 ° 2 min 301 W/m² 7,9 °C 11,8 °C 14,5 km/h (3 Bft)
25.03.2025 11:27 21,8 °C 11,8 °C 45 % 75 % 1018,2 hPa 0,0 l/m² 7,0 km/h (2 Bft) NW 314 ° 2 min 350 W/m² 7,5 °C 11,4 °C 9,7 km/h (2 Bft)
25.03.2025 11:29 21,9 °C 11,8 °C 45 % 75 % 1018,2 hPa 0,0 l/m² 10,4 km/h (2 Bft) NW 313 ° 2 min 267 W/m² 7,5 °C 9,4 °C 16,1 km/h (3 Bft)
25.03.2025 11:31 21,8 °C 11,7 °C 45 % 75 % 1018,2 hPa 0,0 l/m² 8,1 km/h (2 Bft) NW 304 ° 2 min 253 W/m² 7,4 °C 10,6 °C 14,5 km/h (3 Bft)
25.03.2025 11:33 21,8 °C 11,7 °C 45 % 75 % 1018,1 hPa 0,0 l/m² 10,9 km/h (2 Bft) NW 322 ° 2 min 251 W/m² 7,4 °C 9,0 °C 17,7 km/h (3 Bft)
25.03.2025 11:35 21,8 °C 11,6 °C 45 % 76 % 1018,1 hPa 0,0 l/m² 9,9 km/h (2 Bft) NW 325 ° 2 min 278 W/m² 7,5 °C 9,4 °C 16,1 km/h (3 Bft)
25.03.2025 11:37 21,8 °C 11,6 °C 45 % 75 % 1018,1 hPa 0,0 l/m² 9,3 km/h (2 Bft) NW 312 ° 2 min 278 W/m² 7,3 °C 9,8 °C 16,1 km/h (3 Bft)
25.03.2025 11:39 21,8 °C 11,6 °C 45 % 75 % 1018,1 hPa 0,0 l/m² 6,1 km/h (2 Bft) NW 305 ° 2 min 278 W/m² 7,3 °C 11,6 °C 11,3 km/h (2 Bft)
25.03.2025 11:41 21,9 °C 11,6 °C 45 % 74 % 1018,1 hPa 0,0 l/m² 7,5 km/h (2 Bft) N-NW 340 ° 2 min 299 W/m² 7,1 °C 10,9 °C 14,5 km/h (3 Bft)
25.03.2025 11:43 21,9 °C 11,7 °C 45 % 75 % 1018,1 hPa 0,0 l/m² 8,3 km/h (2 Bft) W 263 ° 2 min 343 W/m² 7,4 °C 10,5 °C 14,5 km/h (3 Bft)
25.03.2025 11:45 21,8 °C 11,7 °C 45 % 75 % 1018,0 hPa 0,0 l/m² 6,6 km/h (2 Bft) NW 307 ° 2 min 327 W/m² 7,4 °C 11,6 °C 12,9 km/h (3 Bft)
25.03.2025 11:47 21,9 °C 11,7 °C 45 % 74 % 1018,1 hPa 0,0 l/m² 4,2 km/h (1 Bft) W 270 ° 2 min 278 W/m² 7,2 °C 11,7 °C 12,9 km/h (3 Bft)
25.03.2025 11:49 21,8 °C 11,8 °C 45 % 74 % 1018,1 hPa 0,0 l/m² 7,0 km/h (2 Bft) W 277 ° 2 min 271 W/m² 7,3 °C 11,4 °C 11,3 km/h (2 Bft)
25.03.2025 11:51 21,8 °C 11,8 °C 45 % 75 % 1018,1 hPa 0,0 l/m² 4,0 km/h (1 Bft) NW 311 ° 2 min 276 W/m² 7,5 °C 11,8 °C 6,4 km/h (2 Bft)
25.03.2025 11:53 21,9 °C 11,9 °C 45 % 74 % 1018,0 hPa 0,0 l/m² 4,6 km/h (1 Bft) NW 304 ° 2 min 330 W/m² 7,4 °C 11,9 °C 6,4 km/h (2 Bft)
25.03.2025 11:55 21,9 °C 12,1 °C 45 % 74 % 1018,0 hPa 0,0 l/m² 4,3 km/h (1 Bft) NW 304 ° 2 min 374 W/m² 7,6 °C 12,1 °C 9,7 km/h (2 Bft)
25.03.2025 11:57 21,9 °C 12,3 °C 45 % 73 % 1018,0 hPa 0,0 l/m² 5,2 km/h (1 Bft) W 278 ° 2 min 675 W/m² 7,6 °C 12,3 °C 9,7 km/h (2 Bft)
25.03.2025 11:59 21,9 °C 12,7 °C 45 % 73 % 1018,0 hPa 0,0 l/m² 3,3 km/h (1 Bft) W-NW 292 ° 2 min 719 W/m² 8,0 °C 12,7 °C 6,4 km/h (2 Bft)
25.03.2025 12:01 21,9 °C 13,1 °C 45 % 72 % 1017,9 hPa 0,0 l/m² 5,4 km/h (2 Bft) W 277 ° 2 min 696 W/m² 8,2 °C 13,1 °C 9,7 km/h (2 Bft)
25.03.2025 12:02 21,9 °C 13,1 °C 45 % 70 % 1018,0 hPa 0,0 l/m² 4,4 km/h (1 Bft) NW 313 ° 1 min 696 W/m² 7,8 °C 13,1 °C 8,0 km/h (2 Bft)
25.03.2025 12:03 21,9 °C 12,9 °C 45 % 69 % 1018,0 hPa 0,0 l/m² 7,8 km/h (2 Bft) W 275 ° 1 min 353 W/m² 7,4 °C 12,0 °C 11,3 km/h (2 Bft)
25.03.2025 12:05 21,9 °C 12,8 °C 45 % 71 % 1017,9 hPa 0,0 l/m² 6,1 km/h (2 Bft) W 271 ° 2 min 369 W/m² 7,7 °C 12,8 °C 12,9 km/h (3 Bft)
25.03.2025 12:07 21,9 °C 12,7 °C 45 % 70 % 1017,9 hPa 0,0 l/m² 9,1 km/h (2 Bft) W 269 ° 2 min 396 W/m² 7,4 °C 11,1 °C 14,5 km/h (3 Bft)
25.03.2025 12:09 21,9 °C 12,5 °C 45 % 71 % 1017,9 hPa 0,0 l/m² 5,2 km/h (1 Bft) W 263 ° 2 min 396 W/m² 7,4 °C 12,5 °C 8,0 km/h (2 Bft)
25.03.2025 12:11 21,9 °C 12,6 °C 45 % 71 % 1017,9 hPa 0,0 l/m² 8,1 km/h (2 Bft) W-NW 298 ° 2 min 353 W/m² 7,5 °C 11,5 °C 16,1 km/h (3 Bft)
25.03.2025 12:13 21,9 °C 12,6 °C 45 % 71 % 1017,9 hPa 0,0 l/m² 7,4 km/h (2 Bft) NW 309 ° 2 min 367 W/m² 7,5 °C 12,0 °C 12,9 km/h (3 Bft)
25.03.2025 12:14 21,9 °C 12,6 °C 45 % 71 % 1017,8 hPa 0,0 l/m² 9,6 km/h (2 Bft) NW 305 ° 1 min 367 W/m² 7,5 °C 10,7 °C 12,9 km/h (3 Bft)
25.03.2025 12:15 21,9 °C 12,5 °C 45 % 71 % 1017,8 hPa 0,0 l/m² 6,8 km/h (2 Bft) N-NW 335 ° 1 min 492 W/m² 7,4 °C 12,2 °C 12,9 km/h (3 Bft)
25.03.2025 12:17 21,9 °C 12,4 °C 45 % 71 % 1017,8 hPa 0,0 l/m² 5,5 km/h (2 Bft) NW 323 ° 2 min 276 W/m² 7,3 °C 12,4 °C 9,7 km/h (2 Bft)
25.03.2025 12:19 21,9 °C 12,4 °C 45 % 72 % 1017,8 hPa 0,0 l/m² 4,5 km/h (1 Bft) NW 315 ° 2 min 262 W/m² 7,5 °C 12,4 °C 8,0 km/h (2 Bft)
25.03.2025 12:21 21,9 °C 12,4 °C 45 % 71 % 1017,8 hPa 0,0 l/m² 5,1 km/h (1 Bft) W-NW 284 ° 2 min 250 W/m² 7,3 °C 12,4 °C 12,9 km/h (3 Bft)
25.03.2025 12:23 21,9 °C 12,3 °C 45 % 71 % 1017,8 hPa 0,0 l/m² 8,3 km/h (2 Bft) NW 313 ° 2 min 232 W/m² 7,2 °C 11,1 °C 12,9 km/h (3 Bft)
25.03.2025 12:25 21,9 °C 12,2 °C 45 % 71 % 1017,8 hPa 0,0 l/m² 6,3 km/h (2 Bft) W 275 ° 2 min 229 W/m² 7,1 °C 12,2 °C 9,7 km/h (2 Bft)
25.03.2025 12:27 21,9 °C 12,2 °C 45 % 71 % 1017,8 hPa 0,0 l/m² 4,1 km/h (1 Bft) W-NW 283 ° 2 min 234 W/m² 7,1 °C 12,2 °C 9,7 km/h (2 Bft)
25.03.2025 12:29 21,9 °C 12,1 °C 45 % 72 % 1017,8 hPa 0,0 l/m² 0,8 km/h (0 Bft) W-NW 283 ° 2 min 265 W/m² 7,2 °C 12,1 °C 3,2 km/h (1 Bft)
25.03.2025 12:31 21,9 °C 12,2 °C 45 % 74 % 1017,7 hPa 0,0 l/m² 2,1 km/h (1 Bft) W 263 ° 2 min 265 W/m² 7,7 °C 12,2 °C 4,8 km/h (1 Bft)
25.03.2025 12:33 21,9 °C 12,3 °C 45 % 73 % 1017,8 hPa 0,0 l/m² 3,1 km/h (1 Bft) W-SW 244 ° 2 min 278 W/m² 7,6 °C 12,3 °C 8,0 km/h (2 Bft)
25.03.2025 12:35 21,9 °C 12,4 °C 45 % 72 % 1017,8 hPa 0,0 l/m² 5,3 km/h (1 Bft) W 276 ° 2 min 339 W/m² 7,5 °C 12,4 °C 9,7 km/h (2 Bft)
25.03.2025 12:37 21,8 °C 12,4 °C 45 % 72 % 1017,7 hPa 0,0 l/m² 3,2 km/h (1 Bft) W 269 ° 2 min 260 W/m² 7,5 °C 12,4 °C 6,4 km/h (2 Bft)
25.03.2025 12:39 21,9 °C 12,4 °C 45 % 70 % 1017,7 hPa 0,0 l/m² 5,7 km/h (2 Bft) W 261 ° 2 min 223 W/m² 7,1 °C 12,4 °C 12,9 km/h (3 Bft)
25.03.2025 12:41 21,9 °C 12,3 °C 45 % 70 % 1017,8 hPa 0,0 l/m² 2,9 km/h (1 Bft) W 261 ° 2 min 206 W/m² 7,0 °C 12,3 °C 6,4 km/h (2 Bft)
25.03.2025 12:43 21,8 °C 12,2 °C 45 % 73 % 1017,7 hPa 0,0 l/m² 2,7 km/h (1 Bft) SW 225 ° 2 min 185 W/m² 7,5 °C 12,2 °C 6,4 km/h (2 Bft)
25.03.2025 12:45 21,8 °C 12,1 °C 45 % 74 % 1017,7 hPa 0,0 l/m² 6,0 km/h (2 Bft) SW 226 ° 2 min 169 W/m² 7,6 °C 12,1 °C 8,0 km/h (2 Bft)
25.03.2025 12:46 21,9 °C 12,1 °C 45 % 74 % 1017,7 hPa 0,0 l/m² 4,1 km/h (1 Bft) SW 225 ° 1 min 167 W/m² 7,6 °C 12,1 °C 4,8 km/h (1 Bft)
25.03.2025 12:47 21,9 °C 12,0 °C 45 % 73 % 1017,7 hPa 0,0 l/m² 3,5 km/h (1 Bft) SW 225 ° 1 min 167 W/m² 7,3 °C 12,0 °C 4,8 km/h (1 Bft)
25.03.2025 12:49 21,8 °C 12,0 °C 45 % 72 % 1017,8 hPa 0,0 l/m² 4,5 km/h (1 Bft) NW 317 ° 2 min 160 W/m² 7,1 °C 12,0 °C 9,7 km/h (2 Bft)
25.03.2025 12:51 21,8 °C 12,1 °C 45 % 72 % 1017,8 hPa 0,0 l/m² 9,1 km/h (2 Bft) NW 324 ° 2 min 142 W/m² 7,2 °C 10,4 °C 14,5 km/h (3 Bft)
25.03.2025 12:53 21,8 °C 12,1 °C 45 % 72 % 1017,8 hPa 0,0 l/m² 9,9 km/h (2 Bft) NW 323 ° 2 min 151 W/m² 7,2 °C 10,0 °C 14,5 km/h (3 Bft)
25.03.2025 12:55 21,8 °C 12,1 °C 45 % 72 % 1017,8 hPa 0,0 l/m² 10,5 km/h (2 Bft) N-NW 348 ° 2 min 171 W/m² 7,2 °C 9,7 °C 17,7 km/h (3 Bft)
25.03.2025 12:57 21,8 °C 12,1 °C 45 % 73 % 1017,8 hPa 0,0 l/m² 9,0 km/h (2 Bft) NW 306 ° 2 min 232 W/m² 7,4 °C 10,5 °C 14,5 km/h (3 Bft)
25.03.2025 12:59 21,8 °C 12,2 °C 45 % 72 % 1017,8 hPa 0,0 l/m² 7,1 km/h (2 Bft) N 350 ° 2 min 271 W/m² 7,3 °C 11,7 °C 14,5 km/h (3 Bft)
25.03.2025 13:01 21,8 °C 12,2 °C 45 % 72 % 1017,8 hPa 0,0 l/m² 8,4 km/h (2 Bft) N-NO 22 ° 2 min 287 W/m² 7,3 °C 10,9 °C 12,9 km/h (3 Bft)
25.03.2025 13:03 21,8 °C 12,3 °C 45 % 72 % 1017,7 hPa 0,0 l/m² 9,4 km/h (2 Bft) N-NW 329 ° 2 min 279 W/m² 7,4 °C 10,5 °C 14,5 km/h (3 Bft)
25.03.2025 13:05 21,8 °C 12,4 °C 45 % 72 % 1017,7 hPa 0,0 l/m² 7,2 km/h (2 Bft) N 349 ° 2 min 255 W/m² 7,5 °C 11,9 °C 12,9 km/h (3 Bft)
25.03.2025 13:07 21,8 °C 12,4 °C 45 % 72 % 1017,8 hPa 0,0 l/m² 7,5 km/h (2 Bft) NW 320 ° 2 min 250 W/m² 7,5 °C 11,7 °C 9,7 km/h (2 Bft)
25.03.2025 13:09 21,8 °C 12,4 °C 45 % 72 % 1017,7 hPa 0,0 l/m² 8,3 km/h (2 Bft) N-NW 332 ° 2 min 253 W/m² 7,5 °C 11,2 °C 12,9 km/h (3 Bft)
25.03.2025 13:11 21,8 °C 12,4 °C 45 % 72 % 1017,8 hPa 0,0 l/m² 10,6 km/h (2 Bft) NW 313 ° 2 min 287 W/m² 7,5 °C 9,9 °C 14,5 km/h (3 Bft)
25.03.2025 13:13 21,8 °C 12,5 °C 45 % 71 % 1017,8 hPa 0,0 l/m² 12,9 km/h (3 Bft) N-NW 343 ° 2 min 287 W/m² 7,4 °C 9,0 °C 17,7 km/h (3 Bft)
25.03.2025 13:15 21,8 °C 12,6 °C 45 % 71 % 1017,7 hPa 0,0 l/m² 6,7 km/h (2 Bft) NW 317 ° 2 min 322 W/m² 7,5 °C 12,4 °C 12,9 km/h (3 Bft)
25.03.2025 13:17 21,8 °C 12,6 °C 45 % 71 % 1017,8 hPa 0,0 l/m² 9,2 km/h (2 Bft) N-NW 330 ° 2 min 330 W/m² 7,5 °C 10,9 °C 16,1 km/h (3 Bft)
25.03.2025 13:19 21,8 °C 12,8 °C 45 % 71 % 1017,7 hPa 0,0 l/m² 6,5 km/h (2 Bft) NW 315 ° 2 min 373 W/m² 7,7 °C 12,8 °C 9,7 km/h (2 Bft)
25.03.2025 13:21 21,8 °C 12,8 °C 45 % 71 % 1017,7 hPa 0,0 l/m² 10,3 km/h (2 Bft) NW 323 ° 2 min 392 W/m² 7,7 °C 10,5 °C 16,1 km/h (3 Bft)
25.03.2025 13:23 21,8 °C 12,9 °C 45 % 71 % 1017,6 hPa 0,0 l/m² 7,9 km/h (2 Bft) NW 314 ° 2 min 343 W/m² 7,8 °C 12,0 °C 14,5 km/h (3 Bft)
25.03.2025 13:25 21,8 °C 13,0 °C 45 % 71 % 1017,7 hPa 0,0 l/m² 10,8 km/h (2 Bft) N-NO 28 ° 2 min 334 W/m² 7,9 °C 10,5 °C 16,1 km/h (3 Bft)
25.03.2025 13:27 21,8 °C 12,7 °C 45 % 70 % 1017,7 hPa 0,0 l/m² 16,1 km/h (3 Bft) N-NW 347 ° 2 min 425 W/m² 7,4 °C 8,0 °C 19,3 km/h (3 Bft)
25.03.2025 13:29 21,8 °C 12,7 °C 45 % 72 % 1017,7 hPa 0,0 l/m² 13,1 km/h (3 Bft) NW 314 ° 2 min 529 W/m² 7,8 °C 9,2 °C 19,3 km/h (3 Bft)
25.03.2025 13:31 21,8 °C 12,7 °C 45 % 72 % 1017,6 hPa 0,0 l/m² 9,8 km/h (2 Bft) N 5 ° 2 min 580 W/m² 7,8 °C 10,7 °C 14,5 km/h (3 Bft)
25.03.2025 13:33 21,8 °C 12,6 °C 45 % 72 % 1017,7 hPa 0,0 l/m² 11,6 km/h (2 Bft) N 360 ° 2 min 376 W/m² 7,7 °C 9,7 °C 16,1 km/h (3 Bft)
25.03.2025 13:35 21,8 °C 12,6 °C 45 % 72 % 1017,6 hPa 0,0 l/m² 12,1 km/h (2 Bft) N-NW 332 ° 2 min 260 W/m² 7,7 °C 9,5 °C 16,1 km/h (3 Bft)
25.03.2025 13:37 21,8 °C 12,5 °C 45 % 72 % 1017,7 hPa 0,0 l/m² 9,9 km/h (2 Bft) N-NW 327 ° 2 min 297 W/m² 7,6 °C 10,4 °C 14,5 km/h (3 Bft)
25.03.2025 13:39 21,8 °C 12,6 °C 45 % 72 % 1017,6 hPa 0,0 l/m² 8,8 km/h (2 Bft) N-NW 348 ° 2 min 624 W/m² 7,7 °C 11,1 °C 14,5 km/h (3 Bft)
25.03.2025 13:41 21,8 °C 12,7 °C 45 % 72 % 1017,6 hPa 0,0 l/m² 9,3 km/h (2 Bft) N-NW 342 ° 2 min 624 W/m² 7,8 °C 10,9 °C 16,1 km/h (3 Bft)
25.03.2025 13:43 21,8 °C 12,7 °C 45 % 72 % 1017,6 hPa 0,0 l/m² 8,8 km/h (2 Bft) W-NW 294 ° 2 min 533 W/m² 7,8 °C 11,2 °C 14,5 km/h (3 Bft)
25.03.2025 13:45 21,8 °C 12,7 °C 45 % 71 % 1017,5 hPa 0,0 l/m² 7,2 km/h (2 Bft) W-NW 296 ° 2 min 218 W/m² 7,6 °C 12,2 °C 14,5 km/h (3 Bft)
25.03.2025 13:47 21,8 °C 12,6 °C 45 % 70 % 1017,5 hPa 0,0 l/m² 9,5 km/h (2 Bft) N-NW 345 ° 2 min 250 W/m² 7,3 °C 10,7 °C 16,1 km/h (3 Bft)
25.03.2025 13:49 21,8 °C 12,6 °C 45 % 72 % 1017,4 hPa 0,0 l/m² 10,2 km/h (2 Bft) N 355 ° 2 min 531 W/m² 7,7 °C 10,4 °C 17,7 km/h (3 Bft)
25.03.2025 13:51 21,8 °C 12,8 °C 45 % 72 % 1017,4 hPa 0,0 l/m² 9,7 km/h (2 Bft) N-NW 331 ° 2 min 557 W/m² 7,9 °C 10,8 °C 16,1 km/h (3 Bft)
25.03.2025 13:53 21,8 °C 12,9 °C 45 % 70 % 1017,4 hPa 0,0 l/m² 10,2 km/h (2 Bft) NW 304 ° 2 min 587 W/m² 7,6 °C 10,7 °C 16,1 km/h (3 Bft)
25.03.2025 13:55 21,8 °C 12,9 °C 45 % 71 % 1017,5 hPa 0,0 l/m² 8,1 km/h (2 Bft) N-NW 337 ° 2 min 250 W/m² 7,8 °C 11,8 °C 14,5 km/h (3 Bft)
25.03.2025 13:57 21,8 °C 13,0 °C 45 % 71 % 1017,4 hPa 0,0 l/m² 12,1 km/h (2 Bft) N-NW 331 ° 2 min 545 W/m² 7,9 °C 9,9 °C 19,3 km/h (3 Bft)
25.03.2025 13:59 21,8 °C 13,1 °C 45 % 72 % 1017,4 hPa 0,0 l/m² 12,0 km/h (2 Bft) N 360 ° 2 min 522 W/m² 8,2 °C 10,1 °C 19,3 km/h (3 Bft)
25.03.2025 14:01 21,8 °C 13,1 °C 45 % 71 % 1017,4 hPa 0,0 l/m² 14,9 km/h (3 Bft) NW 317 ° 2 min 517 W/m² 8,0 °C 8,9 °C 17,7 km/h (3 Bft)
25.03.2025 14:03 21,8 °C 13,1 °C 45 % 72 % 1017,4 hPa 0,0 l/m² 11,4 km/h (2 Bft) N-NW 340 ° 2 min 524 W/m² 8,2 °C 10,4 °C 19,3 km/h (3 Bft)
25.03.2025 14:05 21,8 °C 13,2 °C 45 % 70 % 1017,5 hPa 0,0 l/m² 9,6 km/h (2 Bft) N-NW 327 ° 2 min 520 W/m² 7,9 °C 11,3 °C 17,7 km/h (3 Bft)
25.03.2025 14:07 21,8 °C 13,2 °C 45 % 71 % 1017,5 hPa 0,0 l/m² 10,2 km/h (2 Bft) N-NW 329 ° 2 min 526 W/m² 8,1 °C 11,0 °C 16,1 km/h (3 Bft)
25.03.2025 14:09 21,8 °C 13,1 °C 45 % 70 % 1017,4 hPa 0,0 l/m² 13,3 km/h (3 Bft) N-NW 346 ° 2 min 534 W/m² 7,8 °C 9,5 °C 19,3 km/h (3 Bft)
25.03.2025 14:11 21,8 °C 13,0 °C 45 % 69 % 1017,4 hPa 0,0 l/m² 11,4 km/h (2 Bft) N-NW 330 ° 2 min 517 W/m² 7,4 °C 10,2 °C 17,7 km/h (3 Bft)
25.03.2025 14:13 21,8 °C 13,1 °C 45 % 71 % 1017,4 hPa 0,0 l/m² 12,1 km/h (2 Bft) NW 314 ° 2 min 499 W/m² 8,0 °C 10,0 °C 20,9 km/h (4 Bft)
25.03.2025 14:15 21,8 °C 13,2 °C 45 % 71 % 1017,5 hPa 0,0 l/m² 8,1 km/h (2 Bft) NW 326 ° 2 min 522 W/m² 8,1 °C 12,2 °C 14,5 km/h (3 Bft)
25.03.2025 14:17 21,8 °C 13,2 °C 45 % 69 % 1017,3 hPa 0,0 l/m² 10,2 km/h (2 Bft) N-NW 336 ° 2 min 534 W/m² 7,6 °C 11,0 °C 16,1 km/h (3 Bft)
25.03.2025 14:19 21,8 °C 13,3 °C 45 % 70 % 1017,3 hPa 0,0 l/m² 11,0 km/h (2 Bft) NW 316 ° 2 min 531 W/m² 7,9 °C 10,8 °C 17,7 km/h (3 Bft)
25.03.2025 14:21 21,8 °C 13,3 °C 45 % 69 % 1017,3 hPa 0,0 l/m² 11,2 km/h (2 Bft) N-NW 333 ° 2 min 512 W/m² 7,7 °C 10,7 °C 14,5 km/h (3 Bft)
25.03.2025 14:23 21,8 °C 13,2 °C 45 % 70 % 1017,4 hPa 0,0 l/m² 11,5 km/h (2 Bft) N-NW 328 ° 2 min 515 W/m² 7,9 °C 10,4 °C 17,7 km/h (3 Bft)
25.03.2025 14:25 21,8 °C 13,4 °C 45 % 69 % 1017,4 hPa 0,0 l/m² 9,4 km/h (2 Bft) N-NW 342 ° 2 min 524 W/m² 7,8 °C 11,7 °C 16,1 km/h (3 Bft)
25.03.2025 14:27 21,8 °C 13,4 °C 45 % 69 % 1017,4 hPa 0,0 l/m² 9,3 km/h (2 Bft) N-NW 338 ° 2 min 568 W/m² 7,8 °C 11,7 °C 17,7 km/h (3 Bft)
25.03.2025 14:29 21,8 °C 13,4 °C 45 % 69 % 1017,4 hPa 0,0 l/m² 12,7 km/h (3 Bft) N-NW 339 ° 2 min 570 W/m² 7,8 °C 10,1 °C 20,9 km/h (4 Bft)
25.03.2025 14:31 21,8 °C 13,3 °C 45 % 69 % 1017,4 hPa 0,0 l/m² 14,6 km/h (3 Bft) N-NW 332 ° 2 min 520 W/m² 7,7 °C 9,3 °C 20,9 km/h (4 Bft)
25.03.2025 14:33 21,8 °C 13,3 °C 45 % 70 % 1017,3 hPa 0,0 l/m² 9,3 km/h (2 Bft) N-NW 332 ° 2 min 508 W/m² 7,9 °C 11,6 °C 16,1 km/h (3 Bft)
25.03.2025 14:35 21,8 °C 13,3 °C 45 % 69 % 1017,4 hPa 0,0 l/m² 14,1 km/h (3 Bft) N 5 ° 2 min 515 W/m² 7,7 °C 9,5 °C 20,9 km/h (4 Bft)
25.03.2025 14:37 21,8 °C 13,2 °C 45 % 69 % 1017,4 hPa 0,0 l/m² 14,5 km/h (3 Bft) N-NW 342 ° 2 min 534 W/m² 7,6 °C 9,2 °C 20,9 km/h (4 Bft)
25.03.2025 14:39 21,8 °C 13,2 °C 45 % 69 % 1017,5 hPa 0,0 l/m² 12,2 km/h (2 Bft) N-NW 333 ° 2 min 522 W/m² 7,6 °C 10,1 °C 19,3 km/h (3 Bft)
25.03.2025 14:41 21,8 °C 13,1 °C 45 % 69 % 1017,5 hPa 0,0 l/m² 14,5 km/h (3 Bft) NW 323 ° 2 min 504 W/m² 7,5 °C 9,1 °C 20,9 km/h (4 Bft)
25.03.2025 14:43 21,8 °C 13,1 °C 45 % 69 % 1017,4 hPa 0,0 l/m² 13,8 km/h (3 Bft) N 349 ° 2 min 515 W/m² 7,5 °C 9,3 °C 20,9 km/h (4 Bft)
25.03.2025 14:45 21,8 °C 12,9 °C 45 % 70 % 1017,5 hPa 0,0 l/m² 11,3 km/h (2 Bft) N-NW 348 ° 2 min 508 W/m² 7,6 °C 10,2 °C 17,7 km/h (3 Bft)
25.03.2025 14:47 21,8 °C 13,1 °C 45 % 70 % 1017,4 hPa 0,0 l/m² 11,6 km/h (2 Bft) N 360 ° 2 min 503 W/m² 7,8 °C 10,3 °C 17,7 km/h (3 Bft)
25.03.2025 14:49 21,8 °C 13,2 °C 45 % 70 % 1017,5 hPa 0,0 l/m² 11,7 km/h (2 Bft) N-NW 342 ° 2 min 480 W/m² 7,9 °C 10,3 °C 17,7 km/h (3 Bft)
25.03.2025 14:51 21,8 °C 13,2 °C 45 % 69 % 1017,4 hPa 0,0 l/m² 11,8 km/h (2 Bft) N-NW 337 ° 2 min 455 W/m² 7,6 °C 10,3 °C 16,1 km/h (3 Bft)
25.03.2025 14:53 21,8 °C 13,0 °C 45 % 69 % 1017,4 hPa 0,0 l/m² 13,0 km/h (3 Bft) NW 315 ° 2 min 429 W/m² 7,4 °C 9,5 °C 19,3 km/h (3 Bft)
25.03.2025 14:55 21,8 °C 12,9 °C 45 % 70 % 1017,4 hPa 0,0 l/m² 10,8 km/h (2 Bft) NW 326 ° 2 min 450 W/m² 7,6 °C 10,4 °C 17,7 km/h (3 Bft)
25.03.2025 14:57 21,8 °C 12,9 °C 45 % 70 % 1017,4 hPa 0,0 l/m² 13,4 km/h (3 Bft) NW 322 ° 2 min 413 W/m² 7,6 °C 9,3 °C 19,3 km/h (3 Bft)
25.03.2025 14:59 21,8 °C 12,7 °C 45 % 69 % 1017,4 hPa 0,0 l/m² 14,3 km/h (3 Bft) N-NW 346 ° 2 min 410 W/m² 7,2 °C 8,7 °C 19,3 km/h (3 Bft)
25.03.2025 15:01 21,8 °C 12,4 °C 45 % 70 % 1017,4 hPa 0,0 l/m² 15,8 km/h (3 Bft) N-NW 346 ° 2 min 431 W/m² 7,1 °C 7,7 °C 20,9 km/h (4 Bft)
25.03.2025 15:03 21,8 °C 12,4 °C 45 % 71 % 1017,5 hPa 0,0 l/m² 10,4 km/h (2 Bft) N-NW 338 ° 2 min 403 W/m² 7,3 °C 10,0 °C 19,3 km/h (3 Bft)
25.03.2025 15:05 21,8 °C 12,4 °C 45 % 72 % 1017,5 hPa 0,0 l/m² 14,6 km/h (3 Bft) N-NO 13 ° 2 min 450 W/m² 7,5 °C 8,2 °C 20,9 km/h (4 Bft)
25.03.2025 15:07 21,8 °C 12,6 °C 45 % 71 % 1017,5 hPa 0,0 l/m² 12,5 km/h (2 Bft) NW 314 ° 2 min 432 W/m² 7,5 °C 9,3 °C 19,3 km/h (3 Bft)
25.03.2025 15:08 21,8 °C 12,7 °C 45 % 71 % 1017,4 hPa 0,0 l/m² 11,9 km/h (2 Bft) N 350 ° 1 min 436 W/m² 7,6 °C 9,7 °C 16,1 km/h (3 Bft)
25.03.2025 15:09 21,8 °C 12,6 °C 45 % 70 % 1017,4 hPa 0,0 l/m² 11,4 km/h (2 Bft) N 360 ° 1 min 427 W/m² 7,3 °C 9,8 °C 17,7 km/h (3 Bft)
25.03.2025 15:11 21,8 °C 12,5 °C 45 % 71 % 1017,4 hPa 0,0 l/m² 17,1 km/h (3 Bft) N 350 ° 2 min 413 W/m² 7,4 °C 7,4 °C 24,1 km/h (4 Bft)
25.03.2025 15:13 21,8 °C 12,6 °C 45 % 71 % 1017,4 hPa 0,0 l/m² 14,9 km/h (3 Bft) W-NW 301 ° 2 min 411 W/m² 7,5 °C 8,3 °C 20,9 km/h (4 Bft)
25.03.2025 15:15 21,8 °C 12,4 °C 45 % 71 % 1017,4 hPa 0,0 l/m² 14,3 km/h (3 Bft) N 355 ° 2 min 441 W/m² 7,3 °C 8,3 °C 19,3 km/h (3 Bft)
25.03.2025 15:17 21,8 °C 12,4 °C 45 % 71 % 1017,4 hPa 0,0 l/m² 7,9 km/h (2 Bft) N-NO 31 ° 2 min 425 W/m² 7,3 °C 11,4 °C 14,5 km/h (3 Bft)
25.03.2025 15:19 21,8 °C 12,6 °C 45 % 71 % 1017,4 hPa 0,0 l/m² 14,8 km/h (3 Bft) N-NW 342 ° 2 min 427 W/m² 7,5 °C 8,4 °C 20,9 km/h (4 Bft)
25.03.2025 15:21 21,8 °C 12,7 °C 45 % 71 % 1017,4 hPa 0,0 l/m² 9,5 km/h (2 Bft) W-NW 302 ° 2 min 401 W/m² 7,6 °C 10,8 °C 16,1 km/h (3 Bft)
25.03.2025 15:23 21,8 °C 12,7 °C 45 % 71 % 1017,4 hPa 0,0 l/m² 12,5 km/h (2 Bft) N-NW 336 ° 2 min 390 W/m² 7,6 °C 9,4 °C 17,7 km/h (3 Bft)
25.03.2025 15:25 21,9 °C 12,7 °C 45 % 70 % 1017,4 hPa 0,0 l/m² 13,3 km/h (3 Bft) W-NW 303 ° 2 min 387 W/m² 7,4 °C 9,1 °C 20,9 km/h (4 Bft)
25.03.2025 15:27 21,8 °C 12,7 °C 45 % 71 % 1017,5 hPa 0,0 l/m² 12,2 km/h (2 Bft) NW 310 ° 2 min 380 W/m² 7,6 °C 9,5 °C 19,3 km/h (3 Bft)
25.03.2025 15:29 21,9 °C 12,6 °C 45 % 70 % 1017,4 hPa 0,0 l/m² 15,7 km/h (3 Bft) NW 321 ° 2 min 390 W/m² 7,3 °C 8,0 °C 24,1 km/h (4 Bft)
25.03.2025 15:31 21,8 °C 12,6 °C 45 % 71 % 1017,4 hPa 0,0 l/m² 12,0 km/h (2 Bft) W-NW 298 ° 2 min 390 W/m² 7,5 °C 9,5 °C 17,7 km/h (3 Bft)
25.03.2025 15:32 21,8 °C 12,6 °C 45 % 71 % 1017,5 hPa 0,0 l/m² 10,5 km/h (2 Bft) N-NW 333 ° 1 min 396 W/m² 7,5 °C 10,2 °C 16,1 km/h (3 Bft)
25.03.2025 15:33 21,8 °C 12,6 °C 45 % 71 % 1017,5 hPa 0,0 l/m² 14,5 km/h (3 Bft) N-NW 348 ° 1 min 385 W/m² 7,5 °C 8,5 °C 19,3 km/h (3 Bft)
25.03.2025 15:35 21,9 °C 12,5 °C 45 % 71 % 1017,4 hPa 0,0 l/m² 13,1 km/h (3 Bft) NW 304 ° 2 min 350 W/m² 7,4 °C 8,9 °C 19,3 km/h (3 Bft)
25.03.2025 15:37 21,9 °C 12,4 °C 45 % 71 % 1017,4 hPa 0,0 l/m² 10,8 km/h (2 Bft) N-NW 331 ° 2 min 287 W/m² 7,3 °C 9,8 °C 16,1 km/h (3 Bft)
25.03.2025 15:39 21,8 °C 12,4 °C 45 % 71 % 1017,4 hPa 0,0 l/m² 13,7 km/h (3 Bft) W-NW 296 ° 2 min 325 W/m² 7,3 °C 8,6 °C 22,5 km/h (4 Bft)
25.03.2025 15:41 21,9 °C 12,3 °C 45 % 71 % 1017,3 hPa 0,0 l/m² 16,4 km/h (3 Bft) N-NW 339 ° 2 min 269 W/m² 7,2 °C 7,4 °C 22,5 km/h (4 Bft)
25.03.2025 15:43 21,9 °C 12,1 °C 45 % 72 % 1017,4 hPa 0,0 l/m² 15,8 km/h (3 Bft) NW 321 ° 2 min 167 W/m² 7,2 °C 7,4 °C 20,9 km/h (4 Bft)
25.03.2025 15:45 21,8 °C 11,9 °C 45 % 72 % 1017,3 hPa 0,0 l/m² 13,2 km/h (3 Bft) N 355 ° 2 min 153 W/m² 7,0 °C 8,2 °C 19,3 km/h (3 Bft)
25.03.2025 15:47 21,9 °C 11,6 °C 45 % 72 % 1017,3 hPa 0,0 l/m² 15,8 km/h (3 Bft) N-NW 332 ° 2 min 176 W/m² 6,7 °C 6,8 °C 22,5 km/h (4 Bft)
25.03.2025 15:48 21,9 °C 11,5 °C 45 % 73 % 1017,3 hPa 0,0 l/m² 9,2 km/h (2 Bft) NW 326 ° 1 min 199 W/m² 6,8 °C 9,7 °C 12,9 km/h (3 Bft)
25.03.2025 15:49 21,9 °C 11,5 °C 45 % 73 % 1017,3 hPa 0,0 l/m² 14,8 km/h (3 Bft) N-NW 329 ° 1 min 213 W/m² 6,8 °C 7,0 °C 17,7 km/h (3 Bft)
25.03.2025 15:51 21,9 °C 11,6 °C 45 % 74 % 1017,3 hPa 0,0 l/m² 11,4 km/h (2 Bft) N-NW 327 ° 2 min 179 W/m² 7,1 °C 8,6 °C 20,9 km/h (4 Bft)
25.03.2025 15:52 21,8 °C 11,5 °C 45 % 74 % 1017,3 hPa 0,0 l/m² 12,3 km/h (2 Bft) N-NW 344 ° 1 min 206 W/m² 7,0 °C 8,1 °C 17,7 km/h (3 Bft)
25.03.2025 15:53 21,9 °C 11,5 °C 45 % 74 % 1017,3 hPa 0,0 l/m² 12,5 km/h (2 Bft) N-NW 348 ° 1 min 251 W/m² 7,0 °C 8,0 °C 17,7 km/h (3 Bft)
25.03.2025 15:54 21,9 °C 11,4 °C 45 % 74 % 1017,3 hPa 0,0 l/m² 9,9 km/h (2 Bft) NW 325 ° 1 min 269 W/m² 6,9 °C 9,2 °C 16,1 km/h (3 Bft)
25.03.2025 15:56 21,8 °C 11,4 °C 45 % 74 % 1017,3 hPa 0,0 l/m² 13,3 km/h (3 Bft) NW 318 ° 2 min 214 W/m² 6,9 °C 7,5 °C 24,1 km/h (4 Bft)
25.03.2025 15:58 21,8 °C 11,3 °C 45 % 74 % 1017,2 hPa 0,0 l/m² 12,6 km/h (3 Bft) N-NW 329 ° 2 min 272 W/m² 6,8 °C 7,7 °C 17,7 km/h (3 Bft)
25.03.2025 16:00 21,9 °C 11,3 °C 45 % 74 % 1017,3 hPa 0,0 l/m² 17,7 km/h (3 Bft) N-NW 331 ° 2 min 297 W/m² 6,8 °C 5,7 °C 24,1 km/h (4 Bft)
25.03.2025 16:02 21,9 °C 11,2 °C 45 % 74 % 1017,2 hPa 0,0 l/m² 18,6 km/h (3 Bft) NW 321 ° 2 min 202 W/m² 6,7 °C 5,3 °C 20,9 km/h (4 Bft)
25.03.2025 16:04 21,9 °C 11,2 °C 45 % 75 % 1017,2 hPa 0,0 l/m² 12,8 km/h (3 Bft) W-NW 298 ° 2 min 283 W/m² 6,9 °C 7,5 °C 19,3 km/h (3 Bft)
25.03.2025 16:06 21,9 °C 11,2 °C 45 % 75 % 1017,2 hPa 0,0 l/m² 10,7 km/h (2 Bft) W-NW 295 ° 2 min 313 W/m² 6,9 °C 8,5 °C 20,9 km/h (4 Bft)
25.03.2025 16:08 21,9 °C 11,3 °C 45 % 74 % 1017,2 hPa 0,0 l/m² 13,7 km/h (3 Bft) N 5 ° 2 min 306 W/m² 6,8 °C 7,2 °C 24,1 km/h (4 Bft)
25.03.2025 16:10 21,9 °C 11,2 °C 45 % 74 % 1017,2 hPa 0,0 l/m² 18,3 km/h (3 Bft) N-NW 330 ° 2 min 241 W/m² 6,7 °C 5,4 °C 22,5 km/h (4 Bft)
25.03.2025 16:12 21,9 °C 11,1 °C 45 % 74 % 1017,1 hPa 0,0 l/m² 12,5 km/h (2 Bft) N-NW 346 ° 2 min 316 W/m² 6,6 °C 7,5 °C 22,5 km/h (4 Bft)
25.03.2025 16:14 21,9 °C 11,2 °C 45 % 75 % 1017,2 hPa 0,0 l/m² 13,8 km/h (3 Bft) NW 326 ° 2 min 329 W/m² 6,9 °C 7,1 °C 20,9 km/h (4 Bft)
25.03.2025 16:16 21,9 °C 11,2 °C 45 % 75 % 1017,2 hPa 0,0 l/m² 11,5 km/h (2 Bft) NW 321 ° 2 min 306 W/m² 6,9 °C 8,1 °C 22,5 km/h (4 Bft)
25.03.2025 16:18 21,9 °C 11,2 °C 45 % 75 % 1017,2 hPa 0,0 l/m² 14,4 km/h (3 Bft) N-NO 17 ° 2 min 304 W/m² 6,9 °C 6,8 °C 20,9 km/h (4 Bft)
25.03.2025 16:20 21,9 °C 11,2 °C 45 % 75 % 1017,2 hPa 0,0 l/m² 15,5 km/h (3 Bft) NW 325 ° 2 min 302 W/m² 6,9 °C 6,4 °C 20,9 km/h (4 Bft)
25.03.2025 16:22 21,9 °C 11,1 °C 45 % 74 % 1017,2 hPa 0,0 l/m² 15,4 km/h (3 Bft) N-NW 345 ° 2 min 276 W/m² 6,6 °C 6,3 °C 24,1 km/h (4 Bft)
25.03.2025 16:24 21,9 °C 11,1 °C 45 % 75 % 1017,2 hPa 0,0 l/m² 15,1 km/h (3 Bft) N-NW 335 ° 2 min 272 W/m² 6,8 °C 6,4 °C 22,5 km/h (4 Bft)
25.03.2025 16:26 21,9 °C 11,0 °C 45 % 75 % 1017,3 hPa 0,0 l/m² 16,9 km/h (3 Bft) N-NW 332 ° 2 min 260 W/m² 6,7 °C 5,6 °C 22,5 km/h (4 Bft)
25.03.2025 16:28 21,9 °C 10,9 °C 45 % 75 % 1017,2 hPa 0,0 l/m² 13,7 km/h (3 Bft) N 360 ° 2 min 241 W/m² 6,6 °C 6,8 °C 20,9 km/h (4 Bft)
25.03.2025 16:30 21,9 °C 10,9 °C 45 % 75 % 1017,2 hPa 0,0 l/m² 10,4 km/h (2 Bft) NW 307 ° 2 min 207 W/m² 6,6 °C 8,4 °C 20,9 km/h (4 Bft)
25.03.2025 16:32 21,9 °C 10,8 °C 45 % 75 % 1017,2 hPa 0,0 l/m² 13,1 km/h (3 Bft) NW 308 ° 2 min 190 W/m² 6,5 °C 6,9 °C 20,9 km/h (4 Bft)
25.03.2025 16:33 21,9 °C 10,8 °C 45 % 75 % 1017,3 hPa 0,0 l/m² 12,6 km/h (3 Bft) NW 306 ° 1 min 218 W/m² 6,5 °C 7,1 °C 17,7 km/h (3 Bft)
25.03.2025 16:34 21,9 °C 10,7 °C 45 % 75 % 1017,2 hPa 0,0 l/m² 11,8 km/h (2 Bft) N-NW 342 ° 1 min 207 W/m² 6,5 °C 7,4 °C 14,5 km/h (3 Bft)
25.03.2025 16:36 21,9 °C 10,7 °C 45 % 76 % 1017,3 hPa 0,0 l/m² 14,1 km/h (3 Bft) W-NW 286 ° 2 min 179 W/m² 6,6 °C 6,4 °C 22,5 km/h (4 Bft)
25.03.2025 16:38 21,9 °C 10,7 °C 45 % 76 % 1017,2 hPa 0,0 l/m² 11,8 km/h (2 Bft) NW 320 ° 2 min 178 W/m² 6,6 °C 7,4 °C 22,5 km/h (4 Bft)
25.03.2025 16:40 21,9 °C 10,6 °C 45 % 76 % 1017,3 hPa 0,0 l/m² 13,1 km/h (3 Bft) W-NW 302 ° 2 min 181 W/m² 6,5 °C 6,7 °C 20,9 km/h (4 Bft)
25.03.2025 16:42 21,9 °C 10,5 °C 45 % 76 % 1017,3 hPa 0,0 l/m² 13,0 km/h (3 Bft) NW 308 ° 2 min 156 W/m² 6,5 °C 6,6 °C 19,3 km/h (3 Bft)
25.03.2025 16:43 21,9 °C 10,5 °C 45 % 76 % 1017,3 hPa 0,0 l/m² 9,7 km/h (2 Bft) NW 311 ° 1 min 149 W/m² 6,5 °C 8,3 °C 24,1 km/h (4 Bft)
25.03.2025 16:44 21,9 °C 10,4 °C 45 % 76 % 1017,3 hPa 0,0 l/m² 15,0 km/h (3 Bft) N-NW 345 ° 1 min 142 W/m² 6,4 °C 5,6 °C 19,3 km/h (3 Bft)
25.03.2025 16:46 21,9 °C 10,4 °C 45 % 77 % 1017,3 hPa 0,0 l/m² 15,6 km/h (3 Bft) N-NW 336 ° 2 min 121 W/m² 6,5 °C 5,4 °C 22,5 km/h (4 Bft)
25.03.2025 16:48 21,9 °C 10,3 °C 45 % 77 % 1017,4 hPa 0,0 l/m² 15,8 km/h (3 Bft) NW 325 ° 2 min 123 W/m² 6,4 °C 5,2 °C 22,5 km/h (4 Bft)
25.03.2025 16:50 21,9 °C 10,2 °C 45 % 77 % 1017,3 hPa 0,0 l/m² 13,1 km/h (3 Bft) W-NW 301 ° 2 min 148 W/m² 6,4 °C 6,2 °C 20,9 km/h (4 Bft)
25.03.2025 16:52 21,8 °C 10,2 °C 45 % 77 % 1017,3 hPa 0,0 l/m² 12,8 km/h (3 Bft) N 11 ° 2 min 169 W/m² 6,4 °C 6,4 °C 19,3 km/h (3 Bft)
25.03.2025 16:54 21,9 °C 10,2 °C 45 % 78 % 1017,4 hPa 0,0 l/m² 14,2 km/h (3 Bft) NW 313 ° 2 min 176 W/m² 6,5 °C 5,7 °C 22,5 km/h (4 Bft)
25.03.2025 16:56 21,9 °C 10,2 °C 45 % 78 % 1017,4 hPa 0,0 l/m² 12,3 km/h (2 Bft) W-NW 303 ° 2 min 186 W/m² 6,5 °C 6,6 °C 24,1 km/h (4 Bft)
25.03.2025 16:58 21,9 °C 10,2 °C 46 % 78 % 1017,4 hPa 0,0 l/m² 13,4 km/h (3 Bft) N-NW 340 ° 2 min 169 W/m² 6,5 °C 6,1 °C 20,9 km/h (4 Bft)
25.03.2025 17:00 21,9 °C 10,2 °C 46 % 77 % 1017,3 hPa 0,0 l/m² 16,1 km/h (3 Bft) NW 320 ° 2 min 156 W/m² 6,4 °C 4,9 °C 25,7 km/h (4 Bft)
25.03.2025 17:02 21,9 °C 10,1 °C 46 % 77 % 1017,3 hPa 0,0 l/m² 15,3 km/h (3 Bft) N-NW 346 ° 2 min 148 W/m² 6,3 °C 5,1 °C 24,1 km/h (4 Bft)
25.03.2025 17:04 21,9 °C 9,9 °C 46 % 77 % 1017,3 hPa 0,0 l/m² 13,1 km/h (3 Bft) NW 313 ° 2 min 139 W/m² 6,1 °C 5,9 °C 20,9 km/h (4 Bft)
25.03.2025 17:06 21,9 °C 9,8 °C 46 % 78 % 1017,4 hPa 0,0 l/m² 15,2 km/h (3 Bft) NW 325 ° 2 min 130 W/m² 6,1 °C 4,8 °C 24,1 km/h (4 Bft)
25.03.2025 17:08 21,9 °C 9,8 °C 46 % 78 % 1017,3 hPa 0,0 l/m² 12,3 km/h (2 Bft) NW 308 ° 2 min 127 W/m² 6,1 °C 6,1 °C 22,5 km/h (4 Bft)
25.03.2025 17:10 21,9 °C 9,8 °C 46 % 78 % 1017,4 hPa 0,0 l/m² 12,8 km/h (3 Bft) NW 314 ° 2 min 127 W/m² 6,1 °C 5,9 °C 22,5 km/h (4 Bft)
25.03.2025 17:12 21,9 °C 9,8 °C 46 % 78 % 1017,4 hPa 0,0 l/m² 12,0 km/h (2 Bft) NW 316 ° 2 min 123 W/m² 6,1 °C 6,3 °C 19,3 km/h (3 Bft)
25.03.2025 17:14 21,8 °C 9,8 °C 46 % 79 % 1017,4 hPa 0,0 l/m² 8,9 km/h (2 Bft) W-NW 300 ° 2 min 111 W/m² 6,3 °C 8,0 °C 16,1 km/h (3 Bft)
25.03.2025 17:16 21,8 °C 9,7 °C 46 % 79 % 1017,3 hPa 0,0 l/m² 13,3 km/h (3 Bft) N-NW 344 ° 2 min 105 W/m² 6,2 °C 5,5 °C 25,7 km/h (4 Bft)
25.03.2025 17:18 21,9 °C 9,6 °C 46 % 78 % 1017,4 hPa 0,0 l/m² 12,5 km/h (2 Bft) W-NW 302 ° 2 min 97 W/m² 6,0 °C 5,8 °C 19,3 km/h (3 Bft)
25.03.2025 17:20 21,9 °C 9,5 °C 46 % 79 % 1017,3 hPa 0,0 l/m² 9,6 km/h (2 Bft) NW 314 ° 2 min 95 W/m² 6,0 °C 7,3 °C 20,9 km/h (4 Bft)
25.03.2025 17:22 21,8 °C 9,4 °C 46 % 79 % 1017,4 hPa 0,0 l/m² 12,6 km/h (3 Bft) N-NW 332 ° 2 min 91 W/m² 5,9 °C 5,5 °C 24,1 km/h (4 Bft)
25.03.2025 17:23 21,9 °C 9,4 °C 46 % 79 % 1017,4 hPa 0,0 l/m² 10,7 km/h (2 Bft) NW 314 ° 1 min 91 W/m² 5,9 °C 6,5 °C 16,1 km/h (3 Bft)
25.03.2025 17:24 21,9 °C 9,4 °C 46 % 79 % 1017,4 hPa 0,0 l/m² 13,9 km/h (3 Bft) NW 322 ° 1 min 88 W/m² 5,9 °C 4,9 °C 17,7 km/h (3 Bft)
25.03.2025 17:26 21,9 °C 9,3 °C 46 % 79 % 1017,4 hPa 0,0 l/m² 12,8 km/h (3 Bft) N-NW 333 ° 2 min 81 W/m² 5,8 °C 5,3 °C 19,3 km/h (3 Bft)
25.03.2025 17:28 21,8 °C 9,2 °C 46 % 79 % 1017,3 hPa 0,0 l/m² 10,9 km/h (2 Bft) N-NW 327 ° 2 min 79 W/m² 5,8 °C 6,2 °C 19,3 km/h (3 Bft)
25.03.2025 17:30 21,8 °C 9,2 °C 46 % 79 % 1017,4 hPa 0,0 l/m² 13,3 km/h (3 Bft) NW 325 ° 2 min 77 W/m² 5,8 °C 4,9 °C 22,5 km/h (4 Bft)
25.03.2025 17:32 21,8 °C 9,1 °C 46 % 79 % 1017,4 hPa 0,0 l/m² 12,1 km/h (2 Bft) NW 319 ° 2 min 74 W/m² 5,7 °C 5,4 °C 19,3 km/h (3 Bft)
25.03.2025 17:34 21,8 °C 9,1 °C 46 % 80 % 1017,4 hPa 0,0 l/m² 10,6 km/h (2 Bft) N-NW 327 ° 2 min 72 W/m² 5,8 °C 6,2 °C 19,3 km/h (3 Bft)
25.03.2025 17:36 21,8 °C 9,0 °C 46 % 80 % 1017,3 hPa 0,0 l/m² 9,6 km/h (2 Bft) NW 317 ° 2 min 69 W/m² 5,7 °C 6,7 °C 16,1 km/h (3 Bft)
25.03.2025 17:38 21,9 °C 8,9 °C 46 % 80 % 1017,4 hPa 0,0 l/m² 7,2 km/h (2 Bft) NW 321 ° 2 min 63 W/m² 5,6 °C 8,3 °C 12,9 km/h (3 Bft)
25.03.2025 17:40 21,8 °C 8,9 °C 46 % 80 % 1017,3 hPa 0,0 l/m² 7,1 km/h (2 Bft) N-NW 329 ° 2 min 62 W/m² 5,6 °C 8,4 °C 12,9 km/h (3 Bft)
25.03.2025 17:42 21,8 °C 8,9 °C 46 % 80 % 1017,3 hPa 0,0 l/m² 6,8 km/h (2 Bft) NW 307 ° 2 min 58 W/m² 5,6 °C 8,6 °C 14,5 km/h (3 Bft)
25.03.2025 17:44 21,8 °C 8,8 °C 46 % 81 % 1017,3 hPa 0,0 l/m² 7,4 km/h (2 Bft) NW 317 ° 2 min 54 W/m² 5,7 °C 8,0 °C 12,9 km/h (3 Bft)
25.03.2025 17:46 21,8 °C 8,8 °C 46 % 81 % 1017,3 hPa 0,0 l/m² 5,2 km/h (1 Bft) NW 317 ° 0 min 51 W/m² 5,7 °C 8,8 °C 9,7 km/h (2 Bft)
25.03.2025 17:48 21,8 °C 8,7 °C 46 % 81 % 1017,4 hPa 0,0 l/m² 7,9 km/h (2 Bft) NW 324 ° 0 min 47 W/m² 5,6 °C 7,6 °C 14,5 km/h (3 Bft)
25.03.2025 17:50 21,8 °C 8,7 °C 46 % 81 % 1017,3 hPa 0,0 l/m² 7,5 km/h (2 Bft) NW 307 ° 0 min 44 W/m² 5,6 °C 7,9 °C 12,9 km/h (3 Bft)
25.03.2025 17:52 21,8 °C 8,6 °C 46 % 81 % 1017,4 hPa 0,0 l/m² 10,6 km/h (2 Bft) NW 322 ° 0 min 42 W/m² 5,5 °C 5,7 °C 17,7 km/h (3 Bft)
25.03.2025 17:54 21,8 °C 8,6 °C 46 % 81 % 1017,3 hPa 0,0 l/m² 6,7 km/h (2 Bft) W-NW 289 ° 0 min 39 W/m² 5,5 °C 8,4 °C 9,7 km/h (2 Bft)
25.03.2025 17:56 21,8 °C 8,5 °C 46 % 81 % 1017,4 hPa 0,0 l/m² 5,2 km/h (1 Bft) NW 306 ° 0 min 35 W/m² 5,4 °C 8,5 °C 12,9 km/h (3 Bft)
25.03.2025 17:58 21,8 °C 8,4 °C 46 % 81 % 1017,5 hPa 0,0 l/m² 5,9 km/h (2 Bft) N-NW 331 ° 0 min 30 W/m² 5,3 °C 8,4 °C 14,5 km/h (3 Bft)
25.03.2025 18:00 21,8 °C 8,3 °C 46 % 81 % 1017,5 hPa 0,0 l/m² 6,0 km/h (2 Bft) W-NW 303 ° 0 min 28 W/m² 5,2 °C 8,3 °C 8,0 km/h (2 Bft)
25.03.2025 18:02 21,8 °C 8,3 °C 46 % 81 % 1017,6 hPa 0,0 l/m² 2,3 km/h (1 Bft) NW 311 ° 0 min 28 W/m² 5,2 °C 8,3 °C 4,8 km/h (1 Bft)
25.03.2025 18:03 21,8 °C 8,2 °C 46 % 81 % 1017,6 hPa 0,0 l/m² 3,8 km/h (1 Bft) W-NW 286 ° 0 min 26 W/m² 5,1 °C 8,2 °C 6,4 km/h (2 Bft)
25.03.2025 18:04 21,8 °C 8,2 °C 46 % 81 % 1017,6 hPa 0,0 l/m² 0,8 km/h (0 Bft) W-NW 286 ° 0 min 26 W/m² 5,1 °C 8,2 °C 3,2 km/h (1 Bft)
25.03.2025 18:06 21,8 °C 8,1 °C 46 % 82 % 1017,6 hPa 0,0 l/m² 2,2 km/h (1 Bft) W-NW 290 ° 0 min 25 W/m² 5,2 °C 8,1 °C 4,8 km/h (1 Bft)
25.03.2025 18:08 21,8 °C 8,0 °C 46 % 82 % 1017,6 hPa 0,0 l/m² 2,4 km/h (1 Bft) W-NW 287 ° 0 min 16 W/m² 5,1 °C 8,0 °C 4,8 km/h (1 Bft)
25.03.2025 18:10 21,8 °C 8,0 °C 46 % 82 % 1017,6 hPa 0,0 l/m² 2,2 km/h (1 Bft) W 276 ° 0 min 12 W/m² 5,1 °C 8,0 °C 4,8 km/h (1 Bft)
25.03.2025 18:12 21,8 °C 7,9 °C 46 % 82 % 1017,6 hPa 0,0 l/m² 3,7 km/h (1 Bft) W-NW 288 ° 0 min 11 W/m² 5,0 °C 7,9 °C 6,4 km/h (2 Bft)
25.03.2025 18:14 21,8 °C 7,8 °C 46 % 82 % 1017,6 hPa 0,0 l/m² 2,6 km/h (1 Bft) W-NW 292 ° 0 min 12 W/m² 4,9 °C 7,8 °C 4,8 km/h (1 Bft)
25.03.2025 18:16 21,8 °C 7,8 °C 46 % 82 % 1017,7 hPa 0,0 l/m² 2,4 km/h (1 Bft) W-NW 292 ° 0 min 12 W/m² 4,9 °C 7,8 °C 4,8 km/h (1 Bft)
25.03.2025 18:18 21,8 °C 7,7 °C 46 % 82 % 1017,8 hPa 0,0 l/m² 1,5 km/h (1 Bft) W-NW 292 ° 0 min 12 W/m² 4,8 °C 7,7 °C 3,2 km/h (1 Bft)
25.03.2025 18:20 21,8 °C 7,5 °C 46 % 82 % 1017,7 hPa 0,0 l/m² 1,2 km/h (1 Bft) W-NW 292 ° 0 min 9 W/m² 4,6 °C 7,5 °C 3,2 km/h (1 Bft)
25.03.2025 18:22 21,8 °C 7,1 °C 47 % 82 % 1017,8 hPa 0,0 l/m² 2,6 km/h (1 Bft) W-NW 282 ° 0 min 7 W/m² 4,2 °C 7,1 °C 4,8 km/h (1 Bft)
25.03.2025 18:24 21,8 °C 6,8 °C 47 % 83 % 1017,7 hPa 0,0 l/m² 2,4 km/h (1 Bft) W 281 ° 0 min 7 W/m² 4,1 °C 6,8 °C 4,8 km/h (1 Bft)
25.03.2025 18:26 21,8 °C 6,8 °C 47 % 84 % 1017,8 hPa 0,0 l/m² 1,0 km/h (0 Bft) W 281 ° 0 min 5 W/m² 4,3 °C 6,8 °C 4,8 km/h (1 Bft)
25.03.2025 18:28 21,8 °C 6,8 °C 47 % 85 % 1017,8 hPa 0,0 l/m² 1,9 km/h (1 Bft) W 281 ° 0 min 5 W/m² 4,5 °C 6,8 °C 3,2 km/h (1 Bft)
25.03.2025 18:30 21,8 °C 6,9 °C 47 % 85 % 1017,7 hPa 0,0 l/m² 0,7 km/h (0 Bft) W 281 ° 0 min 5 W/m² 4,6 °C 6,9 °C 3,2 km/h (1 Bft)
25.03.2025 18:32 21,9 °C 6,9 °C 47 % 85 % 1017,8 hPa 0,0 l/m² 1,2 km/h (1 Bft) W 281 ° 0 min 0 W/m² 4,6 °C 6,9 °C 4,8 km/h (1 Bft)
25.03.2025 18:34 21,8 °C 7,0 °C 47 % 85 % 1017,9 hPa 0,0 l/m² 1,5 km/h (1 Bft) W 281 ° 0 min 0 W/m² 4,7 °C 7,0 °C 4,8 km/h (1 Bft)
25.03.2025 18:36 21,9 °C 7,1 °C 47 % 85 % 1017,9 hPa 0,0 l/m² 1,0 km/h (0 Bft) W-NW 288 ° 0 min 0 W/m² 4,8 °C 7,1 °C 4,8 km/h (1 Bft)
25.03.2025 18:38 21,9 °C 7,1 °C 47 % 85 % 1017,9 hPa 0,0 l/m² 0,3 km/h (0 Bft) W-NW 288 ° 0 min 0 W/m² 4,8 °C 7,1 °C 3,2 km/h (1 Bft)
25.03.2025 18:40 21,9 °C 6,9 °C 47 % 85 % 1017,9 hPa 0,0 l/m² 0,8 km/h (0 Bft) W 270 ° 0 min 0 W/m² 4,6 °C 6,9 °C 3,2 km/h (1 Bft)
25.03.2025 18:42 21,9 °C 6,9 °C 47 % 85 % 1018,0 hPa 0,0 l/m² 0,1 km/h (0 Bft) W 270 ° 0 min 0 W/m² 4,6 °C 6,9 °C 1,6 km/h (1 Bft)
25.03.2025 18:44 21,9 °C 6,8 °C 47 % 85 % 1018,0 hPa 0,0 l/m² 0,1 km/h (0 Bft) W 270 ° 0 min 0 W/m² 4,5 °C 6,8 °C 1,6 km/h (1 Bft)
25.03.2025 18:46 21,9 °C 6,8 °C 47 % 85 % 1018,0 hPa 0,0 l/m² 0,0 km/h (0 Bft) W 271 ° 0 min 0 W/m² 4,5 °C 6,8 °C 0,0 km/h (0 Bft)
25.03.2025 18:47 21,9 °C 6,8 °C 47 % 84 % 1018,0 hPa 0,0 l/m² 0,0 km/h (0 Bft) W 271 ° 0 min 0 W/m² 4,3 °C 6,8 °C 0,0 km/h (0 Bft)
25.03.2025 18:48 21,9 °C 6,7 °C 47 % 85 % 1018,0 hPa 0,0 l/m² 0,0 km/h (0 Bft) W 270 ° 0 min 0 W/m² 4,4 °C 6,7 °C 0,0 km/h (0 Bft)
25.03.2025 18:50 21,9 °C 6,6 °C 47 % 85 % 1018,1 hPa 0,0 l/m² 0,0 km/h (0 Bft) W 271 ° 0 min 0 W/m² 4,3 °C 6,6 °C 0,0 km/h (0 Bft)
25.03.2025 18:52 21,9 °C 6,4 °C 47 % 84 % 1018,1 hPa 0,0 l/m² 0,0 km/h (0 Bft) W 271 ° 0 min 0 W/m² 3,9 °C 6,4 °C 0,0 km/h (0 Bft)
25.03.2025 18:54 21,9 °C 6,3 °C 47 % 85 % 1018,2 hPa 0,0 l/m² 0,0 km/h (0 Bft) W 271 ° 0 min 0 W/m² 4,0 °C 6,3 °C 0,0 km/h (0 Bft)
25.03.2025 18:56 21,9 °C 6,2 °C 47 % 85 % 1018,2 hPa 0,0 l/m² 0,0 km/h (0 Bft) W 271 ° 0 min 0 W/m² 3,9 °C 6,2 °C 0,0 km/h (0 Bft)
25.03.2025 18:58 21,9 °C 6,1 °C 47 % 86 % 1018,2 hPa 0,0 l/m² 0,0 km/h (0 Bft) W 270 ° 0 min 0 W/m² 3,9 °C 6,1 °C 1,6 km/h (1 Bft)
25.03.2025 19:00 21,9 °C 6,1 °C 47 % 86 % 1018,2 hPa 0,0 l/m² 0,0 km/h (0 Bft) W 271 ° 0 min 0 W/m² 3,9 °C 6,1 °C 0,0 km/h (0 Bft)
25.03.2025 19:02 21,9 °C 5,9 °C 47 % 86 % 1018,2 hPa 0,0 l/m² 0,1 km/h (0 Bft) W 271 ° 0 min 0 W/m² 3,7 °C 5,9 °C 1,6 km/h (1 Bft)
25.03.2025 19:04 21,8 °C 5,9 °C 47 % 86 % 1018,2 hPa 0,0 l/m² 0,3 km/h (0 Bft) W 271 ° 0 min 0 W/m² 3,7 °C 5,9 °C 1,6 km/h (1 Bft)
25.03.2025 19:06 21,9 °C 5,9 °C 47 % 86 % 1018,3 hPa 0,0 l/m² 0,0 km/h (0 Bft) W 271 ° 0 min 0 W/m² 3,7 °C 5,9 °C 0,0 km/h (0 Bft)
25.03.2025 19:08 21,9 °C 5,9 °C 47 % 86 % 1018,3 hPa 0,0 l/m² 0,4 km/h (0 Bft) W 271 ° 0 min 0 W/m² 3,7 °C 5,9 °C 1,6 km/h (1 Bft)
25.03.2025 19:10 21,9 °C 5,9 °C 47 % 86 % 1018,3 hPa 0,0 l/m² 1,3 km/h (1 Bft) W 270 ° 0 min 0 W/m² 3,7 °C 5,9 °C 3,2 km/h (1 Bft)
25.03.2025 19:12 21,9 °C 5,9 °C 47 % 86 % 1018,4 hPa 0,0 l/m² 0,0 km/h (0 Bft) W 271 ° 0 min 0 W/m² 3,7 °C 5,9 °C 0,0 km/h (0 Bft)
25.03.2025 19:14 21,9 °C 5,9 °C 47 % 86 % 1018,4 hPa 0,0 l/m² 0,0 km/h (0 Bft) W 271 ° 0 min 0 W/m² 3,7 °C 5,9 °C 0,0 km/h (0 Bft)
25.03.2025 19:16 21,9 °C 5,8 °C 47 % 86 % 1018,4 hPa 0,0 l/m² 0,0 km/h (0 Bft) W 271 ° 0 min 0 W/m² 3,6 °C 5,8 °C 0,0 km/h (0 Bft)
25.03.2025 19:18 21,9 °C 5,8 °C 47 % 86 % 1018,3 hPa 0,0 l/m² 0,0 km/h (0 Bft) W 271 ° 0 min 0 W/m² 3,6 °C 5,8 °C 0,0 km/h (0 Bft)
25.03.2025 19:20 21,9 °C 5,7 °C 47 % 86 % 1018,4 hPa 0,0 l/m² 0,0 km/h (0 Bft) W 271 ° 0 min 0 W/m² 3,5 °C 5,7 °C 0,0 km/h (0 Bft)
25.03.2025 19:22 21,9 °C 5,6 °C 47 % 86 % 1018,4 hPa 0,0 l/m² 0,0 km/h (0 Bft) W 271 ° 0 min 0 W/m² 3,4 °C 5,6 °C 0,0 km/h (0 Bft)
25.03.2025 19:24 21,9 °C 5,3 °C 47 % 85 % 1018,4 hPa 0,0 l/m² 0,0 km/h (0 Bft) W 271 ° 0 min 0 W/m² 3,0 °C 5,3 °C 0,0 km/h (0 Bft)
25.03.2025 19:26 21,9 °C 5,2 °C 47 % 86 % 1018,5 hPa 0,0 l/m² 0,0 km/h (0 Bft) W 271 ° 0 min 0 W/m² 3,1 °C 5,2 °C 0,0 km/h (0 Bft)
25.03.2025 19:28 21,9 °C 5,1 °C 48 % 86 % 1018,5 hPa 0,0 l/m² 0,0 km/h (0 Bft) W 271 ° 0 min 0 W/m² 3,0 °C 5,1 °C 0,0 km/h (0 Bft)
25.03.2025 19:30 21,9 °C 5,1 °C 48 % 87 % 1018,6 hPa 0,0 l/m² 0,4 km/h (0 Bft) W 270 ° 0 min 0 W/m² 3,1 °C 5,1 °C 3,2 km/h (1 Bft)
25.03.2025 19:32 21,9 °C 5,1 °C 48 % 87 % 1018,5 hPa 0,0 l/m² 0,0 km/h (0 Bft) W 271 ° 0 min 0 W/m² 3,1 °C 5,1 °C 0,0 km/h (0 Bft)
25.03.2025 19:34 21,9 °C 5,0 °C 48 % 87 % 1018,6 hPa 0,0 l/m² 0,0 km/h (0 Bft) W 271 ° 0 min 0 W/m² 3,0 °C 5,0 °C 0,0 km/h (0 Bft)
25.03.2025 19:36 21,9 °C 5,0 °C 48 % 87 % 1018,6 hPa 0,0 l/m² 0,0 km/h (0 Bft) W 271 ° 0 min 0 W/m² 3,0 °C 5,0 °C 0,0 km/h (0 Bft)
25.03.2025 19:38 21,9 °C 4,9 °C 48 % 87 % 1018,6 hPa 0,0 l/m² 0,0 km/h (0 Bft) W 271 ° 0 min 0 W/m² 2,9 °C 4,9 °C 1,6 km/h (1 Bft)
25.03.2025 19:40 21,9 °C 4,8 °C 48 % 88 % 1018,7 hPa 0,0 l/m² 0,0 km/h (0 Bft) W 271 ° 0 min 0 W/m² 3,0 °C 4,8 °C 0,0 km/h (0 Bft)
25.03.2025 19:42 21,9 °C 4,7 °C 48 % 87 % 1018,7 hPa 0,0 l/m² 0,0 km/h (0 Bft) W 271 ° 0 min 0 W/m² 2,7 °C 4,7 °C 0,0 km/h (0 Bft)
25.03.2025 19:44 21,9 °C 4,6 °C 48 % 87 % 1018,7 hPa 0,0 l/m² 0,0 km/h (0 Bft) W 271 ° 0 min 0 W/m² 2,6 °C 4,6 °C 0,0 km/h (0 Bft)
25.03.2025 19:46 22,0 °C 4,6 °C 48 % 88 % 1018,7 hPa 0,0 l/m² 0,0 km/h (0 Bft) W 271 ° 0 min 0 W/m² 2,8 °C 4,6 °C 0,0 km/h (0 Bft)
25.03.2025 19:47 22,0 °C 4,5 °C 48 % 88 % 1018,7 hPa 0,0 l/m² 0,0 km/h (0 Bft) W 271 ° 0 min 0 W/m² 2,7 °C 4,5 °C 0,0 km/h (0 Bft)
25.03.2025 19:48 22,0 °C 4,5 °C 48 % 88 % 1018,7 hPa 0,0 l/m² 0,0 km/h (0 Bft) W 271 ° 0 min 0 W/m² 2,7 °C 4,5 °C 0,0 km/h (0 Bft)
25.03.2025 19:50 22,0 °C 4,6 °C 48 % 89 % 1018,6 hPa 0,0 l/m² 0,0 km/h (0 Bft) W 271 ° 0 min 0 W/m² 2,9 °C 4,6 °C 0,0 km/h (0 Bft)
25.03.2025 19:52 22,0 °C 4,7 °C 48 % 89 % 1018,7 hPa 0,0 l/m² 0,0 km/h (0 Bft) W 271 ° 0 min 0 W/m² 3,0 °C 4,7 °C 0,0 km/h (0 Bft)
25.03.2025 19:54 22,0 °C 4,7 °C 48 % 89 % 1018,7 hPa 0,0 l/m² 0,0 km/h (0 Bft) W 271 ° 0 min 0 W/m² 3,0 °C 4,7 °C 0,0 km/h (0 Bft)
25.03.2025 19:56 22,0 °C 4,7 °C 48 % 89 % 1018,8 hPa 0,0 l/m² 0,0 km/h (0 Bft) W 271 ° 0 min 0 W/m² 3,0 °C 4,7 °C 0,0 km/h (0 Bft)
25.03.2025 19:58 22,0 °C 4,7 °C 48 % 88 % 1018,8 hPa 0,0 l/m² 0,0 km/h (0 Bft) W 271 ° 0 min 0 W/m² 2,9 °C 4,7 °C 0,0 km/h (0 Bft)
25.03.2025 20:00 22,0 °C 4,6 °C 48 % 89 % 1018,8 hPa 0,0 l/m² 0,0 km/h (0 Bft) W 270 ° 0 min 0 W/m² 2,9 °C 4,6 °C 0,0 km/h (0 Bft)
25.03.2025 20:02 22,0 °C 4,6 °C 48 % 89 % 1018,8 hPa 0,0 l/m² 0,0 km/h (0 Bft) W 271 ° 0 min 0 W/m² 2,9 °C 4,6 °C 0,0 km/h (0 Bft)
25.03.2025 20:04 22,1 °C 4,7 °C 48 % 89 % 1018,8 hPa 0,0 l/m² 0,0 km/h (0 Bft) W 271 ° 0 min 0 W/m² 3,0 °C 4,7 °C 0,0 km/h (0 Bft)
25.03.2025 20:06 22,1 °C 4,8 °C 49 % 89 % 1018,8 hPa 0,0 l/m² 0,0 km/h (0 Bft) W 271 ° 0 min 0 W/m² 3,1 °C 4,8 °C 0,0 km/h (0 Bft)
25.03.2025 20:07 22,1 °C 4,8 °C 49 % 89 % 1018,9 hPa 0,0 l/m² 0,0 km/h (0 Bft) W 271 ° 0 min 0 W/m² 3,1 °C 4,8 °C 0,0 km/h (0 Bft)
25.03.2025 20:08 22,1 °C 4,8 °C 49 % 89 % 1018,9 hPa 0,0 l/m² 0,0 km/h (0 Bft) W 271 ° 0 min 0 W/m² 3,1 °C 4,8 °C 0,0 km/h (0 Bft)
25.03.2025 20:09 22,1 °C 4,8 °C 49 % 89 % 1018,9 hPa 0,0 l/m² 0,0 km/h (0 Bft) W 271 ° 0 min 0 W/m² 3,1 °C 4,8 °C 0,0 km/h (0 Bft)
25.03.2025 20:11 22,1 °C 4,8 °C 48 % 89 % 1018,8 hPa 0,0 l/m² 0,0 km/h (0 Bft) W 271 ° 0 min 0 W/m² 3,1 °C 4,8 °C 0,0 km/h (0 Bft)
25.03.2025 20:13 22,1 °C 4,8 °C 48 % 89 % 1018,9 hPa 0,0 l/m² 0,0 km/h (0 Bft) W 270 ° 0 min 0 W/m² 3,1 °C 4,8 °C 0,0 km/h (0 Bft)
25.03.2025 20:15 22,1 °C 4,9 °C 48 % 89 % 1018,9 hPa 0,0 l/m² 0,0 km/h (0 Bft) W 271 ° 0 min 0 W/m² 3,2 °C 4,9 °C 0,0 km/h (0 Bft)
25.03.2025 20:17 22,1 °C 4,9 °C 48 % 89 % 1018,9 hPa 0,0 l/m² 0,0 km/h (0 Bft) W 271 ° 0 min 0 W/m² 3,2 °C 4,9 °C 0,0 km/h (0 Bft)
25.03.2025 20:19 22,1 °C 4,9 °C 48 % 89 % 1018,8 hPa 0,0 l/m² 0,0 km/h (0 Bft) W 271 ° 0 min 0 W/m² 3,2 °C 4,9 °C 0,0 km/h (0 Bft)
25.03.2025 20:21 22,1 °C 4,9 °C 48 % 89 % 1018,9 hPa 0,0 l/m² 0,0 km/h (0 Bft) W 271 ° 0 min 0 W/m² 3,2 °C 4,9 °C 0,0 km/h (0 Bft)
25.03.2025 20:23 22,1 °C 4,9 °C 48 % 89 % 1018,9 hPa 0,0 l/m² 0,0 km/h (0 Bft) W 271 ° 0 min 0 W/m² 3,2 °C 4,9 °C 0,0 km/h (0 Bft)
25.03.2025 20:25 22,1 °C 4,9 °C 48 % 89 % 1018,8 hPa 0,0 l/m² 0,0 km/h (0 Bft) W 270 ° 0 min 0 W/m² 3,2 °C 4,9 °C 0,0 km/h (0 Bft)
25.03.2025 20:27 22,1 °C 4,9 °C 48 % 89 % 1018,9 hPa 0,0 l/m² 0,0 km/h (0 Bft) W 271 ° 0 min 0 W/m² 3,2 °C 4,9 °C 0,0 km/h (0 Bft)
25.03.2025 20:28 22,1 °C 5,0 °C 48 % 89 % 1018,9 hPa 0,0 l/m² 0,0 km/h (0 Bft) W 271 ° 0 min 0 W/m² 3,3 °C 5,0 °C 0,0 km/h (0 Bft)
25.03.2025 20:29 22,1 °C 5,0 °C 48 % 89 % 1018,9 hPa 0,0 l/m² 0,0 km/h (0 Bft) W 271 ° 0 min 0 W/m² 3,3 °C 5,0 °C 0,0 km/h (0 Bft)
25.03.2025 20:31 22,1 °C 5,1 °C 48 % 89 % 1018,9 hPa 0,0 l/m² 0,0 km/h (0 Bft) W 271 ° 0 min 0 W/m² 3,4 °C 5,1 °C 0,0 km/h (0 Bft)
25.03.2025 20:33 22,1 °C 5,1 °C 48 % 89 % 1018,9 hPa 0,0 l/m² 0,0 km/h (0 Bft) W 271 ° 0 min 0 W/m² 3,4 °C 5,1 °C 0,0 km/h (0 Bft)
25.03.2025 20:35 22,1 °C 5,1 °C 48 % 89 % 1018,8 hPa 0,0 l/m² 0,0 km/h (0 Bft) W 271 ° 0 min 0 W/m² 3,4 °C 5,1 °C 0,0 km/h (0 Bft)
25.03.2025 20:37 22,1 °C 5,2 °C 48 % 90 % 1018,8 hPa 0,0 l/m² 0,0 km/h (0 Bft) W 271 ° 0 min 0 W/m² 3,7 °C 5,2 °C 0,0 km/h (0 Bft)
25.03.2025 20:39 22,1 °C 5,2 °C 48 % 90 % 1018,8 hPa 0,0 l/m² 0,2 km/h (0 Bft) W 271 ° 0 min 0 W/m² 3,7 °C 5,2 °C 1,6 km/h (1 Bft)
25.03.2025 20:41 22,1 °C 5,2 °C 48 % 90 % 1018,8 hPa 0,0 l/m² 0,6 km/h (0 Bft) W 271 ° 0 min 0 W/m² 3,7 °C 5,2 °C 3,2 km/h (1 Bft)
25.03.2025 20:43 22,1 °C 5,2 °C 48 % 90 % 1018,8 hPa 0,0 l/m² 0,0 km/h (0 Bft) W 271 ° 0 min 0 W/m² 3,7 °C 5,2 °C 0,0 km/h (0 Bft)
25.03.2025 20:45 22,1 °C 5,2 °C 48 % 90 % 1018,7 hPa 0,0 l/m² 0,0 km/h (0 Bft) W 271 ° 0 min 0 W/m² 3,7 °C 5,2 °C 0,0 km/h (0 Bft)
25.03.2025 20:47 22,1 °C 5,3 °C 48 % 90 % 1018,9 hPa 0,0 l/m² 0,0 km/h (0 Bft) W 271 ° 0 min 0 W/m² 3,8 °C 5,3 °C 0,0 km/h (0 Bft)
25.03.2025 20:49 22,1 °C 5,3 °C 48 % 89 % 1018,9 hPa 0,0 l/m² 0,0 km/h (0 Bft) W 271 ° 0 min 0 W/m² 3,6 °C 5,3 °C 0,0 km/h (0 Bft)
25.03.2025 20:51 22,1 °C 5,3 °C 48 % 89 % 1018,8 hPa 0,0 l/m² 0,0 km/h (0 Bft) W 271 ° 0 min 0 W/m² 3,6 °C 5,3 °C 0,0 km/h (0 Bft)
25.03.2025 20:53 22,1 °C 5,3 °C 48 % 89 % 1018,9 hPa 0,0 l/m² 0,0 km/h (0 Bft) W 271 ° 0 min 0 W/m² 3,6 °C 5,3 °C 0,0 km/h (0 Bft)
25.03.2025 20:55 22,1 °C 5,4 °C 48 % 89 % 1018,9 hPa 0,0 l/m² 0,0 km/h (0 Bft) W 271 ° 0 min 0 W/m² 3,7 °C 5,4 °C 0,0 km/h (0 Bft)
25.03.2025 20:57 22,1 °C 5,4 °C 48 % 89 % 1018,9 hPa 0,0 l/m² 0,0 km/h (0 Bft) W 271 ° 0 min 0 W/m² 3,7 °C 5,4 °C 0,0 km/h (0 Bft)
25.03.2025 20:59 22,1 °C 5,4 °C 48 % 89 % 1018,9 hPa 0,0 l/m² 0,0 km/h (0 Bft) W 271 ° 0 min 0 W/m² 3,7 °C 5,4 °C 0,0 km/h (0 Bft)
25.03.2025 21:01 22,1 °C 5,4 °C 48 % 89 % 1018,9 hPa 0,0 l/m² 0,0 km/h (0 Bft) W 271 ° 0 min 0 W/m² 3,7 °C 5,4 °C 0,0 km/h (0 Bft)
25.03.2025 21:03 22,1 °C 5,5 °C 48 % 89 % 1019,0 hPa 0,0 l/m² 0,0 km/h (0 Bft) W 271 ° 0 min 0 W/m² 3,8 °C 5,5 °C 0,0 km/h (0 Bft)
25.03.2025 21:05 22,1 °C 5,5 °C 48 % 89 % 1018,9 hPa 0,0 l/m² 0,0 km/h (0 Bft) W 271 ° 0 min 0 W/m² 3,8 °C 5,5 °C 0,0 km/h (0 Bft)
25.03.2025 21:07 22,1 °C 5,5 °C 48 % 88 % 1018,9 hPa 0,0 l/m² 0,0 km/h (0 Bft) W 271 ° 0 min 0 W/m² 3,7 °C 5,5 °C 0,0 km/h (0 Bft)
25.03.2025 21:09 22,1 °C 5,5 °C 48 % 88 % 1018,9 hPa 0,0 l/m² 0,0 km/h (0 Bft) W 271 ° 0 min 0 W/m² 3,7 °C 5,5 °C 0,0 km/h (0 Bft)
25.03.2025 21:11 22,1 °C 5,4 °C 48 % 88 % 1018,9 hPa 0,0 l/m² 0,0 km/h (0 Bft) W 271 ° 0 min 0 W/m² 3,6 °C 5,4 °C 0,0 km/h (0 Bft)
25.03.2025 21:13 22,1 °C 5,3 °C 48 % 88 % 1018,9 hPa 0,0 l/m² 0,0 km/h (0 Bft) W 271 ° 0 min 0 W/m² 3,5 °C 5,3 °C 0,0 km/h (0 Bft)
25.03.2025 21:15 22,1 °C 5,2 °C 48 % 88 % 1018,9 hPa 0,0 l/m² 0,0 km/h (0 Bft) W 271 ° 0 min 0 W/m² 3,4 °C 5,2 °C 0,0 km/h (0 Bft)
25.03.2025 21:17 22,1 °C 5,1 °C 48 % 88 % 1018,8 hPa 0,0 l/m² 0,0 km/h (0 Bft) W 271 ° 0 min 0 W/m² 3,3 °C 5,1 °C 0,0 km/h (0 Bft)
25.03.2025 21:19 22,1 °C 5,1 °C 48 % 89 % 1018,9 hPa 0,0 l/m² 0,0 km/h (0 Bft) W 271 ° 0 min 0 W/m² 3,4 °C 5,1 °C 0,0 km/h (0 Bft)
25.03.2025 21:21 22,1 °C 4,9 °C 48 % 89 % 1018,9 hPa 0,0 l/m² 0,0 km/h (0 Bft) W 271 ° 0 min 0 W/m² 3,2 °C 4,9 °C 0,0 km/h (0 Bft)
25.03.2025 21:23 22,1 °C 4,9 °C 48 % 89 % 1018,9 hPa 0,0 l/m² 0,0 km/h (0 Bft) W 271 ° 0 min 0 W/m² 3,2 °C 4,9 °C 0,0 km/h (0 Bft)
25.03.2025 21:25 22,1 °C 4,9 °C 48 % 89 % 1018,8 hPa 0,0 l/m² 0,0 km/h (0 Bft) W 271 ° 0 min 0 W/m² 3,2 °C 4,9 °C 0,0 km/h (0 Bft)
25.03.2025 21:27 22,1 °C 5,1 °C 48 % 89 % 1018,9 hPa 0,0 l/m² 0,0 km/h (0 Bft) W 271 ° 0 min 0 W/m² 3,4 °C 5,1 °C 0,0 km/h (0 Bft)
25.03.2025 21:29 22,1 °C 5,1 °C 48 % 90 % 1018,8 hPa 0,0 l/m² 0,0 km/h (0 Bft) W 271 ° 0 min 0 W/m² 3,6 °C 5,1 °C 0,0 km/h (0 Bft)
25.03.2025 21:31 22,1 °C 5,2 °C 48 % 90 % 1018,8 hPa 0,0 l/m² 0,0 km/h (0 Bft) W 271 ° 0 min 0 W/m² 3,7 °C 5,2 °C 0,0 km/h (0 Bft)
25.03.2025 21:33 22,1 °C 5,3 °C 48 % 90 % 1018,8 hPa 0,0 l/m² 0,0 km/h (0 Bft) W 271 ° 0 min 0 W/m² 3,8 °C 5,3 °C 0,0 km/h (0 Bft)
25.03.2025 21:35 22,1 °C 5,3 °C 48 % 90 % 1018,8 hPa 0,0 l/m² 0,0 km/h (0 Bft) W 271 ° 0 min 0 W/m² 3,8 °C 5,3 °C 0,0 km/h (0 Bft)
25.03.2025 21:37 22,1 °C 5,3 °C 48 % 90 % 1018,8 hPa 0,0 l/m² 0,0 km/h (0 Bft) W 271 ° 0 min 0 W/m² 3,8 °C 5,3 °C 0,0 km/h (0 Bft)
25.03.2025 21:39 22,1 °C 5,3 °C 48 % 90 % 1018,8 hPa 0,0 l/m² 0,0 km/h (0 Bft) W 271 ° 0 min 0 W/m² 3,8 °C 5,3 °C 0,0 km/h (0 Bft)
25.03.2025 21:41 22,1 °C 5,4 °C 48 % 89 % 1018,8 hPa 0,0 l/m² 0,0 km/h (0 Bft) W 271 ° 0 min 0 W/m² 3,7 °C 5,4 °C 0,0 km/h (0 Bft)
25.03.2025 21:43 22,1 °C 5,4 °C 48 % 89 % 1018,8 hPa 0,0 l/m² 0,0 km/h (0 Bft) W 271 ° 0 min 0 W/m² 3,7 °C 5,4 °C 0,0 km/h (0 Bft)
25.03.2025 21:44 22,1 °C 5,4 °C 48 % 89 % 1018,8 hPa 0,0 l/m² 0,0 km/h (0 Bft) W 271 ° 0 min 0 W/m² 3,7 °C 5,4 °C 0,0 km/h (0 Bft)
25.03.2025 21:45 22,1 °C 5,4 °C 48 % 89 % 1018,8 hPa 0,0 l/m² 0,0 km/h (0 Bft) W 271 ° 0 min 0 W/m² 3,7 °C 5,4 °C 0,0 km/h (0 Bft)
25.03.2025 21:46 22,1 °C 5,4 °C 48 % 89 % 1018,8 hPa 0,0 l/m² 0,0 km/h (0 Bft) W 271 ° 0 min 0 W/m² 3,7 °C 5,4 °C 0,0 km/h (0 Bft)
25.03.2025 21:48 22,1 °C 5,4 °C 48 % 89 % 1018,8 hPa 0,0 l/m² 0,0 km/h (0 Bft) W 271 ° 0 min 0 W/m² 3,7 °C 5,4 °C 0,0 km/h (0 Bft)
25.03.2025 21:50 22,1 °C 5,4 °C 48 % 89 % 1018,9 hPa 0,0 l/m² 0,0 km/h (0 Bft) W 271 ° 0 min 0 W/m² 3,7 °C 5,4 °C 0,0 km/h (0 Bft)
25.03.2025 21:52 22,1 °C 5,4 °C 48 % 89 % 1018,8 hPa 0,0 l/m² 0,0 km/h (0 Bft) W 271 ° 0 min 0 W/m² 3,7 °C 5,4 °C 0,0 km/h (0 Bft)
25.03.2025 21:54 22,1 °C 5,4 °C 48 % 89 % 1018,9 hPa 0,0 l/m² 0,0 km/h (0 Bft) W 271 ° 0 min 0 W/m² 3,7 °C 5,4 °C 0,0 km/h (0 Bft)
25.03.2025 21:56 22,1 °C 5,3 °C 48 % 89 % 1018,9 hPa 0,0 l/m² 0,0 km/h (0 Bft) W 271 ° 0 min 0 W/m² 3,6 °C 5,3 °C 0,0 km/h (0 Bft)
25.03.2025 21:58 22,1 °C 5,2 °C 48 % 89 % 1018,8 hPa 0,0 l/m² 0,0 km/h (0 Bft) W 271 ° 0 min 0 W/m² 3,5 °C 5,2 °C 0,0 km/h (0 Bft)
25.03.2025 22:00 22,1 °C 5,2 °C 48 % 89 % 1018,8 hPa 0,0 l/m² 0,0 km/h (0 Bft) W 271 ° 0 min 0 W/m² 3,5 °C 5,2 °C 0,0 km/h (0 Bft)
25.03.2025 22:01 22,1 °C 5,2 °C 48 % 89 % 1018,8 hPa 0,0 l/m² 0,0 km/h (0 Bft) W 271 ° 0 min 0 W/m² 3,5 °C 5,2 °C 0,0 km/h (0 Bft)
25.03.2025 22:02 22,1 °C 5,2 °C 48 % 89 % 1018,8 hPa 0,0 l/m² 0,0 km/h (0 Bft) W 271 ° 0 min 0 W/m² 3,5 °C 5,2 °C 0,0 km/h (0 Bft)
25.03.2025 22:04 22,1 °C 5,2 °C 48 % 90 % 1018,9 hPa 0,0 l/m² 0,0 km/h (0 Bft) W 271 ° 0 min 0 W/m² 3,7 °C 5,2 °C 0,0 km/h (0 Bft)
25.03.2025 22:05 22,1 °C 5,2 °C 48 % 90 % 1018,8 hPa 0,0 l/m² 0,0 km/h (0 Bft) W 271 ° 0 min 0 W/m² 3,7 °C 5,2 °C 0,0 km/h (0 Bft)
25.03.2025 22:06 22,1 °C 5,2 °C 48 % 90 % 1018,8 hPa 0,0 l/m² 0,0 km/h (0 Bft) W 271 ° 0 min 0 W/m² 3,7 °C 5,2 °C 0,0 km/h (0 Bft)
25.03.2025 22:08 22,1 °C 5,3 °C 48 % 90 % 1018,8 hPa 0,0 l/m² 0,0 km/h (0 Bft) W 271 ° 0 min 0 W/m² 3,8 °C 5,3 °C 0,0 km/h (0 Bft)
25.03.2025 22:10 22,1 °C 5,3 °C 48 % 90 % 1018,8 hPa 0,0 l/m² 0,0 km/h (0 Bft) W 271 ° 0 min 0 W/m² 3,8 °C 5,3 °C 1,6 km/h (1 Bft)
25.03.2025 22:12 22,1 °C 5,3 °C 48 % 90 % 1018,8 hPa 0,0 l/m² 0,0 km/h (0 Bft) W 271 ° 0 min 0 W/m² 3,8 °C 5,3 °C 0,0 km/h (0 Bft)
25.03.2025 22:14 22,2 °C 5,3 °C 48 % 90 % 1018,8 hPa 0,0 l/m² 0,0 km/h (0 Bft) W 271 ° 0 min 0 W/m² 3,8 °C 5,3 °C 0,0 km/h (0 Bft)
25.03.2025 22:16 22,1 °C 5,3 °C 48 % 90 % 1018,7 hPa 0,0 l/m² 0,0 km/h (0 Bft) W 271 ° 0 min 0 W/m² 3,8 °C 5,3 °C 0,0 km/h (0 Bft)
25.03.2025 22:18 22,1 °C 5,3 °C 48 % 90 % 1018,8 hPa 0,0 l/m² 0,0 km/h (0 Bft) W 271 ° 0 min 0 W/m² 3,8 °C 5,3 °C 0,0 km/h (0 Bft)
25.03.2025 22:20 22,1 °C 5,4 °C 48 % 90 % 1018,8 hPa 0,0 l/m² 0,0 km/h (0 Bft) W 271 ° 0 min 0 W/m² 3,9 °C 5,4 °C 0,0 km/h (0 Bft)
25.03.2025 22:22 22,1 °C 5,4 °C 48 % 90 % 1018,8 hPa 0,0 l/m² 0,0 km/h (0 Bft) W 271 ° 0 min 0 W/m² 3,9 °C 5,4 °C 1,6 km/h (1 Bft)
25.03.2025 22:24 22,2 °C 5,5 °C 48 % 90 % 1018,8 hPa 0,0 l/m² 0,0 km/h (0 Bft) W 271 ° 0 min 0 W/m² 4,0 °C 5,5 °C 0,0 km/h (0 Bft)
25.03.2025 22:26 22,2 °C 5,5 °C 48 % 90 % 1018,8 hPa 0,0 l/m² 0,0 km/h (0 Bft) W 271 ° 0 min 0 W/m² 4,0 °C 5,5 °C 0,0 km/h (0 Bft)
25.03.2025 22:28 22,1 °C 5,6 °C 48 % 90 % 1018,7 hPa 0,0 l/m² 0,0 km/h (0 Bft) W 271 ° 0 min 0 W/m² 4,1 °C 5,6 °C 0,0 km/h (0 Bft)
25.03.2025 22:30 22,1 °C 5,6 °C 48 % 90 % 1018,8 hPa 0,0 l/m² 0,2 km/h (0 Bft) W 271 ° 0 min 0 W/m² 4,1 °C 5,6 °C 3,2 km/h (1 Bft)
25.03.2025 22:32 22,1 °C 5,6 °C 48 % 90 % 1018,9 hPa 0,0 l/m² 0,0 km/h (0 Bft) W 271 ° 0 min 0 W/m² 4,1 °C 5,6 °C 1,6 km/h (1 Bft)
25.03.2025 22:34 22,1 °C 5,7 °C 48 % 89 % 1018,8 hPa 0,0 l/m² 0,0 km/h (0 Bft) W 271 ° 0 min 0 W/m² 4,0 °C 5,7 °C 0,0 km/h (0 Bft)
25.03.2025 22:36 22,1 °C 5,7 °C 48 % 89 % 1018,8 hPa 0,0 l/m² 0,0 km/h (0 Bft) W 271 ° 0 min 0 W/m² 4,0 °C 5,7 °C 1,6 km/h (1 Bft)
25.03.2025 22:38 22,1 °C 5,7 °C 48 % 89 % 1018,8 hPa 0,0 l/m² 0,2 km/h (0 Bft) W 271 ° 0 min 0 W/m² 4,0 °C 5,7 °C 1,6 km/h (1 Bft)
25.03.2025 22:40 22,1 °C 5,7 °C 48 % 89 % 1018,8 hPa 0,0 l/m² 0,0 km/h (0 Bft) W 271 ° 0 min 0 W/m² 4,0 °C 5,7 °C 0,0 km/h (0 Bft)
25.03.2025 22:42 22,2 °C 5,7 °C 48 % 89 % 1018,8 hPa 0,0 l/m² 0,0 km/h (0 Bft) W 271 ° 0 min 0 W/m² 4,0 °C 5,7 °C 0,0 km/h (0 Bft)
25.03.2025 22:44 22,1 °C 5,7 °C 48 % 89 % 1018,8 hPa 0,0 l/m² 0,0 km/h (0 Bft) W 271 ° 0 min 0 W/m² 4,0 °C 5,7 °C 0,0 km/h (0 Bft)
25.03.2025 22:46 22,1 °C 5,7 °C 48 % 89 % 1018,8 hPa 0,0 l/m² 0,0 km/h (0 Bft) W 271 ° 0 min 0 W/m² 4,0 °C 5,7 °C 0,0 km/h (0 Bft)
25.03.2025 22:48 22,1 °C 5,8 °C 48 % 89 % 1018,8 hPa 0,0 l/m² 0,0 km/h (0 Bft) W 271 ° 0 min 0 W/m² 4,1 °C 5,8 °C 0,0 km/h (0 Bft)
25.03.2025 22:50 22,1 °C 5,8 °C 48 % 89 % 1018,8 hPa 0,0 l/m² 0,0 km/h (0 Bft) W 271 ° 0 min 0 W/m² 4,1 °C 5,8 °C 0,0 km/h (0 Bft)
25.03.2025 22:52 22,1 °C 5,8 °C 48 % 89 % 1018,8 hPa 0,0 l/m² 0,8 km/h (0 Bft) W 271 ° 0 min 0 W/m² 4,1 °C 5,8 °C 3,2 km/h (1 Bft)
25.03.2025 22:54 22,1 °C 5,8 °C 48 % 89 % 1018,8 hPa 0,0 l/m² 0,9 km/h (0 Bft) W 271 ° 0 min 0 W/m² 4,1 °C 5,8 °C 3,2 km/h (1 Bft)
25.03.2025 22:55 22,1 °C 5,8 °C 48 % 89 % 1018,9 hPa 0,0 l/m² 0,1 km/h (0 Bft) W 271 ° 0 min 0 W/m² 4,1 °C 5,8 °C 1,6 km/h (1 Bft)
25.03.2025 22:56 22,1 °C 5,8 °C 48 % 88 % 1018,9 hPa 0,0 l/m² 0,8 km/h (0 Bft) W 271 ° 0 min 0 W/m² 4,0 °C 5,8 °C 1,6 km/h (1 Bft)
25.03.2025 22:58 22,1 °C 5,8 °C 48 % 88 % 1018,9 hPa 0,0 l/m² 0,0 km/h (0 Bft) W 271 ° 0 min 0 W/m² 4,0 °C 5,8 °C 0,0 km/h (0 Bft)
25.03.2025 23:00 22,1 °C 5,8 °C 48 % 88 % 1018,8 hPa 0,0 l/m² 0,0 km/h (0 Bft) W 271 ° 0 min 0 W/m² 4,0 °C 5,8 °C 0,0 km/h (0 Bft)
25.03.2025 23:02 22,1 °C 5,8 °C 48 % 89 % 1018,8 hPa 0,0 l/m² 0,0 km/h (0 Bft) W-SW 256 ° 0 min 0 W/m² 4,1 °C 5,8 °C 0,0 km/h (0 Bft)
25.03.2025 23:04 22,1 °C 5,8 °C 48 % 89 % 1018,8 hPa 0,0 l/m² 0,0 km/h (0 Bft) W-SW 257 ° 0 min 0 W/m² 4,1 °C 5,8 °C 0,0 km/h (0 Bft)
25.03.2025 23:06 22,1 °C 5,9 °C 48 % 89 % 1018,8 hPa 0,0 l/m² 0,0 km/h (0 Bft) W-SW 256 ° 0 min 0 W/m² 4,2 °C 5,9 °C 0,0 km/h (0 Bft)
25.03.2025 23:08 22,1 °C 5,9 °C 48 % 88 % 1018,8 hPa 0,0 l/m² 0,0 km/h (0 Bft) W-SW 242 ° 0 min 0 W/m² 4,1 °C 5,9 °C 0,0 km/h (0 Bft)
25.03.2025 23:10 22,1 °C 5,9 °C 48 % 88 % 1018,8 hPa 0,0 l/m² 0,0 km/h (0 Bft) W-SW 242 ° 0 min 0 W/m² 4,1 °C 5,9 °C 0,0 km/h (0 Bft)
25.03.2025 23:12 22,1 °C 6,0 °C 48 % 88 % 1018,9 hPa 0,0 l/m² 0,0 km/h (0 Bft) W-SW 242 ° 0 min 0 W/m² 4,2 °C 6,0 °C 0,0 km/h (0 Bft)
25.03.2025 23:14 22,1 °C 6,0 °C 48 % 88 % 1018,9 hPa 0,0 l/m² 0,0 km/h (0 Bft) W-SW 242 ° 0 min 0 W/m² 4,2 °C 6,0 °C 0,0 km/h (0 Bft)
25.03.2025 23:15 22,1 °C 6,1 °C 48 % 88 % 1018,8 hPa 0,0 l/m² 0,0 km/h (0 Bft) N 0 ° 0 min 0 W/m² 4,3 °C 6,1 °C 0,0 km/h (0 Bft)
25.03.2025 23:16 22,1 °C 6,1 °C 48 % 88 % 1018,9 hPa 0,0 l/m² 0,0 km/h (0 Bft) N 0 ° 0 min 0 W/m² 4,3 °C 6,1 °C 0,0 km/h (0 Bft)
25.03.2025 23:17 22,1 °C 6,1 °C 48 % 88 % 1018,9 hPa 0,0 l/m² 0,0 km/h (0 Bft) N 0 ° 0 min 0 W/m² 4,3 °C 6,1 °C 0,0 km/h (0 Bft)
25.03.2025 23:18 22,1 °C 6,1 °C 48 % 88 % 1018,9 hPa 0,0 l/m² 0,0 km/h (0 Bft) N 0 ° 0 min 0 W/m² 4,3 °C 6,1 °C 0,0 km/h (0 Bft)
25.03.2025 23:19 22,1 °C 6,1 °C 48 % 88 % 1018,8 hPa 0,0 l/m² 0,0 km/h (0 Bft) N 0 ° 0 min 0 W/m² 4,3 °C 6,1 °C 0,0 km/h (0 Bft)
25.03.2025 23:20 22,1 °C 6,1 °C 48 % 88 % 1018,9 hPa 0,0 l/m² 0,0 km/h (0 Bft) N 0 ° 0 min 0 W/m² 4,3 °C 6,1 °C 0,0 km/h (0 Bft)
25.03.2025 23:26 22,0 °C 6,1 °C 48 % 88 % 1018,8 hPa 0,0 l/m² 0,0 km/h (0 Bft) W-SW 242 ° 0 min 0 W/m² 4,3 °C 6,1 °C 0,0 km/h (0 Bft)
25.03.2025 23:27 22,0 °C 6,1 °C 48 % 88 % 1018,8 hPa 0,0 l/m² 0,0 km/h (0 Bft) W-SW 242 ° 0 min 0 W/m² 4,3 °C 6,1 °C 0,0 km/h (0 Bft)
25.03.2025 23:28 22,0 °C 6,1 °C 48 % 88 % 1018,8 hPa 0,0 l/m² 0,0 km/h (0 Bft) W-SW 242 ° 0 min 0 W/m² 4,3 °C 6,1 °C 0,0 km/h (0 Bft)
25.03.2025 23:30 22,0 °C 6,1 °C 48 % 88 % 1018,9 hPa 0,0 l/m² 0,0 km/h (0 Bft) W-SW 242 ° 0 min 0 W/m² 4,3 °C 6,1 °C 0,0 km/h (0 Bft)
25.03.2025 23:32 22,0 °C 6,1 °C 48 % 88 % 1018,9 hPa 0,0 l/m² 0,0 km/h (0 Bft) W-SW 242 ° 0 min 0 W/m² 4,3 °C 6,1 °C 0,0 km/h (0 Bft)
25.03.2025 23:33 22,0 °C 6,1 °C 48 % 88 % 1018,9 hPa 0,0 l/m² 0,0 km/h (0 Bft) W-SW 242 ° 0 min 0 W/m² 4,3 °C 6,1 °C 0,0 km/h (0 Bft)
25.03.2025 23:35 22,0 °C 6,1 °C 48 % 88 % 1018,8 hPa 0,0 l/m² 0,0 km/h (0 Bft) W-SW 242 ° 0 min 0 W/m² 4,3 °C 6,1 °C 0,0 km/h (0 Bft)
25.03.2025 23:37 22,0 °C 6,1 °C 48 % 88 % 1018,8 hPa 0,0 l/m² 0,0 km/h (0 Bft) W-SW 242 ° 0 min 0 W/m² 4,3 °C 6,1 °C 0,0 km/h (0 Bft)
25.03.2025 23:39 22,0 °C 6,1 °C 48 % 88 % 1018,8 hPa 0,0 l/m² 0,0 km/h (0 Bft) W-SW 242 ° 0 min 0 W/m² 4,3 °C 6,1 °C 0,0 km/h (0 Bft)
25.03.2025 23:40 22,0 °C 6,1 °C 48 % 88 % 1018,9 hPa 0,0 l/m² 0,0 km/h (0 Bft) W-SW 242 ° 0 min 0 W/m² 4,3 °C 6,1 °C 0,0 km/h (0 Bft)
25.03.2025 23:41 22,0 °C 6,1 °C 48 % 88 % 1018,8 hPa 0,0 l/m² 0,0 km/h (0 Bft) W-SW 242 ° 0 min 0 W/m² 4,3 °C 6,1 °C 0,0 km/h (0 Bft)
25.03.2025 23:42 22,0 °C 6,1 °C 48 % 88 % 1018,8 hPa 0,0 l/m² 0,0 km/h (0 Bft) W-SW 242 ° 0 min 0 W/m² 4,3 °C 6,1 °C 0,0 km/h (0 Bft)
25.03.2025 23:44 22,0 °C 6,1 °C 48 % 88 % 1018,8 hPa 0,0 l/m² 0,0 km/h (0 Bft) W-SW 242 ° 0 min 0 W/m² 4,3 °C 6,1 °C 0,0 km/h (0 Bft)
25.03.2025 23:46 22,0 °C 6,1 °C 48 % 88 % 1018,9 hPa 0,0 l/m² 0,0 km/h (0 Bft) W-SW 242 ° 0 min 0 W/m² 4,3 °C 6,1 °C 0,0 km/h (0 Bft)
25.03.2025 23:48 22,0 °C 6,1 °C 48 % 88 % 1018,9 hPa 0,0 l/m² 0,0 km/h (0 Bft) W-SW 242 ° 0 min 0 W/m² 4,3 °C 6,1 °C 0,0 km/h (0 Bft)
25.03.2025 23:50 22,0 °C 6,1 °C 48 % 88 % 1018,8 hPa 0,0 l/m² 0,0 km/h (0 Bft) W-SW 242 ° 0 min 0 W/m² 4,3 °C 6,1 °C 0,0 km/h (0 Bft)
25.03.2025 23:51 21,9 °C 6,1 °C 48 % 88 % 1018,9 hPa 0,0 l/m² 0,0 km/h (0 Bft) W-SW 242 ° 0 min 0 W/m² 4,3 °C 6,1 °C 0,0 km/h (0 Bft)
25.03.2025 23:52 21,9 °C 6,1 °C 48 % 88 % 1018,9 hPa 0,0 l/m² 0,0 km/h (0 Bft) W-SW 242 ° 0 min 0 W/m² 4,3 °C 6,1 °C 0,0 km/h (0 Bft)
25.03.2025 23:54 22,0 °C 6,0 °C 48 % 88 % 1018,8 hPa 0,0 l/m² 0,0 km/h (0 Bft) W-SW 242 ° 0 min 0 W/m² 4,2 °C 6,0 °C 0,0 km/h (0 Bft)
25.03.2025 23:56 21,9 °C 6,1 °C 48 % 88 % 1018,8 hPa 0,0 l/m² 0,0 km/h (0 Bft) W-SW 242 ° 0 min 0 W/m² 4,3 °C 6,1 °C 0,0 km/h (0 Bft)
25.03.2025 23:58 21,9 °C 6,1 °C 48 % 88 % 1018,8 hPa 0,0 l/m² 0,0 km/h (0 Bft) W-SW 242 ° 0 min 0 W/m² 4,3 °C 6,1 °C 0,0 km/h (0 Bft)
_ Min-Zeit 19:04 04:25 16:56 14:59 01:44 - 23:58 - - - - 19:44 04:25 23:58
Minimum _ 21,8 °C 4,2 °C 45 % 69 % 1015,8 hPa - 0,0 km/h (0 Bft) - - - - 2,6 °C 4,2 °C 0,0 km/h (0 Bft)
_ Max-Zeit 22:42 14:29 20:09 07:36 21:03 03:40 16:02 - - 17:44 11:59 14:03 12:02 17:16
Maximum _ 22,2 °C 13,4 °C 49 % 95 % 1019,0 hPa 0,2 l/m² 18,6 km/h
NW (3 Bft)
- - 2 min 719 W/m² 8,2 °C 13,1 °C 25,7 km/h
N-NW (4 Bft)
Durchschnitt _ 21,9 °C 8,0 °C 46 % 85 % 1017,5 hPa #0,2 l/m² 3,8 km/h (1 Bft) W - #10:24 h 111 W/m² 5,6 °C 7,3 °C 6,5 km/h (2 Bft)
© 2009 Mathias Hoßbach